[[{"header":{"parameterUnit":"m.s-1","parameterCategory":1,"la1":30.6,"la2":29.2853,"lo1":-89.7004,"lo2":-87.6739,"dy":0.0162,"dx":0.0183,"nx":112,"ny":82,"refTime":"2023-07-16T12:00:00:Z","depth":0,"parameterNumber":2,"parameterNumberName":"U-component_of_WINDS"},"data":[0.0,0.0,0.0,0.0,0.0,0.0,0.0,0.0,0.0,0.0,0.0,0.0,0.0,0.0,0.0,0.0,0.0,0.0,0.0,0.0,0.0,0.0,0.0,0.0,0.0,0.0,0.0,0.0,0.0,0.0,0.0,0.0,0.0,0.0,0.0,0.0,0.0,0.0,0.0,0.0,0.0,0.0,0.0,0.0,0.0,0.0,0.0,0.0,0.0,0.0,0.0,0.0,0.0,0.0,0.0,0.0,0.0,0.0,0.0,0.0,0.0,0.0,0.0,0.0,0.0,0.0,0.0,0.0,0.0,0.0,0.0,0.0,0.0,0.0,0.0,0.0,0.0,0.0,0.0,0.0,0.0,0.0,0.0,0.0,0.0,0.0,0.0,0.0,0.0,0.0,0.0,0.5164,0.5487,0.5755,0.5825,0.6117,0.6455,0.6673,0.0,0.0,0.0,0.0,0.0,0.0,0.0,0.0,0.0,0.0,0.0,0.0,0.0,0.0,0.0,0.0,0.0,0.0,0.0,0.0,0.0,0.0,0.0,0.0,0.0,0.0,0.0,0.0,0.0,0.0,0.0,0.0,0.0,0.0,0.0,0.0,0.0,0.0,0.0,0.0,0.0,0.0,0.0,0.0,0.0,0.0,0.0,0.0,0.0,0.0,0.0,0.0,0.0,0.0,0.0,0.0,0.0,0.0,0.0,0.0,0.0,0.0,0.0,0.0,0.0,0.0,0.0,0.0,0.0,0.0,0.0,0.0,0.0,0.0,0.0,0.0,0.0,0.0,0.0,0.0,0.0,0.0,0.0,0.0,0.0,0.0,0.0,0.0,0.0,0.0,0.0,0.0,0.0,0.0,0.0,0.0,0.0,0.0,0.0,0.0,0.0,0.0,0.0,0.0,0.5323,0.4467,0.4598,0.5048,0.5874,0.6045,0.6333,0.6987,0.0,0.0,0.0,0.0,0.0,0.0,0.0,0.0,0.0,0.0,0.0,0.0,0.0,0.0,0.0,0.0,0.0,0.0,0.0,0.0,0.0,0.0,0.0,0.0,0.0,0.0,0.0,0.0,0.0,0.0,0.0,0.0,0.0,0.0,0.0,0.0,0.0,0.0,0.0,0.0,0.0,0.0,0.0,0.0,0.0,0.0,0.0,0.0,0.0,0.0,0.0,0.0,0.0,0.0,0.0,0.0,0.0,0.0,0.0,0.0,0.0,0.0,0.0,0.0,0.0,0.0,0.0,0.0,0.0,0.0,0.0,0.0,0.0,0.0,0.0,0.0,0.0,0.0,0.0,0.0,0.0,0.0,0.0,0.0,0.0,0.0,0.0,0.0,0.0,0.0,0.0,0.0,0.0,0.0,0.0,0.0,0.0,0.0,0.0,0.0,0.0,0.0,0.0,0.446,0.3431,0.3167,0.3922,0.4674,0.5136,0.5167,0.5317,0.5686,0.5858,0.0,0.0,0.0,0.0,0.0,0.0,0.0,0.0,0.0,0.0,0.0,0.0,0.0,0.0,0.0,0.0,0.0,0.0,0.0,0.0,0.0,0.0,0.0,0.0,0.0,0.0,0.0,0.0,0.0,0.0,0.0,0.0,0.0,0.0,0.0,0.0,0.0,0.0,0.0,0.0,0.0,0.0,0.0,0.0,0.0,0.0,0.0,0.0,0.0,0.0,0.0,0.0,0.0,0.0,0.0,0.0,0.0,0.0,0.0,0.0,0.0,0.0,0.0,0.0,0.0,0.0,0.0,0.0,0.0,0.0,0.0,0.0,0.0,0.0,0.0,0.0,0.0,0.0,0.0,0.0,0.0,0.0,0.0,0.0,0.0,0.0,0.0,0.0,0.0,0.0,0.0,0.0,0.0,0.0,0.0,0.0,0.0,0.0,0.0,0.0,0.0,0.0,0.3417,0.2085,0.1726,0.2738,0.3585,0.3925,0.3941,0.4085,0.446,0.5387,0.0,0.0,0.0,0.0,0.0,0.0,0.0,0.0,0.0,0.0,0.0,0.0,0.0,0.0,0.0,0.0,0.0,0.0,0.0,0.0,0.0,0.0,0.0,0.0,0.0,0.0,0.0,0.0,0.0,0.0,0.0,0.0,0.0,0.0,0.0,0.0,0.0,0.0,0.0,0.0,0.0,0.0,0.0,0.0,0.0,0.0,0.0,0.0,0.0,0.0,0.0,0.0,0.0,0.0,0.0,0.0,0.0,0.0,0.0,0.0,0.0,0.0,0.0,0.0,0.0,0.0,0.0,0.0,0.0,0.0,0.0,0.0,0.0,0.0,0.0,0.0,0.0,0.0,0.0,0.0,0.0,0.0,0.0,0.0,0.0,0.0,0.0,0.0,0.0,0.0,0.0,0.0,0.0,0.0,0.0,0.0,0.0,0.0,0.0,0.0,0.0,0.0,0.394,0.2613,0.0388,0.0279,0.0893,0.2232,0.2338,0.2943,0.432,0.5345,0.0,0.0,0.0,0.0,0.0,0.0,0.0,0.0,0.0,0.0,0.0,0.0,0.0,0.0,0.0,0.0,0.0,0.0,0.0,0.0,0.0,0.0,0.0,0.0,0.0,0.0,0.0,0.0,0.0,0.0,0.0,0.0,0.0,0.0,0.0,0.0,0.0,0.0,0.0,0.0,0.0,0.0,0.0,0.0,0.0,0.0,0.0,0.0,0.0,0.0,0.0,0.0,0.0,0.0,0.0,0.0,0.0,0.0,0.0,0.0,0.0,0.0,0.0,0.0,0.0,0.0,0.0,0.0,0.0,0.0,0.0,0.0,0.0,0.0,0.0,0.0,0.0,0.0,0.0,0.0,0.0,0.0,0.0,0.0,0.0,0.0,0.0,0.0,0.0,0.0,0.0,0.0,0.0,0.0,0.0,0.0,0.0,0.0,0.0,0.0,0.0,0.0,-0.017,-0.1783,0.0,-0.1118,0.0223,0.0781,0.0822,0.1542,0.3206,0.0,0.0,0.0,0.0,0.0,0.0,0.0,0.0,0.0,0.0,0.0,0.0,0.0,0.0,0.0,0.0,0.0,0.0,0.0,0.0,0.0,0.0,0.0,0.0,0.0,0.0,0.0,0.0,0.0,0.0,0.0,0.0,0.0,0.0,0.0,0.0,0.0,0.0,0.0,0.0,0.0,0.0,0.0,0.0,0.0,0.0,0.0,0.0,0.0,0.0,0.0,0.0,0.0,0.0,0.0,0.0,0.0,0.0,0.0,0.0,0.0,0.0,0.0,0.0,0.0,0.0,0.0,0.0,0.0,0.0,0.0,0.0,0.0,0.0,0.0,0.0,0.0,0.0,0.0,0.0,0.0,0.0,0.0,0.0,0.0,0.0,0.0,0.0,0.0,0.0,0.0,0.0,0.0,0.0,0.0,0.0,0.0,0.0,0.0,0.0,0.0,0.0,0.0236,-0.2605,-0.4515,0.0,-0.2635,-0.1062,-0.0056,-0.0,0.0775,0.2563,0.0,0.0,0.0,0.0,0.0,0.0,0.0,0.0,0.0,0.0,0.0,0.0,0.0,0.0,0.0,0.0,0.0,0.0,0.0,0.0,0.0,0.0,0.0,0.0,0.0,0.0,0.0,0.0,0.0,0.0,0.0,0.0,0.0,0.0,0.0,0.0,0.0,0.0,0.0,0.0,0.0,0.0,0.0,0.0,0.0,0.0,0.0,0.0,0.0,0.0,0.0,0.0,0.0,0.0,0.0,0.0,0.0,0.0,0.0,0.0,0.0,0.0,0.0,0.0,0.0,0.0,0.0,0.0,0.0,0.0,0.0,0.0,0.0,0.0,0.0,0.0,0.0,0.0,0.0,0.0,0.0,0.0,0.0,0.0,0.0,0.0,0.0,0.0,0.0,0.0,0.0,0.0,0.0,0.0,0.0,0.0,0.0,0.0,0.0,0.0,0.0,0.0,-0.0,-0.2617,-0.4456,-0.4497,-0.4514,-0.3314,-0.0279,-0.0,0.0736,0.0,0.0,0.0,0.0,0.0,0.0,0.0,0.0,0.0,0.0,0.0,0.0,0.0,0.0,0.0,0.0,0.0,0.0,0.0,0.0,0.0,0.0,0.0,0.0,0.0,0.0,0.0,0.0,0.0,0.0,0.0,0.0,0.0,0.0,0.0,0.0,0.0,0.0,0.0,0.0,0.0,0.0,0.0,0.0,0.0,0.0,0.0,0.0,0.0,0.0,0.0,0.0,0.0,0.0,0.0,0.0,0.0,0.0,0.0,0.0,0.0,0.0,0.0,0.0,0.0,0.0,0.0,0.0,0.0,0.0,0.0,0.0,0.0,0.0,0.0,0.0,0.0,0.0,0.0,0.0,0.0,0.0,0.0,0.0,0.0,0.0,0.0,0.0,0.0,0.0,0.0,0.0,0.0,0.0,0.0,0.0,0.0,0.0,0.0,0.0,0.0,0.0,0.0,0.0,-0.0805,-0.2159,-0.4278,-0.4514,-0.4113,-0.3256,-0.1232,0.0229,0.0783,0.0,0.0,0.0,0.0,0.0,0.0,0.0,0.0,0.0,0.0,0.0,0.0,0.0,0.0,0.0,0.0,0.0,0.0,0.0,0.0,0.0,0.0,0.0,0.0,0.0,0.0,0.0,0.0,0.0,0.0,0.0,0.0,0.0,0.0,0.0,0.0,0.0,0.0,0.0,0.0,0.0,0.0,0.0,0.0,0.0,0.0,0.0,0.0,0.0,0.0,0.0,0.0,0.0,0.0,0.0,0.0,0.0,0.0,0.0,0.0,0.0,0.0,0.0,0.0,0.0,0.0,0.0,0.0,0.0,0.0,0.0,0.0,0.0,0.0,0.0,0.0,0.0,0.0,0.0,0.0,0.0,0.0,0.0,0.0,0.0,0.0,0.0,0.0,0.0,0.0,0.0,0.0,0.0,0.0,0.0,0.0,0.0,0.0,0.0,0.0,0.0,0.0,0.0062,-0.0,-0.067,-0.2521,-0.3769,-0.4514,-0.4514,-0.1738,-0.0,-0.0,0.0,0.0,0.0,0.0,0.0,0.0,0.0,0.0,0.0,0.0,0.0,0.0,0.0,0.0,0.0,0.0,0.0,0.0,0.0,0.0,0.0,0.0,0.0,0.0,0.0,0.0,0.0,0.0,0.0,0.0,0.0,0.0,0.0,0.0,0.0,0.0,0.0,0.0,0.0,0.0,0.0,0.0,0.0,0.0,0.0,0.0,0.0,0.0,0.0,0.0,0.0,0.0,0.0,0.0,0.0,0.0,0.0,0.0,0.0,0.0,0.0,0.0,0.0,0.0,0.0,0.0,0.0,0.0,0.0,0.0,0.0,0.0,0.0,0.0,0.0,0.0,0.0,0.0,0.0,0.0,0.0,0.0,0.0,0.0,0.0,0.0,0.0,0.0,0.0,0.0,0.0,0.0,0.0,0.0,0.0,0.0,0.0,0.0,0.0,0.0,0.0,0.0,0.0184,-0.0,-0.0,-0.0,-0.2465,-0.4058,-0.4058,-0.157,-0.0,-0.0,0.0,0.0,0.0,0.0,0.0,0.0,0.0,0.0,0.0,0.0,0.0,0.0,0.0,0.0,0.0,0.0,0.0,0.0,0.0,0.0,0.0,0.0,0.0,0.0,0.0,0.0,0.0,0.0,0.0,0.0,0.0,0.0,0.0,0.0,0.0,0.0,0.0,0.0,0.0,0.0,0.0,0.0,0.0,0.0,0.0,0.0,0.0,0.0,0.0,0.0,0.0,0.0,0.0,0.0,0.0,0.0,0.0,0.0,0.0,0.0,0.7802,0.0,0.0,0.0,0.0,0.0,0.0,0.0,0.0,0.0,0.0,0.0,0.0,0.0,0.0,0.0,0.0,0.0,0.0,0.0,0.0,0.0,0.0,0.0,0.0,0.0,0.0,0.0,0.0,0.0,0.0,0.0,0.0,0.0,0.0,0.0,0.0,0.0,0.0,0.0,0.0,0.0,0.0247,-0.0,-0.0,-0.0,-0.056,-0.0953,-0.0953,-0.0392,-0.0,-0.0,0.0,0.0,0.0,0.0,0.0,0.0,0.0,0.0,0.0,0.0,0.0,0.0,0.0,0.0,0.0,0.0,0.0,0.0,0.0,0.0,0.0,0.0,0.0,0.0,0.0,0.0,0.0,0.0,0.0,0.0,0.0,0.0,0.0,0.0,0.0,0.0,0.0,0.0,0.0,0.0,0.0,0.0,0.0,0.0,0.0,0.0,0.0,0.0,0.0,0.0,0.0,0.0,0.0,0.0,0.0,0.0,0.0,0.0,0.0,0.0,0.0,0.7938,0.0,0.0,0.0,0.0,0.0,0.0,0.0,0.0,0.0,0.0,0.0,0.0,0.0,0.0,0.0,0.0,0.0,0.0,0.0,0.0,0.0,0.0,0.0,0.0,0.0,0.0,0.0,0.0,0.0,0.0,0.0,0.0,0.0,0.0,0.0,0.0,0.0,0.0,0.0,0.0,0.0252,-0.0,-0.0,-0.0,-0.0,-0.0,-0.0,-0.0,-0.0,-0.0,-0.0,0.0,0.0,0.0,0.0,0.0,0.0,0.0,0.0,0.0,0.0,0.0,0.0,0.0,0.0,0.0,0.0,0.0,0.0,0.0,0.0,0.0,0.0,0.0,0.0,0.0,0.0,0.0,0.0,0.0,0.0,0.0,0.0,0.0,0.0,0.0,0.0,0.0,0.0,0.0,0.0,0.0,0.0,0.0,0.0,0.0,0.0,0.0,0.0,0.0,0.0,0.0,0.0,0.0,0.0,0.0,0.5849,0.6204,0.5299,0.3846,0.8273,0.7677,0.3552,0.0,0.0,0.0,0.0,0.0,0.0,0.0,0.0,0.0,0.0,0.0,0.0,0.0,0.0,0.0,0.0,0.0,0.0,0.0,0.0,0.0,0.0,0.0,0.0,0.0,0.2781,0.4967,0.0,0.0,0.0,0.0,0.0,0.0,0.0,0.0,0.0,0.0,0.0,0.0,0.0258,-0.0,-0.0,-0.0,-0.0,-0.0,-0.0,-0.0,-0.0,-0.0,-0.0,-0.0,0.0,0.0,0.0,0.0,0.0,0.0,0.0,0.0,0.0,0.0,0.0,0.0,0.0,0.0,0.0,0.0,0.0,0.0,0.0,0.0,0.0,0.0,0.0,0.0,0.0,0.0,0.0,0.0,0.0,0.0,0.0,0.0,1.6539,1.632,0.0,0.0,0.0,0.0,0.0,0.0,0.0,0.0,0.0,0.0,0.0,0.0,0.0,0.0,0.8348,0.8629,0.8625,0.8239,0.3279,0.0888,0.1044,0.4631,0.4222,0.0586,0.13,0.0,0.0539,0.0151,0.0,0.0,0.0,0.0,0.0,0.0,0.0,0.0,0.0,0.0,0.0,0.0,0.0,0.0,0.0,0.0,0.0,0.0,0.0,0.0,0.0,0.0,0.0563,0.0128,0.2781,0.5328,0.0,0.3803,0.3157,0.4706,0.0,0.0,0.0,0.0,0.0,0.0,0.0,0.0,0.0259,-0.0,-0.0,-0.0,-0.0,-0.0,-0.0,-0.0,-0.0,-0.0,-0.0,-0.0,-0.0,0.0246,0.0,0.0,0.0,0.0,0.0,0.0,0.0,0.0,0.0,0.0,0.0,0.0,0.0,0.0,0.0,0.0,0.0,0.0,0.0,0.0,0.0,0.0,0.0,0.0,0.0,0.0,0.0,0.0,0.0,1.8788,1.6582,1.3761,1.4361,1.4876,0.0,0.0,0.0,0.0,0.0,0.0,0.0,0.0,0.0,0.9163,0.6103,0.4034,0.3067,0.3368,0.3473,0.3473,0.1131,-0.0,0.0092,0.1944,0.1741,-0.0,-0.0,-0.0,-0.0,-0.0,-0.0,-0.0,0.0,0.0,0.0,0.0,0.0,-0.5914,-0.5908,0.0,0.0,0.0,0.0,0.0,0.0,0.0,0.0,0.0,0.0,0.0,0.0,0.0,0.0,-0.0,0.2744,0.5434,0.5572,0.4966,0.4616,0.0,0.4099,0.3313,0.406,0.0,0.0,0.0,0.0,0.0,0.3181,0.3019,0.2585,0.1353,0.1217,0.1322,0.1495,0.1355,0.0901,0.0057,-0.0,-0.0,-0.0,-0.0,-0.0,0.0,0.0,0.0,0.0,0.0,0.0,0.0,0.0,0.0,0.0,0.0,0.0,0.0,0.0,0.0,0.0,0.0,0.0,0.0,0.0,0.0,0.0,0.0,0.0,0.0,0.0,0.0,0.0,1.825,1.572,1.1662,1.1849,1.2058,0.0,0.0,0.0,0.0,0.0,0.0,0.6089,0.9577,0.993,0.6083,0.2114,-0.0,-0.0,-0.0,-0.0,-0.0,-0.0,-0.0,-0.0,-0.0,-0.0,-0.0,-0.0,-0.0,-0.0,-0.0,-0.0,-0.0,-0.0,-0.2193,0.0,-0.5725,-0.5997,-0.613,-0.6013,-0.5868,-0.5477,-0.3903,0.0,-0.0,-0.0,0.0,0.0,0.0,0.0,-0.4983,-0.2095,0.0,-0.0,-0.0,0.2044,0.4352,0.5542,0.5755,0.5738,0.0,0.544,0.5063,0.3989,0.0,0.0,0.0,0.0,0.545,0.4794,0.5115,0.4784,0.3195,0.2926,0.297,0.3271,0.3058,0.24,0.123,0.086,0.0459,-0.0,-0.0,-0.0,-0.0,0.0,0.0,0.0,0.0,0.0,0.0,0.0,0.0,0.0,0.0,0.0,0.0,0.0,0.0,0.0,0.0,0.0,0.0,0.0,0.0,0.0,0.0,0.0,0.0,0.0,0.0,0.0,0.0,0.0,1.1575,1.0246,0.0,0.0,0.0,0.0,1.1848,1.4094,1.1144,0.0979,0.0686,0.0687,0.0392,0.0098,-0.0,-0.0,-0.0,-0.0,-0.0,-0.0,-0.0,-0.0,-0.0,-0.0,-0.0,-0.0,-0.0,-0.0,-0.0,-0.0,-0.0,-0.0,-0.0177,-0.0636,-0.2906,-0.5025,-0.6602,-0.5991,-0.565,-0.5403,-0.5303,-0.289,-0.0,-0.0,-0.015,0.0,0.0,-0.474,-0.6047,-0.5343,-0.2594,-0.0,-0.0,0.0153,0.1281,0.5005,0.5907,0.5912,0.0,0.555,0.5444,0.5633,0.0,0.5332,0.4196,0.4045,0.3726,0.2956,0.4322,0.5353,0.5276,0.4961,0.4755,0.4816,0.4802,0.4598,0.4305,0.3226,0.1781,0.0061,-0.0,-0.0,-0.0,-0.0,0.0,0.0,0.0,0.0,0.0,0.0,0.0,0.0,0.0,0.0,0.0,0.0,0.0,0.0,0.0,0.0,0.0,0.0,0.0,0.0,0.0,0.0,0.0,0.0,0.0,0.0,0.0,0.0,1.1971,1.1382,0.0,0.0,1.0964,1.0518,0.7,0.606,0.402,0.0196,-0.0,-0.0,-0.0,-0.0,-0.0,-0.0,-0.0,0.1716,0.5159,0.5159,0.4239,0.2514,0.0807,-0.0,-0.0,-0.0,-0.0,-0.0,-0.0,-0.0,-0.0,-0.0,-0.0,-0.009,-0.0955,-0.2569,-0.4361,-0.4142,-0.4893,-0.5499,-0.2821,-0.1025,-0.0,-0.0,-0.0,-0.0146,-0.0874,-0.1641,-0.2217,-0.1972,-0.0935,-0.0,-0.0,-0.0,0.0396,0.1743,0.4128,0.6002,0.6142,0.5909,0.5818,0.5939,0.5833,0.5525,0.5157,0.495,0.4783,0.4445,0.4995,0.5329,0.5222,0.5098,0.5004,0.5004,0.4935,0.4894,0.4865,0.4351,0.387,0.3481,0.2362,0.1766,0.1768,0.1753,0.247,0.0,0.0,0.0,0.0,0.0,0.0,0.0,0.0,0.0,0.0,0.0,0.0,0.0,0.0,0.0,0.0,0.0,0.0,0.0,0.0,0.0,0.0,0.0,0.0,0.0,0.0,1.3362,1.174,1.1189,1.0263,0.8546,0.956,0.8696,0.4781,0.2592,0.1502,0.1511,0.0516,0.0416,0.1438,0.2497,0.2491,0.1322,0.1433,0.3266,0.6676,0.7699,0.719,0.5487,0.3586,0.1745,-0.0,-0.0,-0.0,-0.0,-0.0,-0.0,-0.0,-0.0,-0.0,-0.0,-0.0,-0.0896,-0.2053,-0.208,-0.3022,-0.3718,-0.0916,0.1124,0.2394,0.2373,0.1858,0.1048,0.0226,-0.0,-0.0,-0.0,-0.0,-0.0,-0.0,-0.0,0.0408,0.2051,0.3844,0.5448,0.6278,0.6298,0.6159,0.6051,0.5879,0.5815,0.5815,0.5587,0.5467,0.5599,0.5511,0.541,0.5298,0.5287,0.5264,0.5213,0.5121,0.5087,0.5075,0.5038,0.5104,0.529,0.4259,0.3737,0.3741,0.3641,0.3797,0.4155,0.0,0.0,0.0,0.0,0.0,0.0,0.0,0.0,0.0,0.0,0.0,0.0,0.0,0.0,0.0,0.0,0.0,0.0,0.0,0.0,0.0,0.0,0.0,1.4837,1.3168,1.1434,1.0767,0.9429,0.8503,0.8503,0.8176,0.7361,0.5578,0.4967,0.4592,0.4671,0.1913,0.1594,0.4457,0.7378,0.732,0.4135,0.4418,0.4482,0.4227,0.7128,0.8472,0.844,0.8184,0.5094,0.0105,-0.0,-0.0,-0.0,-0.0,-0.0,-0.0,-0.0,-0.0,-0.0,-0.0,-0.0,-0.0,-0.0,-0.0,-0.0,0.017,0.3369,0.7087,0.71,0.555,0.3255,0.0897,0.0165,0.0084,0.0086,0.0086,0.0085,0.0087,0.0084,0.1394,0.5978,0.5301,0.4331,0.6436,0.6699,0.6507,0.6098,0.6047,0.6044,0.603,0.5789,0.0,0.5986,0.5772,0.5599,0.5603,0.5603,0.5545,0.5463,0.5446,0.5311,0.5155,0.5281,0.5298,0.5095,0.5511,0.5748,0.5766,0.5568,0.5653,0.6179,0.0,0.0,0.0,0.0,0.0,0.0,0.0,0.0,0.0,0.0,0.0,0.0,0.0,0.0,0.0,0.0,0.0,0.0,0.0,0.0,0.0,0.0,1.4836,1.3102,1.0794,0.9274,0.9359,0.9147,0.8971,0.8971,0.8836,0.8443,0.7786,0.7689,0.7674,0.7723,0.6926,0.5898,0.4567,0.7347,0.8431,0.7518,0.7446,0.7419,0.7333,0.8164,0.8496,0.8546,0.8414,0.6417,0.2785,0.0846,-0.0,-0.0,-0.0,-0.0,-0.0,-0.0,-0.0,-0.0,-0.0,-0.0,-0.0,-0.0,-0.0,0.0531,0.401,0.6002,0.7108,0.7138,0.6793,0.6351,0.5368,0.3929,0.2616,0.264,0.2587,0.2629,0.2606,0.2578,0.2986,0.4295,0.5403,0.6307,0.6736,0.6868,0.6854,0.6424,0.6444,0.6407,0.6078,0.0,0.0,0.5881,0.5793,0.5786,0.5898,0.5908,0.5891,0.585,0.5745,0.5616,0.0,0.5399,0.5345,0.5304,0.5452,0.5552,0.5669,0.5788,0.5092,0.0,0.0,0.0,0.0,0.0,0.0,0.0,0.0,0.0,0.0,0.0,0.0,0.0,0.0,0.0,0.0,0.0,0.0,0.0,0.0,0.0,0.0,1.5415,1.4076,1.2111,1.1067,1.0728,1.1168,1.1326,1.1159,1.0478,1.026,0.9856,0.9034,0.8984,0.9028,0.9054,0.8974,0.8115,0.6401,0.8025,0.8896,0.8842,0.8682,0.8642,0.8611,0.8804,0.8747,0.8676,0.8672,0.6987,0.0,0.1199,-0.0,-0.0,-0.0,-0.0,0.0,0.0,0.0,0.0,0.0,-0.0,-0.0,-0.0,0.1485,0.377,0.6576,0.7415,0.7305,0.7386,0.7397,0.7485,0.7316,0.6201,0.5068,0.5038,0.5097,0.5097,0.5265,0.5192,0.506,0.5147,0.6162,0.7063,0.7076,0.0,0.0,0.68,0.6776,0.6709,0.6444,0.6322,0.624,0.0,0.6013,0.5932,0.602,0.603,0.6003,0.5939,0.5911,0.0,0.0,0.0,0.564,0.564,0.564,0.0,0.0,0.0,0.5384,0.0,0.0,0.0,0.0,-0.2549,-0.4631,0.0,0.0,0.0,0.0,0.0,0.0,0.0,0.0,0.0,0.0,0.0,0.0,0.0,0.0,0.0,0.0,1.3502,1.2341,1.1841,1.312,1.4103,1.4084,1.4286,1.3834,1.2429,1.2177,1.1403,0.9757,0.9377,0.9178,0.0,0.0,0.0,0.0,0.0,0.8893,0.8737,0.8869,0.8811,0.8564,0.896,0.9096,0.8994,0.8921,0.73,0.4326,0.1343,-0.0,-0.0,-0.0,-0.0,-0.0,-0.0,-0.0,-0.0,-0.0,-0.0,0.0,0.0,0.0,0.0,0.7981,0.7848,0.7715,0.7712,0.7619,0.7421,0.7428,0.7339,0.7155,0.7151,0.7148,0.7268,0.7485,0.7324,0.7207,0.7353,0.7293,0.7186,0.735,0.7285,0.719,0.719,0.7058,0.6943,0.6909,0.658,0.0,0.6668,0.6352,0.6112,0.6129,0.0,0.0,0.5915,0.6027,0.6034,0.5864,0.5979,0.6057,0.6057,0.6071,0.6073,0.6058,0.5971,0.581,0.5496,0.5538,0.3637,-0.0,-0.0,-0.1978,0.0,0.0,0.0,0.0,0.0,0.0,0.0,0.0,0.0,0.0,0.0,0.0,0.0,0.0,0.0,1.4757,1.4044,1.3497,1.3742,1.5456,1.5574,1.2768,1.3721,1.442,1.4183,1.2845,1.1917,1.1532,1.0226,0.9337,0.9337,0.9198,0.0,0.9113,0.9001,0.893,0.8896,0.8923,0.8967,0.9025,0.0,0.0,0.9293,0.9245,0.7536,0.4329,0.1358,-0.0,-0.0,-0.0,-0.0,-0.0,-0.0,-0.0,-0.0,-0.0,-0.0,0.0601,0.4942,0.7085,0.7935,0.778,0.7722,0.7712,0.7607,0.7662,0.0,0.7594,0.7621,0.7662,0.755,0.7522,0.7499,0.7404,0.7434,0.7461,0.7394,0.7431,0.7492,0.7546,0.7529,0.7512,0.7512,0.7282,0.7017,0.678,0.6776,0.6776,0.6709,0.6624,0.6617,0.6742,0.6753,0.6692,0.6539,0.6552,0.6458,0.619,0.62,0.6217,0.6217,0.6325,0.6327,0.6214,0.4613,0.4509,0.613,0.2857,0.0765,-0.0,-0.0,-0.0419,0.0,0.0,0.0,0.0,0.0,0.0,0.0,0.0,0.0,0.0,0.0,1.4307,0.0,0.0,1.3277,1.3492,1.3958,1.4188,1.3662,1.5136,1.5857,1.4901,1.6203,1.6929,1.6084,1.4321,1.3254,1.3254,1.0977,0.9842,1.0646,0.9806,0.9266,0.9266,0.9198,0.9161,0.9161,0.9161,0.9195,0.9269,0.9344,0.9422,0.9493,0.9586,0.7842,0.4553,0.1385,-0.0,-0.0,-0.0,-0.0,-0.0,-0.0,-0.0,-0.0,-0.0,0.1716,0.4342,0.7024,0.8001,0.7974,0.7879,0.7841,0.7828,0.7821,0.7818,0.7797,0.7726,0.7706,0.7689,0.7617,0.76,0.7597,0.7594,0.7597,0.7597,0.7594,0.7597,0.7621,0.7692,0.7648,0.7624,0.7692,0.7519,0.7319,0.7173,0.7085,0.7007,0.6932,0.6793,0.6729,0.6807,0.6814,0.6783,0.6709,0.6702,0.6637,0.6488,0.6481,0.6481,0.6481,0.6549,0.6552,0.6485,0.424,0.3088,0.3132,0.1044,-0.0,-0.0,-0.0,-0.0,0.0,0.0,0.0,0.0,0.0,0.0,0.0,0.0,1.3461,1.227,1.1957,1.135,0.9592,1.0593,1.17,1.176,1.303,1.372,1.2418,1.3568,1.5192,1.6566,1.8282,1.8941,1.7961,1.5926,1.4604,1.4604,1.1491,1.0235,1.1516,1.0197,0.9425,0.9425,0.9398,0.9381,0.9381,0.9381,0.9395,0.9425,0.9551,0.9625,0.9652,0.9789,0.8145,0.5025,0.1533,-0.0,-0.0,-0.0,-0.0,-0.0,-0.0,-0.0,-0.0,-0.0,0.3352,0.7961,0.8029,0.7999,0.7972,0.7969,0.7955,0.8038,0.8038,0.7953,0.7855,0.7855,0.7773,0.7685,0.7685,0.7685,0.7706,0.779,0.7746,0.7709,0.7794,0.7743,0.7719,0.7834,0.7763,0.7723,0.7834,0.776,0.7665,0.7607,0.7387,0.7231,0.7231,0.7024,0.6875,0.6875,0.6875,0.6875,0.6875,0.682,0.681,0.6871,0.6848,0.6844,0.6875,0.6875,0.685,0.6796,0.4837,0.2565,-0.0,-0.0,-0.0,-0.0,-0.0,-0.0,2.7093,2.4666,2.0657,1.8552,1.6879,1.5274,0.0,0.0,1.25,1.1449,1.0424,0.9652,0.9463,0.9713,1.0086,1.0242,1.0524,1.0806,1.0701,1.225,1.3391,1.3642,1.5921,1.7973,1.943,1.6533,1.4604,1.4604,1.1599,0.9916,1.0034,0.9779,0.9585,0.9585,0.9452,0.9381,0.9381,0.9381,0.9449,0.9585,0.9602,0.9676,0.9795,0.9816,0.8615,0.6122,0.1926,-0.0,-0.0,-0.0,-0.0,-0.0,-0.0,-0.0,-0.0,-0.0,0.3417,0.7994,0.8046,0.7985,0.7969,0.8048,0.8041,0.8038,0.8038,0.8028,0.8014,0.8014,0.8001,0.7991,0.7991,0.7991,0.796,0.7838,0.7902,0.7957,0.7838,0.7906,0.7994,0.8011,0.8001,0.7994,0.8011,0.8001,0.7902,0.7638,0.757,0.755,0.755,0.7519,0.7499,0.7499,0.7499,0.7499,0.7499,0.7248,0.7207,0.7482,0.737,0.7356,0.7495,0.7413,0.728,0.7093,0.6828,0.4478,-0.0,-0.0,-0.0,-0.0,-0.0,-0.0,2.506,2.3109,0.0,0.0,1.5524,1.3567,1.2211,1.1331,1.0827,1.0435,1.0017,1.0061,1.1333,1.1689,1.1876,0.0,1.2024,1.1713,1.0743,1.1189,1.1985,1.2898,1.4514,1.5986,1.6857,1.5574,1.4604,1.4604,1.1619,1.0179,1.1137,1.024,0.9774,0.9863,0.9717,0.968,0.9771,0.9683,0.9669,0.9734,0.9734,0.9764,0.9819,0.9785,0.9268,0.8262,0.4292,0.2573,0.2631,0.259,0.2674,0.2657,0.2637,0.2618,0.2808,0.4201,0.5054,0.5911,0.7491,0.7969,0.7952,0.8041,0.8038,0.8038,0.8038,0.8038,0.8038,0.8038,0.8038,0.8038,0.8038,0.8038,0.8024,0.796,0.7991,0.8021,0.796,0.7994,0.8038,0.8038,0.8038,0.8038,0.8038,0.8038,0.7997,0.7875,0.778,0.7723,0.7723,0.7651,0.76,0.76,0.76,0.76,0.76,0.7482,0.7461,0.759,0.7539,0.7533,0.7597,0.7513,0.6632,0.5073,0.6423,0.4795,-0.0,-0.0,-0.0,-0.0,-0.0,0.1463,2.3752,0.0,0.0,1.7058,1.44,1.2163,1.1125,1.0394,0.9846,1.0032,1.0158,1.0802,1.2814,1.3227,0.0,1.3325,1.3325,1.2672,1.0982,1.0939,1.1385,1.2595,1.4,1.459,1.4043,1.4326,1.4296,1.4004,1.1378,1.0301,1.1499,1.0418,0.989,1.0042,0.99,0.9893,1.0046,0.9897,0.9822,0.9822,0.9822,0.9822,0.9822,0.9839,0.9781,0.9543,0.7012,0.5837,0.5722,0.566,0.5732,0.571,0.571,0.5693,0.5868,0.7599,0.6894,0.5544,0.7437,0.8119,0.8096,0.8055,0.8038,0.8038,0.8038,0.8038,0.8038,0.8038,0.8038,0.8038,0.8038,0.8038,0.8038,0.8038,0.8038,0.8052,0.8096,0.8102,0.8102,0.8102,0.8102,0.8089,0.8045,0.8038,0.8038,0.8038,0.7943,0.7875,0.7875,0.7784,0.7723,0.7723,0.7723,0.7723,0.7723,0.7682,0.7675,0.7719,0.7682,0.7682,0.7729,0.7644,0.6658,0.4892,0.5003,0.3454,-0.0,-0.0,-0.0,-0.0,0.1503,0.4018,0.0,0.0,1.8768,1.5744,1.3086,1.098,1.0169,1.0148,1.0341,1.0633,1.0697,1.1222,1.2923,1.332,1.3325,1.3325,1.3325,1.2672,1.0982,1.1611,1.2336,1.2275,1.4356,1.4751,0.0,1.3216,1.3654,1.232,1.0781,0.9819,0.9819,0.9819,0.989,1.0042,0.99,0.9893,1.0046,0.9897,0.9822,0.9822,0.9822,0.9822,0.9822,0.9822,0.9637,0.9523,0.9397,0.9118,0.8752,0.8749,0.8784,0.8782,0.8782,0.8803,0.8781,0.8635,0.8507,0.8461,0.828,0.8275,0.8238,0.8089,0.8038,0.8038,0.8038,0.8038,0.8038,0.8038,0.8038,0.8038,0.8038,0.8038,0.8038,0.8038,0.8038,0.8079,0.8231,0.8262,0.8262,0.8262,0.8262,0.8214,0.8065,0.8038,0.8038,0.8038,0.8035,0.8031,0.8031,0.8028,0.8024,0.8024,0.8024,0.8024,0.8024,0.7889,0.7868,0.8018,0.7885,0.7882,0.7952,0.7969,0.7918,0.7892,0.2844,0.0097,-0.0,-0.0,-0.0,0.0095,0.5353,0.7875,0.0,0.0,1.7516,1.5626,1.2813,1.0557,1.0544,1.0534,1.0571,1.0568,1.1048,1.174,1.2606,1.3322,1.3615,1.3,1.2978,1.254,1.0969,1.0932,1.1042,1.0663,1.2149,0.0,0.0,0.0,0.0,1.2237,1.1442,1.126,1.137,1.04,1.0042,1.0198,1.0053,1.0046,1.0202,0.9947,0.9822,0.9822,0.9822,0.9822,0.9822,0.9822,0.9798,0.9754,0.9663,0.9389,0.9201,0.9101,0.8977,0.885,0.885,0.8933,0.8886,0.8876,0.8763,0.8719,0.8523,0.8414,0.8401,0.835,0.8269,0.8211,0.8306,0.8269,0.8211,0.8306,0.8333,0.8333,0.8333,0.8262,0.8218,0.8309,0.8262,0.8231,0.8381,0.8411,0.8384,0.8289,0.8272,0.8221,0.8065,0.8038,0.8038,0.8038,0.8038,0.8038,0.8038,0.8038,0.8038,0.8038,0.8038,0.8038,0.8038,0.7991,0.7984,0.8035,0.7991,0.7987,0.8048,0.6842,0.6323,0.6289,0.3886,0.1787,-0.0,-0.0,0.1855,0.5358,0.7177,0.7914,2.4844,2.12,1.7377,1.5658,1.3322,1.1253,1.0809,1.0677,1.0582,1.0375,1.1483,1.2656,1.2876,1.3926,1.4316,1.3315,1.2856,1.2142,1.0784,1.0888,1.0929,1.0736,1.1721,0.0,0.0,0.0,0.0,1.133,1.1647,1.1737,1.137,1.0454,1.012,1.0276,1.0185,1.0178,1.028,1.0029,1.0117,1.066,1.066,1.066,1.066,1.0058,0.9791,0.9741,0.9649,0.9523,0.9374,0.9276,0.9181,0.9096,0.9096,0.9096,0.9096,0.9096,0.9096,0.9055,0.875,0.8611,0.8564,0.8564,0.8465,0.8364,0.8455,0.8418,0.8367,0.8455,0.8482,0.8482,0.8482,0.8414,0.837,0.8462,0.8414,0.8387,0.8533,0.8564,0.8537,0.8445,0.8384,0.8299,0.8147,0.8075,0.8038,0.8038,0.8038,0.8038,0.8038,0.8038,0.8038,0.8038,0.8038,0.8038,0.8038,0.8038,0.8038,0.8038,0.8038,0.8041,0.7952,0.6939,0.6337,0.6339,0.5734,0.4626,0.2815,0.1886,0.318,0.657,0.7601,0.795,2.3835,2.1304,1.8338,1.5824,1.4326,1.2927,1.1351,1.0833,1.076,1.0319,1.2126,1.3839,0.0,0.0,1.5308,1.4244,1.3101,1.1807,1.0478,1.1267,1.2024,0.0,0.0,0.0,0.0,0.0,0.0,0.9856,0.0,1.1623,1.0204,1.0112,1.0141,1.0287,1.029,1.0287,1.028,1.0117,1.0815,1.2333,1.2213,1.2213,1.2093,1.0539,0.9747,0.9618,0.9618,0.9534,0.9395,0.9395,0.9388,0.9381,0.9381,0.9381,0.9381,0.9381,0.9381,0.9344,0.9069,0.8872,0.8743,0.8743,0.8635,0.8506,0.8513,0.8506,0.8496,0.8513,0.8516,0.8516,0.8526,0.8523,0.8516,0.8516,0.8509,0.8547,0.8693,0.8723,0.872,0.8713,0.8581,0.8428,0.8292,0.8143,0.8038,0.8038,0.8038,0.8038,0.8038,0.8038,0.8038,0.8038,0.8038,0.8038,0.8038,0.8045,0.8048,0.8038,0.8045,0.8058,0.7972,0.7972,0.7975,0.7985,0.7985,0.7989,0.7989,0.5432,0.4216,0.4218,0.6848,0.7972,2.2954,2.0713,1.8173,1.7502,1.6222,1.5058,1.4111,1.4471,1.4721,1.4114,1.5615,1.6749,0.0,0.0,0.0,1.3734,1.3596,0.0,1.077,1.0851,0.0,0.0,0.0,1.0949,1.0382,1.1626,0.0,0.0,1.1183,1.2569,1.3834,1.1676,1.0395,1.0436,1.0436,1.0388,1.0283,1.1233,1.2384,1.4009,1.2813,1.2213,1.2093,1.0539,0.9802,0.9768,0.9768,0.9686,0.9551,0.9551,0.9486,0.9381,0.9381,0.9381,0.9381,0.9381,0.9381,0.9388,0.9425,0.9337,0.9211,0.9211,0.9035,0.8842,0.895,0.8828,0.8699,0.892,0.8981,0.9008,0.9123,0.9069,0.8981,0.8981,0.8899,0.8832,0.8872,0.8879,0.8849,0.8733,0.8503,0.8313,0.8279,0.8143,0.8038,0.8038,0.8038,0.8038,0.8038,0.8038,0.8038,0.8038,0.8038,0.8038,0.8038,0.8147,0.8163,0.8045,0.8147,0.8163,0.8052,0.8048,0.8048,0.7952,0.7952,0.7962,0.7979,0.7359,0.6954,0.6954,0.7666,0.7965,2.2782,2.1435,1.9646,1.875,1.7708,1.6674,1.5107,1.5534,1.6045,1.5675,1.7238,0.0,0.0,0.0,0.0,0.0,0.0,0.0,1.2117,1.1618,1.143,0.0,1.0881,0.0,1.0131,1.1592,1.225,0.0,0.0,1.2462,1.313,1.1426,1.049,1.049,1.0558,1.0907,1.1509,1.2763,1.414,1.5818,1.4047,1.3292,1.3172,1.0899,0.9822,0.9822,0.0,0.9774,0.9703,0.9703,0.9652,0.9574,0.9574,0.9574,0.9574,0.9574,0.9574,0.9588,0.9673,0.9646,0.9564,0.9503,0.9323,0.9147,0.9228,0.9137,0.9039,0.9208,0.9252,0.9273,0.9357,0.9317,0.9252,0.9252,0.9191,0.9133,0.9133,0.9133,0.9069,0.8852,0.8621,0.8421,0.8292,0.8197,0.8116,0.8052,0.8038,0.8038,0.8038,0.8038,0.8038,0.8038,0.8038,0.8038,0.8038,0.8119,0.8133,0.8045,0.8123,0.813,0.8041,0.8038,0.8038,0.8038,0.8038,0.8045,0.7959,0.7959,0.7959,0.7959,0.7959,0.7952,2.2718,2.2452,2.151,1.9756,1.904,1.8075,1.5724,1.5903,1.6685,1.6759,0.0,1.9935,1.9531,0.0,1.6748,1.6151,0.0,1.3451,1.3938,1.3305,1.2969,1.3255,1.177,1.0883,1.0904,1.2161,1.305,1.2822,1.2637,1.1912,1.0707,1.0582,1.0521,1.0521,1.0629,1.1399,1.3041,1.4304,1.5693,1.7396,1.5616,1.469,1.457,1.1327,0.9869,0.9849,0.0,0.0,0.9849,0.9829,0.9832,0.9849,0.9829,0.9822,0.9822,0.9842,0.9849,0.9849,0.9849,0.9849,0.9829,0.9683,0.9537,0.9412,0.9641,0.9627,0.9501,0.9634,0.9641,0.9415,0.9435,0.9439,0.9435,0.9415,0.9412,0.9405,0.9384,0.9381,0.9306,0.9045,0.8862,0.8665,0.8408,0.833,0.8153,0.7999,0.7992,0.7992,0.7952,0.8041,0.8038,0.8038,0.8058,0.8062,0.8041,0.8075,0.8082,0.8041,0.8058,0.8062,0.8038,0.8038,0.8038,0.8038,0.8038,0.8038,0.8038,0.8038,0.8038,0.8038,0.8038,0.8038,2.1296,2.1984,2.1917,2.1357,2.0572,1.9657,1.8442,1.9813,0.0,0.0,0.0,2.431,2.3839,2.2172,0.0,1.982,0.0,0.0,0.0,0.0,1.5309,0.0,0.0,0.0,0.0,0.0,0.0,0.0,0.0,0.0,1.2832,1.1446,1.068,1.068,1.0582,1.1286,1.2921,1.4452,1.606,1.755,1.5894,1.5135,1.5012,1.1686,1.0131,1.0008,0.0,0.0,0.9998,0.9873,0.9893,0.9995,0.9869,0.9822,0.9836,0.9964,1.0008,1.0008,1.0008,1.0008,0.9985,0.9832,0.9686,0.9801,1.1192,1.0514,0.975,1.1149,1.0612,0.9598,0.9713,0.9744,0.9717,0.9598,0.9568,0.9537,0.9408,0.9381,0.9364,0.9313,0.91,0.8803,0.8749,0.8434,0.802,0.7981,0.7956,0.805,0.8012,0.7955,0.8038,0.8038,0.8153,0.8177,0.8052,0.8265,0.8303,0.8055,0.816,0.8174,0.8045,0.8038,0.8038,0.8038,0.8038,0.8038,0.8038,0.8038,0.8038,0.8038,0.8038,0.8038,2.1575,2.1531,2.1097,2.1621,2.0219,1.9063,2.0269,0.0,0.0,0.0,0.0,2.4959,2.5245,0.0,0.0,0.0,0.0,0.0,0.0,0.0,0.0,0.0,0.0,0.0,0.0,0.0,0.0,0.0,0.0,0.0,0.0,1.1111,1.0721,1.0721,1.0649,1.1388,1.3064,1.3765,1.4925,1.6431,1.4808,1.4006,1.3885,1.1404,1.0195,1.0049,0.0,0.0,0.9924,0.9849,0.9866,0.993,0.9937,0.9941,0.9958,1.0114,1.0171,1.0158,1.0076,1.0049,1.0025,0.9869,0.9774,0.9837,1.0662,1.0314,0.9844,1.0662,1.0371,0.9836,0.9825,0.9822,0.9802,0.9737,0.972,0.97,0.9625,0.9551,0.9503,0.9513,0.9283,0.8488,0.6948,0.6359,0.611,0.5896,0.5922,0.5917,0.5921,0.5896,0.6465,0.7869,0.8113,0.8119,0.8045,0.817,0.8191,0.8048,0.8109,0.8123,0.7959,0.8045,0.8045,0.7955,0.8045,0.8038,0.8038,0.8038,0.8038,0.8038,0.8038,0.8038,2.1317,2.0472,1.9775,2.1072,1.9228,1.8034,2.1055,2.1595,0.0,0.0,2.502,2.5055,2.5829,0.0,0.0,0.0,0.0,0.0,0.0,0.0,0.0,0.0,0.0,0.0,0.0,0.0,0.0,0.0,0.0,0.0,0.0,1.0721,1.0721,1.0721,1.0721,1.1372,1.2672,1.2921,1.3616,1.5017,1.3589,1.2885,1.2758,1.1129,1.029,1.0144,0.0,0.0,0.0,0.9897,0.9907,0.9971,1.0025,1.007,1.0117,1.027,1.0327,1.0304,1.0151,1.0117,1.0114,0.993,0.9869,0.9863,1.019,1.0194,1.0066,1.0274,1.0225,1.0063,0.991,0.9869,0.9863,0.9829,0.9822,0.9822,0.9822,0.9734,0.9659,0.9556,0.9104,0.7729,0.5008,0.4018,0.3394,0.3228,0.3112,0.3318,0.3934,0.4048,0.4853,0.7059,0.774,0.8012,0.8045,0.8069,0.8075,0.8041,0.8038,0.8048,0.7965,0.8048,0.8048,0.7965,0.8048,0.8038,0.8038,0.8038,0.8038,0.8038,0.8038,0.8058,1.8407,1.8038,1.7389,1.8868,1.7802,1.7193,2.0416,0.0,0.0,0.0,2.5583,2.6905,2.6477,2.5453,0.0,0.0,0.0,0.0,0.0,0.0,0.0,0.0,0.0,0.0,0.0,0.0,0.0,0.0,0.0,0.0,0.0,1.0721,1.0721,1.0721,1.0721,1.0721,1.0982,1.2529,1.3299,1.3556,1.3278,1.327,1.3143,1.1461,1.0595,1.0449,0.0,0.0,0.0,1.0141,1.0188,1.0405,1.0148,1.0134,1.0276,1.0419,1.0473,1.0453,1.0307,1.0344,1.0405,1.012,1.0029,1.0246,1.1546,1.1125,1.0601,1.1789,1.1253,1.0222,1.007,1.0029,0.9992,0.9852,0.9822,0.9822,0.9822,0.9812,0.9802,0.9805,0.8216,0.6448,0.5132,0.2442,0.0454,0.0335,0.0335,0.1214,0.3646,0.4,0.4218,0.4765,0.6763,0.8037,0.7962,0.817,0.8187,0.8048,0.8038,0.8041,0.8041,0.8041,0.8041,0.8041,0.8041,0.8038,0.8038,0.8038,0.8038,0.8038,0.8038,0.8113,1.7914,1.6666,1.5692,1.8109,1.6625,1.6095,2.1644,0.0,0.0,2.5324,2.6365,2.6716,2.6571,2.6164,2.5548,0.0,0.0,0.0,0.0,0.0,0.0,0.0,0.0,0.0,0.0,0.0,0.0,0.0,0.0,0.0,0.0,0.0,1.0721,1.0721,1.0721,1.0721,1.0721,1.1372,1.1762,1.1762,1.1762,1.1762,1.1765,1.0979,1.0636,1.049,0.0,0.0,0.0,1.0239,1.0259,1.0361,1.0327,1.0354,1.0426,1.0575,1.0629,1.0609,1.046,1.0446,1.046,1.0256,1.0246,1.0397,1.0765,1.0603,1.0373,1.0831,1.0721,1.0351,1.011,0.9981,0.9897,0.9836,0.9822,0.9822,0.9822,0.9822,0.9825,0.9839,0.9115,0.8423,0.7957,0.5033,0.2055,0.0227,-0.0,0.0334,0.1432,0.4759,0.6294,0.4647,0.6733,0.8209,0.8197,0.8235,0.8204,0.8052,0.8038,0.8045,0.7959,0.8045,0.8045,0.7959,0.8045,0.8038,0.8038,0.8038,0.8089,0.8177,0.8177,0.8258,1.7751,1.6338,1.5277,1.8226,1.7172,1.6952,0.0,0.0,0.0,2.6345,2.6728,2.6533,2.6533,2.6533,2.5775,2.361,0.0,1.9909,0.0,0.0,0.0,0.0,0.0,0.0,0.0,0.0,0.0,0.0,0.0,0.0,0.0,0.0,1.1534,1.0717,1.0721,1.0721,1.0721,1.0721,1.0721,1.0721,1.0721,1.0721,1.0721,1.0721,1.0663,0.0,0.0,0.0,0.0,1.0361,1.0371,1.0415,1.047,1.0521,1.0571,1.068,1.0721,1.07,1.0544,1.0521,1.0534,1.0388,1.0412,1.0453,1.0243,1.0256,1.031,1.0158,1.03,1.0443,1.0236,1.007,0.9944,0.99,0.9886,0.9876,0.9832,0.9822,0.9825,0.9842,0.9768,0.9827,0.9851,0.7707,0.5334,0.3001,0.1941,0.1468,0.1345,0.4953,0.719,0.5946,0.7396,0.8438,0.8292,0.8272,0.8225,0.8113,0.8065,0.8069,0.813,0.8072,0.8045,0.7962,0.8048,0.8038,0.8038,0.8085,0.8163,0.8272,0.8313,0.8411,1.7328,1.6861,1.648,1.9417,1.9904,2.0442,0.0,0.0,0.0,2.6099,2.6533,2.6533,2.6533,2.6533,2.5721,2.3293,2.2122,2.074,1.8531,0.0,0.0,0.0,0.0,0.0,0.0,0.0,0.0,0.0,0.0,0.0,0.0,0.0,1.3703,1.0843,1.0721,1.0721,1.0721,1.0721,1.0721,1.0721,1.0721,1.0721,1.0721,1.0721,0.0,0.0,0.0,0.0,0.0,1.0551,1.0578,1.07,1.0551,1.0585,1.0717,1.0721,1.0721,1.07,1.0544,1.0592,1.0694,1.0538,1.049,1.049,1.0487,1.0487,1.046,1.0317,1.0382,1.049,1.0487,1.0382,1.0239,1.0083,1.0046,1.0005,0.9852,0.9822,0.9822,0.9822,0.9822,0.9825,0.9849,0.9737,0.9476,0.8867,0.6579,0.4751,0.4491,0.4531,0.5688,0.8533,0.8856,0.8777,0.8309,0.8272,0.8272,0.8269,0.8126,0.8109,0.8262,0.8123,0.8038,0.8038,0.8038,0.8038,0.8038,0.8194,0.8269,0.8275,0.8414,0.856,1.7931,1.7873,1.7876,2.0504,2.1023,2.1672,2.4461,0.0,2.4721,2.6173,2.6533,2.6533,2.6533,2.6138,2.532,2.353,2.1914,2.0349,0.0,0.0,0.0,0.0,0.0,0.0,0.0,0.0,0.0,0.0,0.0,0.0,0.0,0.0,0.0,1.2362,1.3393,1.2938,1.0717,1.1894,1.1894,1.0721,1.0721,1.0721,1.0721,1.0721,0.0,0.0,0.0,0.0,0.0,1.0666,1.0677,1.0714,1.0666,1.0612,1.0575,1.068,1.0653,1.0571,1.0629,1.068,1.0711,1.0663,1.0649,1.0629,1.0524,1.049,1.0504,1.0565,1.0538,1.049,1.049,1.0385,1.0243,1.0086,1.0049,1.0008,0.9852,0.9822,0.9822,0.9822,0.9822,0.9822,0.9832,0.9717,0.9615,0.9585,0.8527,0.7965,0.8138,0.7838,0.8127,0.9007,0.9018,0.8849,0.8591,0.857,0.8526,0.8421,0.8279,0.8218,0.8269,0.8123,0.8038,0.8038,0.8143,0.8147,0.8038,0.8292,0.8469,0.8574,0.8723,0.8818,0.0,2.0021,2.0487,2.2557,2.3319,0.0,0.0,0.0,2.5663,2.588,2.5955,2.5881,2.5684,2.4743,2.3711,2.2562,2.0634,1.9,0.0,0.0,0.0,0.0,0.0,0.0,0.0,0.0,0.0,0.0,0.0,0.0,0.0,0.0,0.0,1.4697,1.5085,1.4426,1.2576,1.3604,1.3639,1.2672,1.2022,1.1633,1.1633,0.0,0.0,0.0,0.0,0.0,0.0,1.0721,1.0721,1.0721,1.0721,1.0626,1.051,1.0663,1.0622,1.0514,1.0666,1.0721,1.0721,1.0721,1.0721,1.0704,1.0609,1.0538,1.051,1.0609,1.0609,1.0578,1.0578,1.047,1.0337,1.0239,1.0175,1.0093,0.9941,0.9954,0.9961,0.9842,0.9914,0.9958,0.9839,0.9795,0.9744,0.9768,0.9595,0.9534,0.9676,0.9497,0.9303,0.9184,0.9083,0.896,0.8808,0.8743,0.8696,0.8655,0.8462,0.8401,0.852,0.8319,0.8204,0.8204,0.8303,0.8303,0.8208,0.8448,0.8648,0.8798,0.8896,0.8944,0.0,0.0,0.0,0.0,0.0,0.0,0.0,0.0,0.0,2.5408,2.5146,2.4991,2.4443,2.2801,2.1432,2.0945,1.897,1.7243,0.0,0.0,0.0,0.0,0.0,0.0,0.0,0.0,0.0,0.0,0.0,0.0,0.0,0.0,0.0,0.0,1.6226,1.5352,1.5483,1.5595,1.5696,1.5918,1.4101,1.3325,1.3193,0.0,0.0,0.0,0.0,0.0,0.0,1.0721,1.0721,1.0721,1.0721,1.0626,1.051,1.0663,1.0622,1.0514,1.0666,1.0721,1.0721,1.0721,1.0721,1.0721,1.0721,1.0619,1.0507,1.0507,1.0602,1.0704,1.0704,1.0592,1.0477,1.0477,1.0375,1.0243,1.0097,1.0178,1.0195,0.991,1.0083,1.0192,0.9903,0.9971,0.9968,0.9683,0.9751,0.9734,0.9449,0.9527,0.95,0.9215,0.9174,0.911,0.8964,0.8815,0.8791,0.8944,0.8676,0.8648,0.8944,0.8672,0.8509,0.8499,0.8486,0.8492,0.8516,0.8648,0.8791,0.894,0.894,0.895,2.4833,0.0,2.5541,2.6577,0.0,0.0,0.0,0.0,2.7808,2.6402,0.0,0.0,2.6127,2.3933,2.2648,2.3802,2.1439,1.8911,0.0,0.0,0.0,0.0,0.0,0.0,0.0,0.0,0.0,0.0,0.0,0.0,0.0,0.0,0.0,0.0,1.8917,1.776,1.5832,1.6948,1.6976,1.5918,1.4101,1.3325,1.3193,0.0,0.0,0.0,0.0,0.0,1.0721,1.0721,1.0721,1.0721,1.0721,1.0626,1.051,1.0663,1.0622,1.0514,1.0666,1.0721,1.0721,1.0721,1.0721,1.0721,1.0721,1.0697,1.0666,1.0666,1.0609,1.0548,1.0548,1.0439,1.0331,1.0331,1.0304,1.027,1.0236,1.0256,1.0259,1.0188,1.0232,1.0256,1.0185,1.0202,1.0161,0.9975,0.9975,0.9927,0.9741,0.9652,0.9581,0.951,0.9398,0.9266,0.9117,0.8971,0.8947,0.9093,0.8933,0.8913,0.9096,0.8927,0.8777,0.8659,0.854,0.8598,0.8832,0.875,0.8791,0.894,0.894,0.895,2.6438,2.6828,2.6804,2.7339,2.7901,2.803,2.7157,0.0,0.0,0.0,0.0,0.0,0.0,0.0,0.0,2.2356,1.9649,0.0,0.0,0.0,0.0,0.0,0.0,0.0,0.0,0.0,0.0,0.0,0.0,0.0,0.0,0.0,0.0,0.0,0.0,1.9415,1.807,1.8836,1.8896,1.8244,1.656,1.5269,1.4488,0.0,0.0,0.0,0.0,0.0,1.0721,1.0721,1.0721,1.0721,1.0721,1.0626,1.051,1.0663,1.0622,1.0514,1.0666,1.0721,1.0721,1.0721,1.0721,1.0721,1.0721,1.0721,1.0721,1.0721,1.066,1.0599,1.0599,1.0487,1.0395,1.0466,1.0429,1.0378,1.0378,1.0432,1.0443,1.0307,1.0399,1.0453,1.0189,1.0361,1.0341,1.01,0.9938,0.9878,0.9842,0.9754,0.9683,0.9615,0.9537,0.9395,0.9171,0.9083,0.91,0.9249,0.912,0.9133,0.9354,0.9222,0.9069,0.8916,0.8832,0.8838,0.894,0.8855,0.8859,0.894,0.894,0.8846,2.7259,2.7867,2.7722,2.7459,2.7641,2.7485,2.614,0.0,0.0,0.0,0.0,0.0,0.0,0.0,0.0,0.0,0.0,0.0,0.0,0.0,0.0,0.0,0.0,0.0,0.0,0.0,0.0,0.0,0.0,0.0,0.0,0.0,0.0,0.0,0.0,0.0,2.0675,2.0675,2.0822,2.1109,1.9291,1.7602,1.5789,1.4101,0.0,0.0,0.0,0.0,1.0721,1.0721,1.0721,1.0721,1.0721,1.0639,1.0541,1.0673,1.0636,1.0544,1.0673,1.0721,1.0721,1.0721,1.0721,1.0721,1.0721,1.0721,1.0721,1.0721,1.0704,1.0683,1.0683,1.0571,1.0497,1.0649,1.0585,1.05,1.0521,1.0629,1.0649,1.0399,1.0571,1.0406,0.9506,0.9692,0.9809,0.9397,0.959,0.9891,0.9849,0.9822,0.9774,0.9656,0.9642,0.952,0.9218,0.9195,0.9249,0.9265,0.9262,0.9323,0.9629,0.9496,0.9354,0.9225,0.9178,0.9093,0.8971,0.8971,0.896,0.894,0.8964,0.8876,2.7853,2.8441,2.7781,2.631,2.539,2.4517,2.3177,0.0,0.0,0.0,0.0,0.0,0.0,0.0,0.0,0.0,0.0,0.0,0.0,0.0,0.0,0.0,0.0,0.0,0.0,0.0,0.0,0.0,0.0,0.0,0.0,0.0,0.0,0.0,0.0,2.0127,2.0675,2.0675,2.0822,2.1109,1.9291,1.7602,1.5789,1.4101,1.2413,0.0,0.0,1.0721,1.0721,1.0721,1.0721,1.0721,1.0721,1.0707,1.0687,1.0711,1.0707,1.0687,1.0711,1.0721,1.0721,1.0721,1.0721,1.0721,1.0721,1.0721,1.0721,1.0721,1.0626,1.0527,1.0527,1.0419,1.0348,1.0493,1.051,1.0527,1.0656,1.0704,1.0714,1.0687,1.0721,0.9791,0.6668,0.6213,0.6137,0.6161,0.8374,1.0029,0.9869,0.9832,0.9812,0.9791,0.9788,0.9676,0.9518,0.9494,0.9275,0.8958,0.9258,0.9479,0.9778,0.9649,0.9564,0.954,0.9286,0.9144,0.912,0.912,0.9059,0.8944,0.9083,0.9096,2.6742,2.7679,2.728,2.5031,2.414,2.3195,2.091,0.0,0.0,0.0,0.0,0.0,0.0,0.0,0.0,0.0,0.0,0.0,0.0,0.0,0.0,0.0,0.0,0.0,0.0,0.0,0.0,0.0,0.0,0.0,0.0,0.0,0.0,0.0,0.0,0.0,2.0434,2.0434,2.0588,2.0875,1.9077,1.7474,1.5789,1.4101,1.2413,1.0721,0.0,1.0721,1.0721,1.0721,1.0721,1.0721,1.0721,1.0721,1.0721,1.0721,1.0721,1.0721,1.0721,1.0721,1.0721,1.0721,1.0721,1.0721,1.0721,1.0721,1.0721,1.0721,1.067,1.0616,1.0616,1.0568,1.0534,1.0599,1.0616,1.0633,1.0704,1.0731,1.0741,1.0751,1.0645,1.0124,0.8491,0.508,0.2507,0.2448,0.3701,0.5924,0.9384,0.9846,0.9836,0.9822,0.9832,0.9758,0.9554,0.7974,0.7589,0.8955,0.9439,0.9693,0.9815,0.9758,0.9686,0.9612,0.9469,0.9357,0.9276,0.9276,0.9249,0.9081,0.9262,0.9164,2.5023,2.587,2.563,2.3442,0.0,2.2139,1.9263,0.0,0.0,0.0,0.0,0.0,0.0,0.0,0.0,0.0,0.0,0.0,0.0,0.0,0.0,0.0,0.0,0.0,0.0,0.0,0.0,0.0,0.0,0.0,0.0,0.0,0.0,0.0,0.0,0.0,2.0134,2.006,2.0247,2.0675,1.8894,1.7368,1.5789,1.4101,1.2413,1.0721,1.0721,1.0721,1.0721,1.0721,1.0721,1.0721,1.0721,1.0721,1.0721,1.0721,1.0721,1.0721,1.0721,1.0721,1.0721,1.0721,1.0721,1.0721,1.0721,1.0721,1.0721,1.0721,1.0721,1.0721,1.0721,1.0721,1.0721,1.0721,1.0721,1.0721,1.0721,1.0734,1.0478,0.967,0.9433,0.9186,0.8375,0.3624,-0.0,-0.0,-0.0,0.2035,0.7937,0.9284,0.9761,0.9829,0.9842,0.968,0.955,0.6621,0.5745,0.7928,0.9071,0.969,0.9829,0.9825,0.9771,0.9659,0.9629,0.9551,0.9435,0.9435,0.9309,0.9175,0.8835,0.8854,2.2877,2.2878,2.2083,2.1221,2.1188,0.0,1.8202,1.6675,0.0,0.0,0.0,0.0,0.0,0.0,0.0,0.0,0.0,0.0,0.0,0.0,0.0,0.0,0.0,0.0,0.0,0.0,0.0,0.0,0.0,0.0,0.0,0.0,0.0,0.0,0.0,0.0,1.9826,1.9566,1.9853,2.0675,1.8894,1.7368,1.5789,1.4101,1.2413,1.0721,1.0721,1.0721,1.0721,1.0721,1.0721,1.0721,1.0721,1.0721,1.0721,1.0721,1.0721,1.0721,1.0721,1.0721,1.0721,1.0721,1.0721,1.0721,1.0721,1.0721,1.0721,1.0721,1.0721,1.0721,1.0721,1.0721,1.0721,1.0721,1.0721,1.0721,1.0721,1.0721,0.9782,0.6435,0.5767,0.4696,0.1345,0.0399,-0.0,-0.0,-0.0,0.1277,0.4773,0.791,0.9754,0.9839,0.9842,0.9819,0.972,0.6533,0.4587,0.4811,0.7831,0.9597,0.9849,0.9832,0.9815,0.9805,0.9676,0.9605,0.9595,0.9595,0.9412,0.9179,0.7501,0.7512,2.0913,2.0853,2.02,2.0179,1.9079,0.0,0.0,0.0,0.0,0.0,0.0,0.0,0.0,0.0,0.0,0.0,0.0,0.0,0.0,0.0,0.0,0.0,0.0,0.0,0.0,0.0,0.0,0.0,0.0,0.0,0.0,0.0,0.0,0.0,0.0,0.0,0.0,1.7978,1.7762,1.7377,1.6507,1.557,1.4232,1.2545,1.1372,1.0721,1.0721,1.0721,1.0721,1.0721,1.0721,1.0721,1.0721,1.0721,1.0721,1.0721,1.0721,1.0721,1.0721,1.0721,1.0721,1.0721,1.0721,1.0721,1.0721,1.0721,1.0721,1.0721,1.0721,1.0721,1.0721,1.0721,1.0721,1.0721,1.0721,1.0721,1.0721,1.0731,1.0336,0.8992,0.5091,0.1609,0.0269,-0.0,-0.0,-0.0,-0.0,0.1947,0.7306,0.8973,0.9849,0.9774,0.9784,0.8084,0.4102,0.2506,0.1749,0.1714,0.4759,0.7583,0.9727,0.9832,0.9866,0.9961,0.991,0.993,1.0025,1.0025,0.9881,0.9724,0.9128,0.91,1.831,1.8005,1.731,0.0,0.0,0.0,0.0,0.0,0.0,0.0,0.0,0.0,0.0,0.0,0.0,0.0,0.0,0.0,0.0,0.0,0.0,0.0,0.0,0.0,0.0,0.0,0.0,0.0,0.0,0.0,0.0,0.0,0.0,0.0,0.0,0.0,0.0,1.6256,1.5622,1.4409,1.4352,1.3975,1.3193,1.1501,1.0721,1.0721,1.0721,1.0721,1.0721,1.0721,1.0721,1.0721,1.0721,1.0721,1.0721,1.0721,1.0721,1.0721,1.0721,1.0721,1.0721,1.0721,1.0721,1.0721,1.0721,1.0721,1.0721,1.0721,1.0721,1.0721,1.0721,1.0721,1.0721,1.0721,1.0721,1.0721,1.0721,1.0731,1.0744,1.0751,0.6702,0.3081,0.1877,0.0806,-0.0,-0.0,-0.0,0.1583,0.6116,0.7677,0.8711,0.9707,0.9848,0.7084,0.0509,-0.0,0.1024,0.326,0.4495,0.6472,0.9818,0.991,0.9964,1.0117,1.012,1.0175,1.028,1.028,1.029,1.0183,1.029,1.0259,1.4961,1.3928,1.3026,0.0,0.0,0.0,0.0,0.0,0.0,0.0,0.0,0.0,0.0,0.0,0.0,0.0,0.0,0.0,0.0,0.0,0.0,0.0,0.0,0.0,0.0,0.0,0.0,0.0,0.0,0.0,0.0,0.0,0.0,0.0,0.0,0.0,0.0,1.4604,1.3875,1.2377,1.2553,1.2829,1.3189,1.1501,1.0721,1.0717,1.0721,1.0721,1.0721,1.0721,1.0721,1.0721,1.0721,1.0721,1.0721,1.0721,1.0721,1.0721,1.0721,1.0721,1.0721,1.0721,1.0721,1.0721,1.0721,1.0721,1.0721,1.0721,1.0721,1.0721,1.0721,1.0721,1.0721,1.0721,1.0721,1.0721,1.0721,1.0721,1.0727,1.0748,1.0755,0.9537,0.6034,0.2413,0.0134,-0.0,-0.0,-0.0,-0.0,0.2892,0.6161,0.9349,0.9729,0.7112,0.0517,-0.0,0.3099,1.0256,0.7348,0.6903,1.0131,1.008,1.0124,1.028,1.0283,1.0283,1.0283,1.0283,1.0297,1.0448,1.0297,1.0455,1.3834,1.2921,0.0,0.0,0.0,0.0,0.0,0.0,0.0,0.0,0.0,0.0,0.0,0.0,0.0,0.0,0.0,0.0,0.0,0.0,0.0,0.0,0.0,0.0,0.0,0.0,0.0,0.0,0.0,0.0,0.0,0.0,0.0,0.0,0.0,0.0,0.0,0.0,1.2189,1.0659,1.0831,1.0966,1.118,1.0885,1.0663,1.0565,1.0673,1.0721,1.0721,1.0721,1.0721,1.0721,1.0721,1.0721,1.0721,1.0721,1.0721,1.0721,1.0721,1.0721,1.0721,1.0721,1.0721,1.0721,1.0721,1.0721,1.0721,1.0721,1.0721,1.0721,1.0721,1.0721,1.0721,1.0721,1.0721,1.0721,1.0721,1.0721,1.0721,1.0727,1.0744,1.0349,0.9265,0.82,0.5776,0.0805,-0.0,-0.0,-0.0,0.0802,0.1869,0.2792,0.2924,0.2118,0.0131,0.4631,0.847,1.0534,0.9518,0.9359,1.0393,1.0229,1.028,1.0426,1.0429,1.0483,1.0588,1.0588,1.0595,1.0602,1.0609,1.0582,1.2977,0.0,0.0,0.0,0.0,0.0,0.0,0.0,0.0,0.0,0.0,0.0,0.0,0.0,0.0,0.0,0.0,0.0,0.0,0.0,0.0,0.0,0.0,0.0,0.0,0.0,0.0,0.0,0.0,0.0,0.0,0.0,0.0,0.0,0.0,0.0,0.0,0.0,0.0,0.9958,0.9958,1.0008,1.0107,1.0409,1.0493,1.0412,1.0507,1.0578,1.0629,1.0629,1.0666,1.0721,1.0721,1.0721,1.0721,1.0721,1.0721,1.0721,1.0721,1.0721,1.0721,1.0721,1.0721,1.0721,1.0721,1.0721,1.0731,1.0795,1.0768,1.0734,1.0795,1.0765,1.0721,1.0721,1.0721,1.0721,1.0721,1.0721,1.0721,1.0721,1.0731,1.0744,1.0751,1.0648,0.9169,0.4839,0.1881,-0.0,-0.0,-0.0,-0.0,-0.0,-0.0,-0.0,-0.0,0.6577,1.0785,1.0916,1.069,1.0697,1.0656,1.0466,1.0432,1.0578,1.0582,1.0626,1.0721,1.0721,1.0724,1.0731,1.0687,1.0673,0.0,0.0,0.0,0.0,0.0,0.0,0.0,0.0,0.0,0.0,0.0,0.0,0.0,0.0,0.0,0.0,0.0,0.0,0.0,0.0,0.0,0.0,0.0,0.0,0.0,0.0,0.0,0.0,0.0,0.0,0.0,0.0,0.0,0.0,0.0,0.0,0.0,0.0,0.0,0.0,0.9802,0.9808,0.9832,1.0141,1.028,1.028,1.028,1.0361,1.049,1.049,1.0582,1.0721,1.0721,1.0721,1.0721,1.0721,1.0721,1.0721,1.0721,1.0721,1.0721,1.0721,1.0721,1.0721,1.0721,1.0721,1.0751,1.089,1.0826,1.0751,1.0894,1.0822,1.0721,1.0721,1.0721,1.0721,1.0721,1.0721,1.0721,1.0721,1.0721,1.0731,1.0751,1.0375,1.0267,1.0702,0.4578,-0.0,-0.0,-0.0,-0.0,-0.0,-0.0,0.0269,0.0944,0.6753,1.0496,1.1173,1.1152,1.105,1.1158,1.0772,1.0619,1.0758,1.0761,1.0755,1.0744,1.0744,1.0751,1.0755,1.074,1.0639,0.0,0.0,0.0,0.0,0.0,0.0,0.0,0.0,0.0,0.0,0.0,0.0,0.0,0.0,0.0,0.0,0.0,0.0,0.0,0.0,0.0,0.0,0.0,0.0,0.0,0.0,0.0,0.0,0.0,0.0,0.0,0.0,0.0,0.0,0.0,0.0,0.9476,0.9445,0.9507,0.0,0.9656,0.9713,0.9832,1.0141,1.028,1.028,1.028,1.0361,1.049,1.049,1.0582,1.0721,1.0721,1.0721,1.0721,1.0721,1.0721,1.0721,1.0721,1.0721,1.0721,1.0721,1.0721,1.0721,1.0721,1.0721,1.0727,1.0761,1.0744,1.0727,1.0761,1.0744,1.0721,1.0721,1.0721,1.0721,1.0721,1.0721,1.0721,1.0721,1.0734,1.0748,1.0755,0.8325,0.7531,1.0286,0.4578,-0.0,-0.0,-0.0,-0.0,-0.0,-0.0,0.2433,0.8646,0.7662,0.81,1.1023,1.1145,1.1134,1.1162,1.107,1.1033,1.1067,1.1067,1.1023,1.0928,1.0928,1.0884,1.0658,1.066,1.0754,0.0,0.0,0.0,0.0,0.0,0.0,0.0,0.0,0.0,0.0,0.0,0.0,0.0,0.0,0.0,0.0,0.0,0.0,0.0,0.0,0.0,0.0,0.0,0.0,0.0,0.0,0.0,0.0,0.0,0.0,0.0,0.0,0.0,0.0,0.0,0.0,0.9381,0.931,0.9351,0.95,0.95,0.9612,0.9825,0.9988,1.0063,1.0063,1.0063,1.0185,1.0392,1.0392,1.0521,1.0721,1.0721,1.0721,1.0721,1.0721,1.0721,1.0721,1.0721,1.0721,1.0721,1.0721,1.0721,1.0721,1.0721,1.0721,1.0734,1.0809,1.0775,1.0738,1.0809,1.0775,1.0721,1.0721,1.0721,1.0721,1.0721,1.0721,1.0724,1.0734,1.0672,1.0735,1.0762,0.6379,0.3385,0.5258,0.2422,-0.0,-0.0,-0.0,-0.0,-0.0,0.3283,0.7179,1.1317,0.9722,0.9328,1.1307,1.129,1.1304,1.1379,1.1382,1.1311,1.1165,1.1107,1.1046,1.0985,0.9261,0.908,1.0685,1.068,0.8901,0.0,0.0,0.0,0.0,0.0,0.0,0.0,0.0,0.0,0.0,0.0,0.0,0.0,0.0,0.0,0.0,0.0,0.0,0.0,0.0,0.0,0.0,0.0,0.0,0.0,0.0,0.0,0.0,0.0,0.0,0.0,0.0,0.0,0.0,0.0,0.9266,0.9266,0.9167,0.9191,0.9344,0.9395,0.9561,0.9822,0.9822,0.9822,0.9822,0.9822,0.9981,1.0243,1.027,1.0439,1.0683,1.0711,1.0721,1.0721,1.0721,1.0721,1.0721,1.0721,1.0721,1.0721,1.0721,1.0721,1.0721,1.0721,1.0721,1.0748,1.0873,1.0819,1.0751,1.0877,1.0816,1.0727,1.0755,1.0741,1.0721,1.0721,1.0741,1.0765,1.0655,1.065,1.0353,0.9134,0.3992,-0.0,-0.0,-0.0,-0.0,-0.0,-0.0,0.0552,0.1793,0.7826,1.1598,1.1611,1.1423,1.1454,1.1595,1.1443,1.1487,1.1613,1.1619,1.1501,1.1253,1.1124,1.077,1.0051,0.76,0.7284,0.8918,0.8795,0.5708,0.0,0.0,0.0,0.0,0.0,0.0,0.0,0.0,0.0,0.0,0.0,0.0,0.0,0.0,0.0,0.0,0.0,0.0,0.0,0.0,0.0,0.0,0.0,0.0,0.0,0.0,0.0,0.0,0.0,0.0,0.0,0.0,0.8791,0.8771,0.8791,0.0,0.8801,0.891,0.9039,0.9188,0.9452,0.9663,0.9822,0.9822,0.9822,0.9822,0.9822,0.992,1.009,1.0226,1.0375,1.0534,1.067,1.0721,1.0721,1.0721,1.0721,1.0721,1.0721,1.0721,1.0721,1.0721,1.0721,1.0721,1.0721,1.0721,1.0724,1.0744,1.0734,1.0724,1.0744,1.0734,1.0755,1.0887,1.0816,1.0721,1.0721,1.0822,1.0789,1.0674,1.0695,0.8699,0.2517,0.0693,-0.0,-0.0,-0.0,-0.0,-0.0,-0.0,0.2518,0.9277,1.1004,1.1618,1.155,1.155,1.1598,1.1586,1.1592,1.1599,1.1619,1.1619,1.1609,1.1589,1.1588,0.9879,0.6543,0.9406,0.751,0.148,0.1459,0.0923,1.127,0.0,0.0,0.0,0.0,0.0,0.0,0.0,0.0,0.0,0.0,0.0,0.0,0.0,0.0,0.0,0.0,0.0,0.0,0.0,0.0,0.0,0.0,0.0,0.0,0.0,0.0,0.0,0.0,0.0,0.0,0.8618,0.8581,0.8581,0.8581,0.0,0.871,0.8777,0.8927,0.9157,0.9374,0.9557,0.9703,0.9785,0.9822,0.9822,0.9822,0.9907,1.0056,1.0124,1.0287,1.05,1.0565,1.0643,1.0721,1.0721,1.0721,1.0721,1.0721,1.0721,1.0721,1.0721,1.0721,1.0721,1.0721,1.0721,1.0721,1.0721,1.0721,1.0721,1.0721,1.0721,1.0738,1.0806,1.0833,1.0822,1.0741,1.0772,1.019,0.8143,0.6025,0.3682,0.0567,-0.0,-0.0,-0.0,-0.0,-0.0,-0.0,-0.0,0.2978,1.0841,1.1633,1.1538,1.1555,1.1545,1.1596,1.1728,1.1738,1.1738,1.1738,1.1738,1.1711,1.1657,1.1667,1.0815,0.8992,0.6369,0.3275,-0.0,-0.0,-0.0,0.0,0.0,0.0,0.0,0.0,0.0,0.0,0.0,0.0,0.0,0.0,0.0,0.0,0.0,0.0,0.0,0.0,0.0,0.0,0.0,0.0,0.0,0.0,0.0,0.0,0.0,0.0,0.0,0.0,0.0,0.8479,0.8448,0.8428,0.8428,0.8428,0.8482,0.8598,0.8672,0.8859,0.9154,0.9306,0.9462,0.9615,0.9754,0.9822,0.9822,0.9822,0.9886,0.9995,1.0032,1.0181,1.0388,1.0463,1.0561,1.0666,1.0707,1.0721,1.0721,1.0721,1.0721,1.0721,1.0721,1.0721,1.0721,1.0721,1.0721,1.0721,1.0721,1.0721,1.0721,1.0721,1.0721,1.0741,1.0816,1.0863,1.087,1.0795,1.0782,0.9909,0.7366,0.3949,0.1141,0.0144,-0.0,-0.0,-0.0,-0.0,-0.0,-0.0,0.1711,0.4744,0.9658,1.1047,1.1536,1.1647,1.166,1.1718,1.1823,1.1867,1.1891,1.1891,1.1898,1.1714,1.163,1.1664,1.165,1.1591,0.3737,-0.0,-0.0,-0.0,-0.0,0.0,1.0831,0.0,0.0,0.0,0.0,0.0,0.0,0.0,0.0,0.0,0.0,0.0,0.0,0.0,0.0,0.0,0.0,0.0,0.0,0.0,0.0,0.0,0.0,0.0,0.0,0.0,0.0,0.0,0.0,0.8476,0.8353,0.8282,0.8282,0.8282,0.8286,0.8292,0.857,0.8859,0.9154,0.9306,0.9462,0.9615,0.9754,0.9822,0.9822,0.9822,0.9825,0.9842,0.9988,1.0059,1.01,1.0382,1.0497,1.0521,1.0666,1.0721,1.0721,1.0721,1.0721,1.0721,1.0721,1.0721,1.0721,1.0721,1.0721,1.0721,1.0721,1.0721,1.0721,1.0721,1.0721,1.0792,1.1073,1.0931,1.0768,1.0907,1.0816,1.074,1.0902,0.8053,0.4288,0.0579,-0.0,-0.0,-0.0,-0.0,-0.0,-0.0,0.6368,0.9789,0.6391,0.9452,1.1647,1.1623,1.1742,1.1823,1.183,1.1969,1.205,1.205,1.1928,1.1798,1.1658,1.155,1.1586,1.1591,0.3737,-0.0,-0.0,-0.0,-0.0,1.262,0.0,0.0,0.0,0.0,0.0,0.0,0.0,0.0,0.0,0.0,0.0,0.0,0.0,0.0,0.0,0.0,0.0,0.0,0.0,0.0,0.0,0.0,0.0,0.0,0.0,0.0,0.0,0.0,0.0,0.8194,0.815,0.8123,0.8123,0.8123,0.8214,0.8404,0.8608,0.8811,0.9018,0.9164,0.9262,0.932,0.9469,0.954,0.954,0.954,0.9646,0.9825,0.988,0.9961,1.0059,1.0164,1.027,1.0375,1.0521,1.0575,1.0588,1.0687,1.0721,1.0721,1.0721,1.0721,1.0721,1.0721,1.0721,1.0721,1.0721,1.0721,1.0721,1.0721,1.0721,1.0748,1.0853,1.0799,1.0734,1.0792,1.0749,1.0843,1.0913,1.0125,0.9141,0.7614,0.331,-0.0,-0.0,-0.0,-0.0,-0.0,0.2472,0.5544,0.9203,1.0754,1.155,1.1527,1.1787,1.1898,1.1988,1.2186,1.2206,1.2206,1.222,1.1261,0.9353,0.8355,0.661,0.4175,0.142,-0.0,-0.0,-0.0,-0.0,1.3689,1.3086,0.0,0.0,0.0,0.0,0.0,0.0,0.0,0.0,0.0,0.0,0.0,0.0,0.0,0.0,0.0,0.0,0.0,0.0,0.0,0.0,0.0,0.0,0.0,0.0,0.0,0.0,0.0,0.0,0.7967,0.8011,0.8038,0.8038,0.8038,0.816,0.8408,0.856,0.871,0.8866,0.9059,0.9154,0.9157,0.931,0.9381,0.9381,0.9381,0.952,0.9751,0.9751,0.9839,0.9978,1.0029,1.0144,1.0297,1.0439,1.0524,1.0582,1.0683,1.0721,1.0721,1.0721,1.0721,1.0721,1.0721,1.0721,1.0721,1.0721,1.0721,1.0721,1.0721,1.0758,1.0782,1.0731,1.0758,1.0782,1.0731,1.0799,1.0756,1.0819,1.1131,1.1451,1.1585,0.7324,0.3031,0.0436,-0.0,-0.0,-0.0,-0.0,0.2043,0.7192,0.8887,0.9695,0.9719,1.0269,1.0981,1.2162,1.2349,1.2362,1.2362,1.2372,1.1396,0.961,0.8414,0.5939,0.1917,0.0578,-0.0,-0.0,-0.0,-0.0,0.0,0.0,0.0,0.0,0.0,0.0,0.0,0.0,0.0,0.0,0.0,0.0,0.0,0.0,0.0,0.0,0.0,0.0,0.0,0.0,0.0,0.0,0.0,0.0,0.0,0.0,0.0,0.0,0.0,0.7967,0.7821,0.7957,0.8038,0.8038,0.8038,0.8113,0.8269,0.8408,0.8554,0.8706,0.8994,0.9133,0.914,0.9286,0.9354,0.9354,0.9361,0.9449,0.9591,0.9605,0.9693,0.9836,0.9985,1.0137,1.029,1.0432,1.0582,1.0714,1.0717,1.0721,1.0721,1.0721,1.0721,1.0721,1.0721,1.0721,1.0721,1.0721,1.0721,1.0721,1.0721,1.0829,1.0904,1.0755,1.0833,1.09,1.0751,1.0721,1.0765,1.0914,1.0948,1.105,1.1502,1.1568,0.9021,0.1449,0.0145,-0.0,-0.0,-0.0,-0.0,-0.0,0.3405,0.5657,0.6026,0.7157,0.9208,1.202,1.2437,1.2501,1.2501,1.2535,1.2552,1.2552,1.2288,1.0144,0.6026,0.2184,0.0284,-0.0,-0.0,-0.0,1.495,0.0,0.0,0.0,0.0,0.0,0.0,0.0,0.0,0.0,0.0,0.0,0.0,0.0,0.0,0.0,0.0,0.0,0.0,0.0,0.0,0.0,0.0,0.0,0.0,0.0,0.0,0.0,0.0,0.7855,0.7814,0.7957,0.8038,0.8038,0.8038,0.8113,0.8269,0.8309,0.8404,0.8547,0.8628,0.8669,0.8669,0.871,0.873,0.8737,0.8849,0.8984,0.9147,0.9476,0.9693,0.9825,0.9869,0.9978,1.0131,1.0283,1.0429,1.0571,1.068,1.0721,1.0721,1.0721,1.0721,1.0721,1.0721,1.0721,1.0721,1.0721,1.0721,1.0721,1.0721,1.0751,1.0772,1.0731,1.0751,1.0772,1.0727,1.0721,1.0731,1.0775,1.0887,1.1002,1.1094,1.1465,1.0921,0.8783,0.3621,-0.0,-0.0,-0.0,-0.0,-0.0,0.0898,0.4083,1.0148,0.8209,0.8402,1.2175,1.2498,1.2501,1.2501,1.2511,1.2515,1.2515,1.2362,1.1753,1.0419,0.9129,0.5499,-0.0,-0.0,-0.0,1.5064,1.3947,0.0,0.0,0.0,0.0,0.0,0.0,0.0,0.0,0.0,0.0,0.0,0.0,0.0,0.0,0.0,0.0,0.0,0.0,0.0,0.0,0.0,0.0,0.0,0.0,0.0,0.0,0.7641,0.775,0.7807,0.7957,0.8038,0.8038,0.8038,0.8082,0.8174,0.8238,0.8313,0.8394,0.8455,0.8482,0.8482,0.8482,0.8482,0.8486,0.8587,0.8754,0.8974,0.9242,0.95,0.9737,0.9798,0.9914,1.007,1.0222,1.0371,1.0514,1.0666,1.0721,1.0721,1.0721,1.0721,1.0721,1.0721,1.0721,1.0721,1.0721,1.0721,1.0721,1.0721,1.0721,1.0721,1.0721,1.0721,1.0721,1.0721,1.0721,1.0721,1.0721,1.0812,1.0911,1.0975,0.9935,0.9544,1.1355,0.7682,0.3648,0.0438,-0.0,-0.0,-0.0,-0.0,0.3355,1.1863,1.0339,0.9877,1.2393,1.2579,1.2569,1.2505,1.2562,1.2573,1.2525,1.2484,1.2289,1.1948,1.1724,0.7612,-0.0,-0.0,-0.0,0.0,1.4072,0.0,0.0,0.0,0.0,0.8795,0.8439,0.824,0.0,0.0,0.0,0.0,0.0,0.0,0.0,0.0,0.0,0.0,0.0,0.0,0.0,0.0,0.0,0.0,0.0,0.0,0.7329,0.7478,0.7645,0.7801,0.794,0.8021,0.8038,0.8038,0.8038,0.8038,0.8177,0.8245,0.8245,0.8374,0.8431,0.8431,0.8431,0.8431,0.8435,0.858,0.8655,0.8813,0.8517,0.8886,0.9625,0.9754,0.9903,1.0066,1.0205,1.0344,1.049,1.0643,1.0697,1.0697,1.0714,1.0721,1.0721,1.0721,1.0721,1.0721,1.0721,1.0721,1.0721,1.0721,1.0721,1.0721,1.0721,1.0721,1.0721,1.0721,1.0721,1.0721,1.0724,1.0744,1.0665,1.0386,0.7321,0.6027,0.972,1.0296,0.7881,0.0875,-0.0,-0.0,-0.0,-0.0,0.321,1.117,1.2311,1.2613,1.2573,1.2674,1.2674,1.2539,1.2651,1.2661,1.2535,1.2392,1.212,1.1742,1.1563,0.7619,-0.0,-0.0845,-0.125,0.0,0.0,0.0,0.0,0.0,0.0,0.988,0.9828,0.9637,0.0,0.0,0.0,0.0,0.0,0.0,0.0,0.0,0.0,0.0,0.0,0.0,0.0,0.0,0.0,0.0,0.0,0.6915,0.7007,0.7265,0.7533,0.7797,0.7838,0.7913,0.8035,0.8038,0.8038,0.8038,0.8069,0.8085,0.8085,0.8113,0.8126,0.8126,0.8126,0.8126,0.8133,0.8272,0.833,0.8295,0.6186,0.7138,0.9765,0.9792,0.9832,1.0053,1.0083,1.0192,1.0341,1.0487,1.0534,1.0558,1.068,1.0721,1.0721,1.0721,1.0721,1.0721,1.0721,1.0721,1.0721,1.0721,1.0721,1.0721,1.0721,1.0721,1.0721,1.0721,1.0721,1.0724,1.0744,1.0638,0.9844,0.7002,0.3408,0.1385,0.2107,0.2278,0.173,0.0146,-0.0,-0.0,-0.0,-0.0,0.1985,0.7035,1.0777,1.2756,1.2698,1.2745,1.2762,1.2729,1.2664,1.2562,1.257,1.2449,1.2371,1.2344,1.1801,0.7594,-0.0141,-0.5979,-0.8662,0.0,0.0,0.0,1.0889,0.0,0.0,0.0,0.9366,0.9399,0.0,0.0,0.0,0.0,0.0,0.0,0.0,0.0,0.0,0.0,0.0,0.0,0.0,0.0,0.0,0.0,0.0,0.6763,0.6915,0.7204,0.7438,0.7584,0.7733,0.7845,0.7923,0.7997,0.8038,0.8038,0.8038,0.8038,0.8038,0.8038,0.8038,0.8038,0.8038,0.8038,0.8045,0.8147,0.7434,0.6091,0.4968,0.5601,0.7343,0.909,0.9868,0.9883,0.9905,1.0005,1.0089,1.0223,1.0402,1.0429,1.0561,1.0605,1.0619,1.0697,1.0721,1.0721,1.0721,1.0721,1.0721,1.0721,1.0721,1.0721,1.0721,1.0721,1.0721,1.0721,1.0721,1.0727,1.0748,0.9276,0.8074,0.8081,0.3537,-0.0,-0.0,-0.0,-0.0,-0.0,-0.0,-0.0,-0.0,-0.0,0.0922,0.2966,0.9046,1.2793,1.2838,1.2827,1.1867,0.9643,0.9597,1.0569,1.2491,1.2522,0.872,0.0864,0.0568,-0.1544,-0.5419,-0.7175,-0.9022,0.0,0.0,0.0,0.0,0.0,0.8408,0.0,0.0,0.0,1.0324,0.0,0.0,0.0,0.0,0.0,0.0,0.0,0.0,0.0,0.0,0.0,0.0,0.0,0.0,0.0,0.0,0.6678,0.6827,0.7092,0.7268,0.7322,0.7553,0.7709,0.777,0.7916,0.7994,0.7994,0.8024,0.8038,0.8038,0.8038,0.8038,0.8038,0.8038,0.8041,0.8048,0.7975,0.6729,0.4662,0.3918,0.3587,0.392,0.681,0.8286,0.8843,0.8811,0.8901,0.8818,0.9061,0.9624,1.03,1.0426,1.0466,1.0497,1.0646,1.0694,1.07,1.0727,1.0731,1.0727,1.0727,1.0724,1.0721,1.0721,1.0724,1.0727,1.0727,1.0731,1.0744,1.0765,0.8333,0.7397,1.0152,0.4757,-0.0,-0.0,-0.0,-0.0,-0.0,-0.0,-0.0,-0.0,-0.0,-0.0,-0.0,0.699,1.1354,1.1729,1.2566,1.142,0.7842,0.622,0.6118,0.7891,0.8016,0.2187,-0.9726,-1.0311,-1.075,-1.0643,-0.7805,-0.8013,0.0,0.0,0.0,0.0,1.074,0.0,0.0,0.0,0.9601,1.0306,0.0,0.0,0.0,0.0,0.0,0.0,0.0,0.0,0.0,0.0,0.0,0.0,0.0,0.0,0.0,0.0,0.0,0.6512,0.6681,0.6892,0.7153,0.7197,0.7343,0.7614,0.7763,0.7838,0.7838,0.797,0.8038,0.8038,0.8038,0.8038,0.8038,0.8038,0.8048,0.7969,0.7982,0.7877,0.72,0.2434,0.0539,0.0551,0.091,0.2928,0.541,0.5427,0.5483,0.5436,0.5513,0.7444,0.991,1.0186,1.0496,1.0659,1.0685,1.073,1.0757,1.0758,1.0638,1.0751,1.0751,1.0734,1.0721,1.0721,1.0734,1.0751,1.0751,1.0642,1.0668,1.0692,1.0421,1.0286,1.0568,0.472,-0.0,-0.0,-0.0,-0.0,-0.0,-0.0,-0.0,-0.0,-0.0,-0.0,-0.0,0.4301,0.7048,0.7095,1.0962,1.3141,1.2644,0.5025,-0.2238,-0.879,-0.8307,-0.7422,-0.6019,-0.9134,-1.0746,-1.0756,-1.0312,-1.0365,0.0,0.0,0.0,0.0,0.0,0.0,0.0,0.0,0.9606,0.0,0.0,0.0,0.0,0.0,0.0,0.0,0.0,0.0,0.0,0.0,0.0,0.0,0.0,0.0,0.0,0.0,0.0,0.0,0.0,0.7658,0.7716,0.7906,0.7812,0.7329,0.7563,0.7689,0.7689,0.7753,0.7824,0.7909,0.7909,0.7953,0.8038,0.7952,0.7965,0.7975,0.7999,0.7951,0.7607,0.2188,-0.0,-0.0,-0.0,0.0797,0.2112,0.2032,0.2054,0.207,0.2098,0.4222,0.6991,0.7086,0.7414,0.7606,0.7654,0.7582,0.7643,0.7688,0.7607,0.8053,1.0101,1.0642,1.0635,1.0635,1.0642,1.0101,0.8053,0.7655,0.8213,1.0286,1.0705,0.9332,0.5253,0.2019,-0.0,-0.0,-0.0,-0.0,-0.0,-0.0,-0.0,-0.0,-0.0,-0.0,-0.0,0.159,0.2711,0.2703,0.4597,0.3604,-0.092,-0.4694,-0.7172,-0.8233,-0.9988,-1.0251,-0.8665,-1.0079,-1.066,-1.0712,-1.0635,-1.0734,1.4345,0.0,0.0,0.0,0.0,0.0,0.0,0.0,0.0,0.0,0.0,0.0,0.0,0.0,0.0,0.0,0.0,0.0,0.0,0.0,0.0,0.0,0.0,0.0,0.0,0.0,0.0,0.0,0.8125,0.0,0.8417,0.8527,0.8237,0.7512,0.7559,0.7536,0.7536,0.758,0.7651,0.7753,0.779,0.7868,0.798,0.7945,0.7566,0.6954,0.7701,0.7202,0.5475,0.1657,-0.0,-0.0,-0.0,-0.0,-0.0,-0.0,-0.0,-0.0,-0.0,0.1596,0.3582,0.3612,0.3776,0.394,0.3956,0.3873,0.3922,0.3936,0.3979,0.4559,0.7125,0.8483,0.9297,0.9297,0.9987,0.9993,0.7397,0.5369,0.4701,0.7284,0.9338,0.8383,0.1211,-0.0,-0.0,-0.0,-0.0,-0.0,-0.0,-0.0,-0.0,-0.0,-0.0,-0.0,-0.0,-0.0,-0.0,-0.0,-0.2188,-0.5889,-1.1434,-1.1534,-1.0313,-0.7412,-0.9929,-1.1251,-1.1117,-1.0926,-1.0769,-1.0782,-1.0741,-1.0721,0.0,0.0,0.0,0.0,0.0,0.0,0.0,0.0,0.9466,0.0,0.0,0.0,0.0,0.0,0.7407,0.62,0.0,0.0,0.0,0.0,0.0,0.0,0.0,0.0,0.0,0.0,0.0,0.0,0.8472,0.0,0.9079,0.8542,0.8267,0.8361,0.7752,0.738,0.738,0.7526,0.76,0.7607,0.7746,0.7814,0.7824,0.7895,0.6545,0.4318,0.6879,0.5056,0.0203,0.0105,-0.0,-0.0,-0.0,-0.0,-0.0,-0.0,-0.0,-0.0,-0.0,0.0122,0.0123,0.0124,0.0124,0.0124,0.0126,0.0128,0.013,0.0131,0.0133,0.0134,0.0268,0.2949,0.5631,0.5631,0.822,1.0702,1.0564,0.5119,0.0269,0.0269,0.594,0.8397,0.1212,-0.0,-0.0,-0.0,-0.0,-0.0,-0.0,-0.0,-0.0,-0.0,-0.0,-0.0,-0.0,-0.0,-0.0,-0.0,-0.7579,-1.1897,-1.1589,-1.1567,-1.154,-1.1365,-1.1358,-1.1271,-1.1385,-1.109,-1.0948,-1.0938,-1.0789,-1.0721,0.0,0.0,1.4326,1.3539,0.0,0.0,0.0,0.0,0.0,0.0,0.0,0.0,0.0,0.0,0.67,0.6266,0.6098,0.5959,0.0,0.0,0.0,0.0,0.0,0.0,0.0,0.0,0.0,0.8759,0.9384,0.978,0.0,0.9194,0.8593,0.815,0.7319,0.6976,0.7078,0.7129,0.7255,0.7451,0.76,0.7719,0.7818,0.7902,0.655,0.3915,0.3126,0.1716,-0.0,-0.0,-0.0,-0.0,-0.0,-0.0,-0.0,-0.0,-0.0,-0.0,-0.0,-0.0,-0.0,-0.0,-0.0,-0.0,-0.0,-0.0,-0.0,-0.0,-0.0,-0.0,-0.0,0.0941,0.1881,0.1881,0.269,0.3635,0.3635,0.175,-0.0,-0.0,0.202,0.2828,0.0404,-0.0,-0.0,-0.0,-0.0,-0.0,-0.0,-0.0,-0.0,-0.0,-0.0,-0.0,-0.0,-0.0,-0.2304,-0.7883,-1.054,-1.1874,-1.1841,-1.1679,-1.166,-1.1633,-1.148,-1.1399,-1.1392,-1.1189,-1.109,-1.1087,-1.0941,-1.0816,1.4813,1.432,0.0,0.0,1.2973,0.0,0.0,0.0,0.0,0.0,0.0,0.0,0.0,0.0,0.6338,0.6338,0.6132,0.5959,0.0,0.5515,0.0,0.0,0.0,0.0,0.0,0.0,0.8088,0.8997,1.0051,1.0478,0.0,0.0,0.8774,0.804,0.7162,0.6749,0.6847,0.69,0.7139,0.7383,0.7533,0.7675,0.7818,0.7905,0.6553,0.3815,0.1209,-0.0,-0.0,-0.0,-0.0,-0.0,-0.0,-0.0,-0.0,-0.0,-0.0,-0.0,-0.0,-0.0,-0.0,-0.0,-0.0,-0.0,-0.0,-0.0,-0.0,-0.0,-0.0,-0.0,-0.0,-0.0,-0.0,-0.0,-0.0,-0.0,-0.0,-0.0,-0.0,-0.0,-0.0,-0.0,-0.0,-0.0,-0.0,-0.0,-0.0,-0.0,-0.0,-0.0,-0.0,-0.0,-0.0,-0.0,-0.0,-0.2569,-0.6402,-1.1802,-1.1831,-1.1763,-1.1735,-1.177,-1.1687,-1.1779,-1.1575,-1.1525,-1.163,-1.1369,-1.1653,-1.2193,-1.198,-1.2086]},{"header":{"parameterUnit":"m.s-1","parameterCategory":1,"la1":30.6,"la2":29.2853,"lo1":-89.7004,"lo2":-87.6739,"dy":0.0162,"dx":0.0183,"nx":112,"ny":82,"refTime":"2023-07-16T12:00:00:Z","depth":0,"parameterNumber":3,"parameterNumberName":"V-component_of_WINDS"},"data":[0.0,0.0,0.0,0.0,0.0,0.0,0.0,0.0,0.0,0.0,0.0,0.0,0.0,0.0,0.0,0.0,0.0,0.0,0.0,0.0,0.0,0.0,0.0,0.0,0.0,0.0,0.0,0.0,0.0,0.0,0.0,0.0,0.0,0.0,0.0,0.0,0.0,0.0,0.0,0.0,0.0,0.0,0.0,0.0,0.0,0.0,0.0,0.0,0.0,0.0,0.0,0.0,0.0,0.0,0.0,0.0,0.0,0.0,0.0,0.0,0.0,0.0,0.0,0.0,0.0,0.0,0.0,0.0,0.0,0.0,0.0,0.0,0.0,0.0,0.0,0.0,0.0,0.0,0.0,0.0,0.0,0.0,0.0,0.0,0.0,0.0,0.0,0.0,0.0,0.0,0.0,-2.3782,-2.5271,-2.6231,-2.6276,-2.7592,-2.7414,-2.5125,0.0,0.0,0.0,0.0,0.0,0.0,0.0,0.0,0.0,0.0,0.0,0.0,0.0,0.0,0.0,0.0,0.0,0.0,0.0,0.0,0.0,0.0,0.0,0.0,0.0,0.0,0.0,0.0,0.0,0.0,0.0,0.0,0.0,0.0,0.0,0.0,0.0,0.0,0.0,0.0,0.0,0.0,0.0,0.0,0.0,0.0,0.0,0.0,0.0,0.0,0.0,0.0,0.0,0.0,0.0,0.0,0.0,0.0,0.0,0.0,0.0,0.0,0.0,0.0,0.0,0.0,0.0,0.0,0.0,0.0,0.0,0.0,0.0,0.0,0.0,0.0,0.0,0.0,0.0,0.0,0.0,0.0,0.0,0.0,0.0,0.0,0.0,0.0,0.0,0.0,0.0,0.0,0.0,0.0,0.0,0.0,0.0,0.0,0.0,0.0,0.0,0.0,0.0,0.0,-2.3767,-2.4101,-2.5427,-2.6277,-2.6225,-2.6447,-2.6379,-2.585,0.0,0.0,0.0,0.0,0.0,0.0,0.0,0.0,0.0,0.0,0.0,0.0,0.0,0.0,0.0,0.0,0.0,0.0,0.0,0.0,0.0,0.0,0.0,0.0,0.0,0.0,0.0,0.0,0.0,0.0,0.0,0.0,0.0,0.0,0.0,0.0,0.0,0.0,0.0,0.0,0.0,0.0,0.0,0.0,0.0,0.0,0.0,0.0,0.0,0.0,0.0,0.0,0.0,0.0,0.0,0.0,0.0,0.0,0.0,0.0,0.0,0.0,0.0,0.0,0.0,0.0,0.0,0.0,0.0,0.0,0.0,0.0,0.0,0.0,0.0,0.0,0.0,0.0,0.0,0.0,0.0,0.0,0.0,0.0,0.0,0.0,0.0,0.0,0.0,0.0,0.0,0.0,0.0,0.0,0.0,0.0,0.0,0.0,0.0,0.0,0.0,0.0,0.0,-2.4361,-2.4803,-2.4897,-2.5481,-2.585,-2.5822,-2.5398,-2.5287,-2.5647,-2.5628,0.0,0.0,0.0,0.0,0.0,0.0,0.0,0.0,0.0,0.0,0.0,0.0,0.0,0.0,0.0,0.0,0.0,0.0,0.0,0.0,0.0,0.0,0.0,0.0,0.0,0.0,0.0,0.0,0.0,0.0,0.0,0.0,0.0,0.0,0.0,0.0,0.0,0.0,0.0,0.0,0.0,0.0,0.0,0.0,0.0,0.0,0.0,0.0,0.0,0.0,0.0,0.0,0.0,0.0,0.0,0.0,0.0,0.0,0.0,0.0,0.0,0.0,0.0,0.0,0.0,0.0,0.0,0.0,0.0,0.0,0.0,0.0,0.0,0.0,0.0,0.0,0.0,0.0,0.0,0.0,0.0,0.0,0.0,0.0,0.0,0.0,0.0,0.0,0.0,0.0,0.0,0.0,0.0,0.0,0.0,0.0,0.0,0.0,0.0,0.0,0.0,0.0,-2.4706,-2.5089,-2.5488,-2.5517,-2.5511,-2.55,-2.4885,-2.4743,-2.5293,-2.4553,0.0,0.0,0.0,0.0,0.0,0.0,0.0,0.0,0.0,0.0,0.0,0.0,0.0,0.0,0.0,0.0,0.0,0.0,0.0,0.0,0.0,0.0,0.0,0.0,0.0,0.0,0.0,0.0,0.0,0.0,0.0,0.0,0.0,0.0,0.0,0.0,0.0,0.0,0.0,0.0,0.0,0.0,0.0,0.0,0.0,0.0,0.0,0.0,0.0,0.0,0.0,0.0,0.0,0.0,0.0,0.0,0.0,0.0,0.0,0.0,0.0,0.0,0.0,0.0,0.0,0.0,0.0,0.0,0.0,0.0,0.0,0.0,0.0,0.0,0.0,0.0,0.0,0.0,0.0,0.0,0.0,0.0,0.0,0.0,0.0,0.0,0.0,0.0,0.0,0.0,0.0,0.0,0.0,0.0,0.0,0.0,0.0,0.0,0.0,0.0,0.0,0.0,-2.4193,-2.3861,-2.5427,-2.5584,-2.557,-2.5508,-2.544,-2.5337,-2.5139,-2.4881,0.0,0.0,0.0,0.0,0.0,0.0,0.0,0.0,0.0,0.0,0.0,0.0,0.0,0.0,0.0,0.0,0.0,0.0,0.0,0.0,0.0,0.0,0.0,0.0,0.0,0.0,0.0,0.0,0.0,0.0,0.0,0.0,0.0,0.0,0.0,0.0,0.0,0.0,0.0,0.0,0.0,0.0,0.0,0.0,0.0,0.0,0.0,0.0,0.0,0.0,0.0,0.0,0.0,0.0,0.0,0.0,0.0,0.0,0.0,0.0,0.0,0.0,0.0,0.0,0.0,0.0,0.0,0.0,0.0,0.0,0.0,0.0,0.0,0.0,0.0,0.0,0.0,0.0,0.0,0.0,0.0,0.0,0.0,0.0,0.0,0.0,0.0,0.0,0.0,0.0,0.0,0.0,0.0,0.0,0.0,0.0,0.0,0.0,0.0,0.0,0.0,0.0,-2.5898,-2.5504,0.0,-2.5601,-2.5585,-2.5554,-2.5104,-2.5207,-2.6112,0.0,0.0,0.0,0.0,0.0,0.0,0.0,0.0,0.0,0.0,0.0,0.0,0.0,0.0,0.0,0.0,0.0,0.0,0.0,0.0,0.0,0.0,0.0,0.0,0.0,0.0,0.0,0.0,0.0,0.0,0.0,0.0,0.0,0.0,0.0,0.0,0.0,0.0,0.0,0.0,0.0,0.0,0.0,0.0,0.0,0.0,0.0,0.0,0.0,0.0,0.0,0.0,0.0,0.0,0.0,0.0,0.0,0.0,0.0,0.0,0.0,0.0,0.0,0.0,0.0,0.0,0.0,0.0,0.0,0.0,0.0,0.0,0.0,0.0,0.0,0.0,0.0,0.0,0.0,0.0,0.0,0.0,0.0,0.0,0.0,0.0,0.0,0.0,0.0,0.0,0.0,0.0,0.0,0.0,0.0,0.0,0.0,0.0,0.0,0.0,0.0,0.0,-2.6991,-2.6454,-2.5938,0.0,-2.5607,-2.5603,-2.5605,-2.5117,-2.5359,-2.6615,0.0,0.0,0.0,0.0,0.0,0.0,0.0,0.0,0.0,0.0,0.0,0.0,0.0,0.0,0.0,0.0,0.0,0.0,0.0,0.0,0.0,0.0,0.0,0.0,0.0,0.0,0.0,0.0,0.0,0.0,0.0,0.0,0.0,0.0,0.0,0.0,0.0,0.0,0.0,0.0,0.0,0.0,0.0,0.0,0.0,0.0,0.0,0.0,0.0,0.0,0.0,0.0,0.0,0.0,0.0,0.0,0.0,0.0,0.0,0.0,0.0,0.0,0.0,0.0,0.0,0.0,0.0,0.0,0.0,0.0,0.0,0.0,0.0,0.0,0.0,0.0,0.0,0.0,0.0,0.0,0.0,0.0,0.0,0.0,0.0,0.0,0.0,0.0,0.0,0.0,0.0,0.0,0.0,0.0,0.0,0.0,0.0,0.0,0.0,0.0,0.0,0.0,-2.6777,-2.5432,-2.4639,-2.5505,-2.5601,-2.5607,-2.5604,-2.5664,-2.5927,0.0,0.0,0.0,0.0,0.0,0.0,0.0,0.0,0.0,0.0,0.0,0.0,0.0,0.0,0.0,0.0,0.0,0.0,0.0,0.0,0.0,0.0,0.0,0.0,0.0,0.0,0.0,0.0,0.0,0.0,0.0,0.0,0.0,0.0,0.0,0.0,0.0,0.0,0.0,0.0,0.0,0.0,0.0,0.0,0.0,0.0,0.0,0.0,0.0,0.0,0.0,0.0,0.0,0.0,0.0,0.0,0.0,0.0,0.0,0.0,0.0,0.0,0.0,0.0,0.0,0.0,0.0,0.0,0.0,0.0,0.0,0.0,0.0,0.0,0.0,0.0,0.0,0.0,0.0,0.0,0.0,0.0,0.0,0.0,0.0,0.0,0.0,0.0,0.0,0.0,0.0,0.0,0.0,0.0,0.0,0.0,0.0,0.0,0.0,0.0,0.0,0.0,0.0,0.0,-2.6335,-2.5318,-2.5562,-2.5601,-2.5609,-2.5594,-2.5654,-2.6268,-2.7606,0.0,0.0,0.0,0.0,0.0,0.0,0.0,0.0,0.0,0.0,0.0,0.0,0.0,0.0,0.0,0.0,0.0,0.0,0.0,0.0,0.0,0.0,0.0,0.0,0.0,0.0,0.0,0.0,0.0,0.0,0.0,0.0,0.0,0.0,0.0,0.0,0.0,0.0,0.0,0.0,0.0,0.0,0.0,0.0,0.0,0.0,0.0,0.0,0.0,0.0,0.0,0.0,0.0,0.0,0.0,0.0,0.0,0.0,0.0,0.0,0.0,0.0,0.0,0.0,0.0,0.0,0.0,0.0,0.0,0.0,0.0,0.0,0.0,0.0,0.0,0.0,0.0,0.0,0.0,0.0,0.0,0.0,0.0,0.0,0.0,0.0,0.0,0.0,0.0,0.0,0.0,0.0,0.0,0.0,0.0,0.0,0.0,0.0,0.0,0.0,0.0,0.0,-2.8242,-2.6719,-2.5597,-2.5599,-2.5603,-2.5601,-2.5601,-2.5664,-2.6269,-2.7598,0.0,0.0,0.0,0.0,0.0,0.0,0.0,0.0,0.0,0.0,0.0,0.0,0.0,0.0,0.0,0.0,0.0,0.0,0.0,0.0,0.0,0.0,0.0,0.0,0.0,0.0,0.0,0.0,0.0,0.0,0.0,0.0,0.0,0.0,0.0,0.0,0.0,0.0,0.0,0.0,0.0,0.0,0.0,0.0,0.0,0.0,0.0,0.0,0.0,0.0,0.0,0.0,0.0,0.0,0.0,0.0,0.0,0.0,0.0,0.0,0.0,0.0,0.0,0.0,0.0,0.0,0.0,0.0,0.0,0.0,0.0,0.0,0.0,0.0,0.0,0.0,0.0,0.0,0.0,0.0,0.0,0.0,0.0,0.0,0.0,0.0,0.0,0.0,0.0,0.0,0.0,0.0,0.0,0.0,0.0,0.0,0.0,0.0,0.0,0.0,0.0,0.0,-2.8183,-2.6738,-2.5605,-2.5605,-2.5604,-2.5618,-2.5618,-2.5675,-2.6055,-2.6855,0.0,0.0,0.0,0.0,0.0,0.0,0.0,0.0,0.0,0.0,0.0,0.0,0.0,0.0,0.0,0.0,0.0,0.0,0.0,0.0,0.0,0.0,0.0,0.0,0.0,0.0,0.0,0.0,0.0,0.0,0.0,0.0,0.0,0.0,0.0,0.0,0.0,0.0,0.0,0.0,0.0,0.0,0.0,0.0,0.0,0.0,0.0,0.0,0.0,0.0,0.0,0.0,0.0,0.0,0.0,0.0,0.0,0.0,0.0,0.0,-3.0442,0.0,0.0,0.0,0.0,0.0,0.0,0.0,0.0,0.0,0.0,0.0,0.0,0.0,0.0,0.0,0.0,0.0,0.0,0.0,0.0,0.0,0.0,0.0,0.0,0.0,0.0,0.0,0.0,0.0,0.0,0.0,0.0,0.0,0.0,0.0,0.0,0.0,0.0,0.0,0.0,0.0,-2.8261,-2.6777,-2.5684,-2.5684,-2.5677,-2.5685,-2.5685,-2.5681,-2.6074,-2.6914,0.0,0.0,0.0,0.0,0.0,0.0,0.0,0.0,0.0,0.0,0.0,0.0,0.0,0.0,0.0,0.0,0.0,0.0,0.0,0.0,0.0,0.0,0.0,0.0,0.0,0.0,0.0,0.0,0.0,0.0,0.0,0.0,0.0,0.0,0.0,0.0,0.0,0.0,0.0,0.0,0.0,0.0,0.0,0.0,0.0,0.0,0.0,0.0,0.0,0.0,0.0,0.0,0.0,0.0,0.0,0.0,0.0,0.0,0.0,0.0,0.0,-3.1838,0.0,0.0,0.0,0.0,0.0,0.0,0.0,0.0,0.0,0.0,0.0,0.0,0.0,0.0,0.0,0.0,0.0,0.0,0.0,0.0,0.0,0.0,0.0,0.0,0.0,0.0,0.0,0.0,0.0,0.0,0.0,0.0,0.0,0.0,0.0,0.0,0.0,0.0,0.0,0.0,-2.8905,-2.7031,-2.5703,-2.5703,-2.5703,-2.5703,-2.5703,-2.5703,-2.5898,-2.6348,-2.6738,0.0,0.0,0.0,0.0,0.0,0.0,0.0,0.0,0.0,0.0,0.0,0.0,0.0,0.0,0.0,0.0,0.0,0.0,0.0,0.0,0.0,0.0,0.0,0.0,0.0,0.0,0.0,0.0,0.0,0.0,0.0,0.0,0.0,0.0,0.0,0.0,0.0,0.0,0.0,0.0,0.0,0.0,0.0,0.0,0.0,0.0,0.0,0.0,0.0,0.0,0.0,0.0,0.0,0.0,0.0,-3.9728,-3.9733,-3.8938,-3.7381,-3.4792,-3.2925,-3.1794,0.0,0.0,0.0,0.0,0.0,0.0,0.0,0.0,0.0,0.0,0.0,0.0,0.0,0.0,0.0,0.0,0.0,0.0,0.0,0.0,0.0,0.0,0.0,0.0,0.0,-2.9557,-2.9289,0.0,0.0,0.0,0.0,0.0,0.0,0.0,0.0,0.0,0.0,0.0,0.0,-2.9589,-2.7441,-2.5937,-2.5937,-2.5781,-2.5703,-2.5703,-2.5703,-2.5703,-2.5703,-2.6387,-2.6582,0.0,0.0,0.0,0.0,0.0,0.0,0.0,0.0,0.0,0.0,0.0,0.0,0.0,0.0,0.0,0.0,0.0,0.0,0.0,0.0,0.0,0.0,0.0,0.0,0.0,0.0,0.0,0.0,0.0,0.0,0.0,0.0,-3.4481,-3.4801,0.0,0.0,0.0,0.0,0.0,0.0,0.0,0.0,0.0,0.0,0.0,0.0,0.0,0.0,-4.2946,-4.2891,-4.2871,-4.2887,-4.1668,-4.0674,-3.9869,-3.9869,-3.9344,-3.8355,-3.7223,0.0,-3.5269,-3.4668,0.0,0.0,0.0,0.0,0.0,0.0,0.0,0.0,0.0,0.0,0.0,0.0,0.0,0.0,0.0,0.0,0.0,0.0,0.0,0.0,0.0,0.0,-2.8647,-2.9414,-2.9557,-2.9463,0.0,-2.9896,-3.0678,-3.1486,0.0,0.0,0.0,0.0,0.0,0.0,0.0,0.0,-2.9667,-2.7988,-2.6836,-2.6836,-2.6152,-2.5703,-2.5703,-2.5703,-2.5703,-2.5703,-2.5801,-2.6504,-2.7891,-2.8182,0.0,0.0,0.0,0.0,0.0,0.0,0.0,0.0,0.0,0.0,0.0,0.0,0.0,0.0,0.0,0.0,0.0,0.0,0.0,0.0,0.0,0.0,0.0,0.0,0.0,0.0,0.0,0.0,0.0,-3.6284,-3.7685,-3.7808,-4.0,-4.1434,0.0,0.0,0.0,0.0,0.0,0.0,0.0,0.0,0.0,-4.22,-4.275,-4.2877,-4.2526,-4.2797,-4.2926,-4.2926,-4.3208,-4.2871,-4.2051,-4.2397,-4.1976,-4.1016,-4.0937,-4.0156,-3.873,-3.6367,-3.5625,-3.5957,0.0,0.0,0.0,0.0,0.0,-3.4417,-3.3506,0.0,0.0,0.0,0.0,0.0,0.0,0.0,0.0,0.0,0.0,0.0,0.0,0.0,0.0,-3.1074,-3.1364,-3.1626,-3.1602,-3.1802,-3.1835,0.0,-3.1669,-3.2193,-3.2482,0.0,0.0,0.0,0.0,0.0,-3.0263,-2.8728,-2.7476,-2.6939,-2.6554,-2.6314,-2.6325,-2.5863,-2.5805,-2.6348,-2.5918,-2.6211,-2.7519,-2.8047,-2.9062,0.0,0.0,0.0,0.0,0.0,0.0,0.0,0.0,0.0,0.0,0.0,0.0,0.0,0.0,0.0,0.0,0.0,0.0,0.0,0.0,0.0,0.0,0.0,0.0,0.0,0.0,0.0,0.0,-3.7211,-3.9402,-3.9689,-4.1323,-4.2401,0.0,0.0,0.0,0.0,0.0,0.0,-4.3324,-4.4109,-4.4331,-4.3976,-4.4012,-4.3535,-4.2519,-4.3105,-4.3398,-4.3418,-4.4707,-4.498,-4.4375,-4.4824,-4.457,-4.3789,-4.3887,-4.3398,-4.2266,-3.9082,-3.7402,-3.6875,-3.6934,-3.7181,0.0,-3.6665,-3.6325,-3.6144,-3.4995,-3.3712,-3.2728,-3.3602,0.0,-3.1269,-3.1465,0.0,0.0,0.0,0.0,-3.2373,-3.1963,0.0,-3.3359,-3.3203,-3.3414,-3.3626,-3.3569,-3.3493,-3.2961,0.0,-3.2081,-3.2894,-3.3081,0.0,0.0,0.0,0.0,-3.091,-3.0702,-2.9382,-2.821,-2.751,-2.7265,-2.7123,-2.7128,-2.6327,-2.612,-2.6827,-2.6275,-2.6324,-2.7266,-2.8144,-2.9121,-3.0234,0.0,0.0,0.0,0.0,0.0,0.0,0.0,0.0,0.0,0.0,0.0,0.0,0.0,0.0,0.0,0.0,0.0,0.0,0.0,0.0,0.0,0.0,0.0,0.0,0.0,0.0,0.0,0.0,0.0,-3.786,-3.9977,0.0,0.0,0.0,0.0,-4.3088,-4.3701,-4.4283,-4.4853,-4.4936,-4.4956,-4.494,-4.4922,-4.5293,-4.6035,-4.6074,-4.6094,-4.6094,-4.6191,-4.6211,-4.6172,-4.6191,-4.6172,-4.6074,-4.5019,-4.5117,-4.5859,-4.3516,-4.123,-3.9258,-3.9434,-4.0527,-4.1675,-3.9111,-3.8167,-3.7926,-3.6286,-3.5174,-3.46,-3.5485,-3.5723,-3.5371,-3.3691,-3.4296,0.0,0.0,-3.3198,-3.3442,-3.4214,-3.3905,-3.3809,-3.543,-3.5156,-3.4527,-3.4522,-3.4379,-3.3962,0.0,-3.23,-3.21,-3.2781,0.0,-3.1862,-3.1873,-3.1794,-3.1479,-3.0698,-2.9805,-2.924,-2.9175,-2.8497,-2.8037,-2.8027,-2.7236,-2.6756,-2.6805,-2.6759,-2.7168,-2.8105,-2.8984,-3.0273,-3.2031,-3.1289,0.0,0.0,0.0,0.0,0.0,0.0,0.0,0.0,0.0,0.0,0.0,0.0,0.0,0.0,0.0,0.0,0.0,0.0,0.0,0.0,0.0,0.0,0.0,0.0,0.0,0.0,0.0,0.0,-4.2446,-4.3617,0.0,0.0,-4.4388,-4.4235,-4.4195,-4.4531,-4.482,-4.4999,-4.6055,-4.6426,-4.5859,-4.6387,-4.6543,-4.6308,-4.6308,-4.6257,-4.6177,-4.6177,-4.6134,-4.6045,-4.6223,-4.6308,-4.6289,-4.5879,-4.5918,-4.623,-4.543,-4.3594,-4.1289,-4.084,-4.1055,-4.1406,-3.9793,-3.9193,-3.9034,-3.7821,-3.6549,-3.5218,-3.3945,-3.3539,-3.3437,-3.2793,-3.3027,-3.3496,-3.3367,-3.416,-3.4988,-3.4729,-3.571,-3.6758,-3.6816,-3.6582,-3.6326,-3.6286,-3.623,-3.5868,-3.4834,-3.3943,-3.3423,-3.368,-3.3083,-3.2582,-3.2563,-3.216,-3.1534,-3.0656,-3.0254,-2.984,-2.9244,-2.8909,-2.8747,-2.8747,-2.7986,-2.7755,-2.8315,-2.7865,-2.7976,-2.8873,-2.9201,-2.9948,-3.1141,-3.0868,-3.1387,0.0,0.0,0.0,0.0,0.0,0.0,0.0,0.0,0.0,0.0,0.0,0.0,0.0,0.0,0.0,0.0,0.0,0.0,0.0,0.0,0.0,0.0,0.0,0.0,0.0,0.0,-4.2704,-4.6228,-4.6605,-4.6778,-4.7261,-4.6468,-4.5803,-4.5491,-4.5649,-4.5874,-4.6167,-4.7321,-4.7693,-4.7068,-4.7649,-4.7532,-4.6602,-4.6892,-4.6702,-4.6042,-4.6634,-4.6715,-4.6356,-4.6875,-4.7018,-4.6855,-4.6465,-4.6523,-4.6836,-4.6465,-4.5273,-4.3633,-4.2812,-4.248,-4.2363,-4.1406,-4.1045,-4.0886,-3.9692,-3.8397,-3.6923,-3.4988,-3.4337,-3.4233,-3.394,-3.4031,-3.43,-3.4569,-3.5684,-3.6758,-3.6523,-3.7519,-3.8535,-3.8242,-3.7734,-3.7361,-3.7561,-3.7361,-3.7003,-3.6535,-3.5718,-3.493,-3.4314,-3.3769,-3.3404,-3.3404,-3.2512,-3.1819,-3.1756,-3.1256,-3.0679,-3.0044,-2.9987,-2.9852,-2.9563,-2.9044,-2.8852,-2.9151,-2.894,-2.8948,-2.9252,-2.9834,-3.0435,-3.1025,-3.1352,-3.2081,-3.3237,0.0,0.0,0.0,0.0,0.0,0.0,0.0,0.0,0.0,0.0,0.0,0.0,0.0,0.0,0.0,0.0,0.0,0.0,0.0,0.0,0.0,0.0,0.0,-4.1323,-4.3071,-4.5439,-4.8567,-4.8506,-4.8221,-4.8221,-4.7584,-4.7143,-4.7132,-4.7259,-4.7689,-4.8506,-4.8693,-4.8685,-4.8506,-4.8643,-4.8257,-4.7261,-4.8079,-4.7641,-4.5998,-4.7693,-4.8048,-4.726,-4.8256,-4.8463,-4.7988,-4.6875,-4.7012,-4.7969,-4.6816,-4.6348,-4.625,-4.5371,-4.5039,-4.4922,-4.4062,-4.3711,-4.3457,-4.1777,-4.0644,-3.9785,-3.8886,-3.8505,-3.8235,-3.7398,-3.7699,-3.8162,-3.7352,-3.7773,-3.8691,-3.9609,-3.9258,-3.8887,-3.9707,-3.8594,-3.7572,-3.8286,-3.7715,-3.7288,-3.7954,-3.7512,-3.6435,-3.4584,-3.4295,-3.4276,-3.4199,-3.2833,0.0,-3.3949,-3.2737,-3.1756,-3.1775,-3.1775,-3.1448,-3.059,-3.0494,-3.0121,-2.9236,-2.9948,-3.0044,-2.9267,-3.0859,-3.1789,-3.1885,-3.2832,-3.3333,-3.3338,0.0,0.0,0.0,0.0,0.0,0.0,0.0,0.0,0.0,0.0,0.0,0.0,0.0,0.0,0.0,0.0,0.0,0.0,0.0,0.0,0.0,0.0,-4.3393,-4.4233,-4.5394,-4.7163,-4.9891,-5.0586,-5.0875,-5.0875,-5.076,-5.0451,-4.9864,-4.9958,-4.9862,-4.9459,-5.007,-4.9828,-4.8536,-4.9161,-4.9066,-4.8147,-4.8376,-4.8202,-4.7642,-4.8141,-4.8182,-4.7856,-4.8335,-4.8739,-4.9042,-4.845,-4.8574,-4.9121,-4.7793,-4.7246,-4.7168,-4.6289,-4.5937,-4.584,-4.4961,-4.4238,-4.3457,-4.1777,-4.1035,-4.0582,-3.8974,-3.844,-3.8351,-3.8047,-3.8527,-3.8998,-3.8199,-3.9021,-3.9914,-3.8973,-3.9466,-4.0109,-3.9758,-3.933,-3.9026,-3.9219,-3.9062,-3.8728,-3.82,-3.895,-3.8873,-3.643,-3.6546,-3.6334,-3.4468,0.0,0.0,-3.3353,-3.2852,-3.2814,-3.3449,-3.3506,-3.341,-3.3179,-3.2583,-3.1852,0.0,-3.0621,-3.0314,-3.0083,-3.0533,-3.109,-3.1744,-3.325,-3.4075,0.0,0.0,0.0,0.0,0.0,0.0,0.0,0.0,0.0,0.0,0.0,0.0,0.0,0.0,0.0,0.0,0.0,0.0,0.0,0.0,0.0,0.0,-4.4454,-4.6041,-4.7685,-4.7938,-4.8895,-5.1438,-5.2163,-5.2499,-5.2679,-5.2782,-5.254,-5.1895,-5.1607,-5.1202,-5.0702,-5.0894,-5.0524,-4.9451,-4.9965,-4.9817,-4.8894,-4.924,-4.9009,-4.8221,-4.9298,-4.9606,-4.9202,-4.9817,-5.0515,0.0,-4.9966,-4.9805,-5.0273,-4.8379,-4.7598,0.0,0.0,0.0,0.0,0.0,-4.498,-4.4101,-4.3125,-4.2533,-4.2038,-4.094,-4.0499,-4.0399,-4.0345,-4.0403,-4.0386,-3.9961,-4.0287,-4.0544,-3.9603,-4.0068,-4.0776,-4.0676,-4.0115,-3.9777,-4.0455,-4.0036,-3.955,-3.9627,0.0,0.0,-3.8565,-3.843,-3.8046,-3.6546,-3.5853,-3.5391,0.0,-3.4103,-3.3641,-3.4141,-3.4199,-3.4045,-3.368,-3.3526,0.0,0.0,0.0,-3.1987,-3.1987,-3.1987,0.0,0.0,0.0,-3.5492,0.0,0.0,0.0,0.0,-3.6454,-3.6406,0.0,0.0,0.0,0.0,0.0,0.0,0.0,0.0,0.0,0.0,0.0,0.0,0.0,0.0,0.0,0.0,-4.7087,-4.8594,-5.1288,-5.0733,-5.0854,-5.3025,-5.3314,-5.3494,-5.3838,-5.3815,-5.3645,-5.3294,-5.2509,-5.2049,0.0,0.0,0.0,0.0,0.0,-5.0433,-4.9548,-5.0298,-4.9971,-4.8567,-5.0818,-5.1587,-5.101,-5.1915,-5.2779,-5.3478,-5.1291,-5.0801,-5.1367,-4.8906,-4.7773,-4.7519,-4.6641,-4.6308,-4.6308,-4.6308,-4.5801,0.0,0.0,0.0,0.0,-4.3592,-4.3398,-4.3203,-4.3184,-4.2665,-4.2085,-4.2124,-4.1623,-4.1101,-4.1081,-4.1062,-4.1219,-4.1915,-4.1011,-4.0358,-4.17,-4.0838,-4.0242,-4.1681,-4.1316,-4.0777,-4.0777,-4.0027,-3.9373,-3.9181,-3.7315,0.0,-3.7815,-3.6026,-3.4661,-3.4757,0.0,0.0,-3.3545,-3.418,-3.4218,-3.3256,-3.391,-3.4353,-3.4353,-3.443,-3.4885,-3.572,-3.6665,-3.7205,-3.7332,-3.8194,-3.8657,-3.8711,-3.7793,-3.7741,0.0,0.0,0.0,0.0,0.0,0.0,0.0,0.0,0.0,0.0,0.0,0.0,0.0,0.0,0.0,-4.7895,-4.9796,-5.1725,-5.3618,-5.3902,-5.3868,-5.3698,-5.4027,-5.4289,-5.4352,-5.4021,-5.3753,-5.3677,-5.3226,-5.2953,-5.2953,-5.2164,0.0,-5.1683,-5.1048,-5.0644,-5.0452,-5.0606,-5.0856,-5.1183,0.0,0.0,-5.2702,-5.2433,-5.2785,-5.3516,-5.1877,-5.166,-5.2305,-5.0469,-4.8867,-4.7519,-4.6641,-4.6308,-4.6308,-4.6308,-4.6191,-4.5933,-4.5121,-4.4735,-4.4434,-4.3568,-4.3242,-4.3184,-4.3143,-4.3451,0.0,-4.3066,-4.322,-4.3451,-4.2816,-4.2662,-4.2527,-4.1989,-4.2162,-4.2316,-4.1931,-4.2143,-4.2489,-4.2797,-4.2701,-4.2604,-4.2604,-4.1296,-3.9796,-3.845,-3.843,-3.843,-3.8046,-3.7565,-3.7526,-3.8238,-3.8296,-3.795,-3.7084,-3.7161,-3.6622,-3.5103,-3.5161,-3.5257,-3.5257,-3.5872,-3.6348,-3.6645,-3.7569,-3.8093,-3.8163,-3.8449,-3.8957,-3.9629,-3.873,-3.8416,0.0,0.0,0.0,0.0,0.0,0.0,0.0,0.0,0.0,0.0,0.0,-4.5376,0.0,0.0,-5.043,-5.1706,-5.3017,-5.4371,-5.5833,-5.5998,-5.5758,-5.5131,-5.4701,-5.4522,-5.4737,-5.4396,-5.4164,-5.4164,-5.3953,-5.3755,-5.3522,-5.2907,-5.2549,-5.2549,-5.2164,-5.1952,-5.1952,-5.1952,-5.2145,-5.2568,-5.2991,-5.3433,-5.3837,-5.3682,-5.4083,-5.4792,-5.2872,-5.2558,-5.3183,-5.1074,-4.9433,-4.8203,-4.7773,-4.707,-4.6308,-4.6308,-4.6257,-4.6144,-4.5634,-4.5374,-4.522,-4.4682,-4.447,-4.4393,-4.4355,-4.4335,-4.422,-4.3816,-4.3701,-4.3605,-4.3201,-4.3104,-4.3085,-4.3066,-4.3085,-4.3085,-4.3066,-4.3085,-4.322,-4.3624,-4.3374,-4.3239,-4.3624,-4.2643,-4.1508,-4.0681,-4.0181,-3.9738,-3.9315,-3.8527,-3.8161,-3.8604,-3.8642,-3.8469,-3.8046,-3.8007,-3.7642,-3.6796,-3.6757,-3.6757,-3.6757,-3.7142,-3.7637,-3.8243,-3.8714,-3.9234,-3.9799,-3.9869,-4.0117,-4.0547,-4.0098,-3.9902,0.0,0.0,0.0,0.0,0.0,0.0,0.0,0.0,-4.6184,-4.7443,-4.8408,-4.9657,-5.1755,-5.3253,-5.446,-5.5326,-5.5884,-5.6603,-5.7802,-5.7623,-5.7196,-5.6834,-5.5442,-5.4621,-5.4869,-5.464,-5.4503,-5.4503,-5.4645,-5.4556,-5.418,-5.3708,-5.3453,-5.3453,-5.3299,-5.3203,-5.3203,-5.3203,-5.328,-5.3453,-5.4164,-5.4587,-5.4741,-5.4816,-5.5322,-5.6025,-5.4021,-5.3398,-5.3574,-5.1348,-4.9922,-4.9141,-4.8965,-4.7949,-4.6543,-4.6543,-4.6481,-4.6333,-4.6123,-4.595,-4.5796,-4.5776,-4.5699,-4.5586,-4.5586,-4.5105,-4.4547,-4.4547,-4.4085,-4.3585,-4.3585,-4.3585,-4.3701,-4.4182,-4.3932,-4.372,-4.4201,-4.3912,-4.3778,-4.4432,-4.4028,-4.3797,-4.4432,-4.4008,-4.347,-4.3143,-4.1893,-4.1008,-4.1008,-3.9835,-3.8988,-3.8988,-3.8988,-3.8988,-3.8988,-3.8681,-3.8623,-3.8969,-3.8834,-3.8815,-3.8988,-3.8988,-3.935,-4.0072,-4.0119,-4.0485,-4.1191,-4.1191,-4.1191,-4.1191,-4.1191,-4.1191,-3.6782,-3.7801,-3.9472,-4.1426,-4.2577,-4.4048,0.0,0.0,-4.9219,-5.0596,-5.1813,-5.2717,-5.299,-5.4393,-5.5775,-5.664,-5.7482,-5.8304,-5.9177,-5.8896,-5.8587,-5.8509,-5.645,-5.4907,-5.4491,-5.4501,-5.4503,-5.4503,-5.5161,-5.5528,-5.5487,-5.4759,-5.4357,-5.4357,-5.3606,-5.3203,-5.3203,-5.3203,-5.3587,-5.4357,-5.4453,-5.4876,-5.5549,-5.497,-5.5171,-5.5896,-5.5142,-5.4082,-5.2754,-5.1699,-5.0781,-4.998,-4.9199,-4.8301,-4.7441,-4.7441,-4.7377,-4.7139,-4.6219,-4.5873,-4.5776,-4.5643,-4.5605,-4.5586,-4.5586,-4.5528,-4.5451,-4.5451,-4.5374,-4.5316,-4.5316,-4.5316,-4.5143,-4.4451,-4.4816,-4.5124,-4.4451,-4.4836,-4.5336,-4.5432,-4.5374,-4.5336,-4.5432,-4.5374,-4.4816,-4.3316,-4.2931,-4.2816,-4.2816,-4.2643,-4.2527,-4.2527,-4.2527,-4.2527,-4.2527,-4.1104,-4.0873,-4.2431,-4.1797,-4.172,-4.2508,-4.2582,-4.2367,-4.1825,-4.1928,-4.1733,-4.1191,-4.1191,-4.1191,-4.1191,-4.1191,-4.1191,-3.6123,-3.8271,0.0,0.0,-4.5408,-4.8104,-5.0377,-5.1643,-5.2628,-5.3683,-5.4715,-5.564,-5.6332,-5.7456,-5.8374,0.0,-5.9102,-5.9562,-6.0161,-5.9643,-5.891,-5.8177,-5.6122,-5.4846,-5.5137,-5.4762,-5.4503,-5.4503,-5.5256,-5.5599,-5.5356,-5.525,-5.5434,-5.5934,-5.5107,-5.4895,-5.5415,-5.4914,-5.4838,-5.5203,-5.5203,-5.5376,-5.5684,-5.5491,-5.5382,-5.5284,-5.4538,-5.3571,-5.2395,-5.1576,-5.1024,-5.0692,-5.0321,-4.9951,-4.9451,-4.802,-4.7093,-4.6461,-4.5995,-4.5776,-4.568,-4.5605,-4.5586,-4.5586,-4.5586,-4.5586,-4.5586,-4.5586,-4.5586,-4.5586,-4.5586,-4.5586,-4.5509,-4.5143,-4.5316,-4.549,-4.5143,-4.5336,-4.5586,-4.5586,-4.5586,-4.5586,-4.5586,-4.5586,-4.5355,-4.4662,-4.4124,-4.3797,-4.3797,-4.3393,-4.3104,-4.3104,-4.3104,-4.3104,-4.3104,-4.2431,-4.2316,-4.3047,-4.2758,-4.272,-4.3085,-4.3159,-4.3086,-4.2865,-4.298,-4.2916,-4.2656,-4.2148,-4.2168,-4.2637,-4.2129,-4.1888,-3.6927,0.0,0.0,-4.4729,-4.8228,-5.1654,-5.3484,-5.4745,-5.5838,-5.6896,-5.7607,-5.8285,-5.9015,-5.9665,0.0,-6.0103,-6.0103,-6.0264,-6.0734,-5.9749,-5.8572,-5.7404,-5.5125,-5.3981,-5.4791,-5.4415,-5.4302,-5.464,-5.5306,-5.5577,-5.5282,-5.5535,-5.6088,-5.6953,-5.6145,-5.6107,-5.6973,-5.6126,-5.5703,-5.5703,-5.5703,-5.5703,-5.5703,-5.5799,-5.5472,-5.482,-5.4177,-5.3294,-5.2246,-5.1683,-5.1302,-5.1108,-5.1108,-5.0952,-5.052,-4.8668,-4.755,-4.6841,-4.6301,-4.6047,-4.5913,-4.5682,-4.5586,-4.5586,-4.5586,-4.5586,-4.5586,-4.5586,-4.5586,-4.5586,-4.5586,-4.5586,-4.5586,-4.5586,-4.5586,-4.5663,-4.5913,-4.5951,-4.5951,-4.5951,-4.5951,-4.5874,-4.5624,-4.5586,-4.5586,-4.5586,-4.5047,-4.4662,-4.4662,-4.4143,-4.3797,-4.3797,-4.3797,-4.3797,-4.3797,-4.3566,-4.3528,-4.3778,-4.3566,-4.3566,-4.3835,-4.391,-4.3892,-4.379,-4.3915,-4.3888,-4.3691,-4.3066,-4.3086,-4.3672,-4.304,-4.2702,0.0,0.0,-4.4484,-4.7745,-5.0601,-5.3374,-5.6236,-5.755,-5.8646,-6.03,-6.0666,-6.0551,-6.0151,-6.0084,-6.0103,-6.0103,-6.0103,-6.0264,-6.0734,-5.9045,-5.742,-5.6534,-5.3579,-5.1869,0.0,-5.3006,-5.3762,-5.5004,-5.5466,-5.5684,-5.5684,-5.5684,-5.6088,-5.6953,-5.6145,-5.6107,-5.6973,-5.6126,-5.5703,-5.5703,-5.5703,-5.5703,-5.5703,-5.5703,-5.5359,-5.4705,-5.4687,-5.3763,-5.23,-5.2281,-5.1799,-5.1106,-5.1106,-5.0568,-4.9798,-4.9605,-4.9509,-4.9239,-4.7566,-4.6932,-4.6721,-4.5874,-4.5586,-4.5586,-4.5586,-4.5586,-4.5586,-4.5586,-4.5586,-4.5586,-4.5586,-4.5586,-4.5586,-4.5586,-4.5586,-4.5817,-4.6682,-4.6855,-4.6855,-4.6855,-4.6855,-4.6586,-4.574,-4.5586,-4.5586,-4.5586,-4.5566,-4.5547,-4.5547,-4.5528,-4.5509,-4.5509,-4.5509,-4.5509,-4.5509,-4.4739,-4.4624,-4.547,-4.472,-4.4701,-4.568,-4.5776,-4.5488,-4.4759,-4.489,-4.4531,-4.3691,-4.3672,-4.3672,-4.3691,-4.3598,-4.3551,0.0,0.0,-4.8454,-5.0714,-5.3888,-5.696,-5.9046,-5.9742,-5.9954,-5.9935,-5.8894,-5.7704,-5.6861,-5.6578,-5.6709,-5.7454,-5.8539,-5.9633,-6.0657,-5.971,-5.816,-5.6165,-5.4242,0.0,0.0,0.0,0.0,-5.4082,-5.4415,-5.4733,-5.5268,-5.6115,-5.6953,-5.7838,-5.7011,-5.6973,-5.7857,-5.6415,-5.5703,-5.5703,-5.5703,-5.5703,-5.5703,-5.5703,-5.5568,-5.5318,-5.4799,-5.3935,-5.2857,-5.228,-5.1568,-5.0837,-5.0837,-5.0664,-5.0394,-5.0337,-5.0337,-5.0086,-4.8336,-4.7721,-4.7644,-4.7355,-4.6894,-4.6567,-4.7105,-4.6894,-4.6567,-4.7105,-4.7259,-4.7259,-4.7259,-4.6855,-4.6605,-4.7124,-4.6855,-4.6682,-4.7528,-4.7702,-4.7548,-4.7009,-4.6913,-4.6624,-4.574,-4.5586,-4.5586,-4.5586,-4.5586,-4.5586,-4.5586,-4.5586,-4.5586,-4.5586,-4.5586,-4.5586,-4.5586,-4.5316,-4.5278,-4.5566,-4.5316,-4.5297,-4.5643,-4.5781,-4.5717,-4.5465,-4.5557,-4.5492,-4.5293,-4.4707,-4.4727,-4.527,-4.4681,-4.4318,-4.1967,-4.6788,-5.1935,-5.3721,-5.6578,-5.9273,-6.0527,-6.055,-6.0012,-5.8838,-5.7079,-5.5369,-5.4154,-5.3369,-5.3428,-5.4933,-5.6245,-5.7741,-5.9638,-5.8746,-5.7565,-5.6548,-5.4556,0.0,0.0,0.0,0.0,-5.388,-5.4212,-5.4632,-5.5268,-5.6403,-5.7396,-5.828,-5.7761,-5.7723,-5.83,-5.6876,-5.5948,-5.5489,-5.5489,-5.5489,-5.5489,-5.5621,-5.553,-5.5241,-5.4722,-5.401,-5.3164,-5.2606,-5.2068,-5.1587,-5.1587,-5.1587,-5.1587,-5.1587,-5.1587,-5.1356,-4.9625,-4.8836,-4.8567,-4.8567,-4.8009,-4.7432,-4.7952,-4.774,-4.7451,-4.7952,-4.8105,-4.8105,-4.8105,-4.7721,-4.7471,-4.799,-4.7721,-4.7567,-4.8394,-4.8567,-4.8413,-4.7894,-4.7548,-4.7067,-4.6201,-4.5797,-4.5586,-4.5586,-4.5586,-4.5586,-4.5586,-4.5586,-4.5586,-4.5586,-4.5586,-4.5586,-4.5586,-4.5586,-4.5586,-4.5586,-4.5586,-4.5605,-4.568,-4.5746,-4.5814,-4.5833,-4.5873,-4.5939,-4.6027,-4.5469,-4.5475,-4.6018,-4.5423,-4.5086,-4.6031,-5.0494,-5.4806,-5.6579,-5.8546,-6.017,-6.0507,-5.9907,-5.8769,-5.7063,-5.5267,-5.3513,0.0,0.0,-5.0464,-5.2699,-5.3538,-5.4957,-5.7947,-5.6644,-5.5969,0.0,0.0,0.0,0.0,0.0,0.0,-5.4507,0.0,-5.5275,-5.5734,-5.6624,-5.7511,-5.8338,-5.8357,-5.8338,-5.83,-5.7376,-5.6295,-5.5061,-5.5088,-5.5088,-5.5115,-5.5512,-5.528,-5.4549,-5.4549,-5.4068,-5.328,-5.328,-5.3241,-5.3203,-5.3203,-5.3203,-5.3203,-5.3203,-5.3203,-5.2991,-5.1433,-5.0317,-4.9586,-4.9586,-4.8971,-4.824,-4.8279,-4.824,-4.8182,-4.8279,-4.8298,-4.8298,-4.8355,-4.8336,-4.8298,-4.8298,-4.8259,-4.8471,-4.9298,-4.9471,-4.9452,-4.9413,-4.8663,-4.7798,-4.7028,-4.6182,-4.5586,-4.5586,-4.5586,-4.5586,-4.5586,-4.5586,-4.5586,-4.5586,-4.5586,-4.5586,-4.5586,-4.5624,-4.5643,-4.5586,-4.5624,-4.5701,-4.5796,-4.5796,-4.5815,-4.5873,-4.5873,-4.5892,-4.5892,-4.5891,-4.5881,-4.59,-4.5819,-4.5796,-4.9508,-5.3263,-5.6772,-5.7247,-5.8495,-5.929,-5.8216,-5.698,-5.5422,-5.3138,-5.0288,-4.796,0.0,0.0,0.0,-5.0813,-5.3535,0.0,-5.8827,-5.9269,0.0,0.0,0.0,-5.6328,-5.5343,-5.4696,0.0,0.0,-5.5585,-5.5549,-5.6535,-5.8036,-5.8954,-5.9184,-5.9184,-5.8915,-5.8319,-5.6472,-5.529,-5.4659,-5.4952,-5.5088,-5.5115,-5.5512,-5.5588,-5.5395,-5.5395,-5.4934,-5.4164,-5.4164,-5.3799,-5.3203,-5.3203,-5.3203,-5.3203,-5.3203,-5.3203,-5.3241,-5.3453,-5.2953,-5.2241,-5.2241,-5.1241,-5.0144,-5.076,-5.0067,-4.9336,-5.0587,-5.0933,-5.1087,-5.1741,-5.1433,-5.0933,-5.0933,-5.0471,-5.0087,-5.0317,-5.0356,-5.0183,-4.9529,-4.8221,-4.7144,-4.6951,-4.6182,-4.5586,-4.5586,-4.5586,-4.5586,-4.5586,-4.5586,-4.5586,-4.5586,-4.5586,-4.5586,-4.5586,-4.6201,-4.6297,-4.5624,-4.6201,-4.6297,-4.5663,-4.5643,-4.5643,-4.568,-4.568,-4.5738,-4.5834,-4.5819,-4.5843,-4.5843,-4.5808,-4.5757,-5.3347,-5.6207,-5.8714,-5.8576,-5.8838,-5.8632,-5.6875,-5.5078,-5.2893,-4.9716,-4.6726,0.0,0.0,0.0,0.0,0.0,0.0,0.0,-5.5809,-5.7749,-5.8802,0.0,-5.8707,0.0,-5.7453,-5.6977,-5.7019,0.0,0.0,-5.6213,-5.7444,-5.8782,-5.9492,-5.9492,-5.9877,-5.9576,-5.8527,-5.6406,-5.517,-5.4712,-5.481,-5.4838,-5.4867,-5.5423,-5.5703,-5.5703,0.0,-5.5434,-5.503,-5.503,-5.4741,-5.4299,-5.4299,-5.4299,-5.4299,-5.4299,-5.4299,-5.4376,-5.4857,-5.4703,-5.4241,-5.3895,-5.2876,-5.1875,-5.2337,-5.1818,-5.126,-5.2222,-5.2472,-5.2587,-5.3068,-5.2837,-5.2472,-5.2472,-5.2125,-5.1798,-5.1798,-5.1798,-5.1433,-5.0202,-4.8894,-4.7759,-4.7028,-4.649,-4.6028,-4.5663,-4.5586,-4.5586,-4.5586,-4.5586,-4.5586,-4.5586,-4.5586,-4.5586,-4.5586,-4.6047,-4.6124,-4.5624,-4.6067,-4.6105,-4.5605,-4.5586,-4.5586,-4.5586,-4.5586,-4.5624,-4.5719,-4.5719,-4.5719,-4.5719,-4.5719,-4.568,-5.6944,-5.8872,-6.0323,-5.9913,-5.9037,-5.7765,-5.5755,-5.3262,-5.0231,-4.636,0.0,-4.156,-3.9824,0.0,-3.9697,-4.2629,0.0,-4.8096,-5.1567,-5.4372,-5.674,-5.8578,-5.9173,-5.9442,-5.9557,-5.9113,-5.8864,-5.9054,-5.7595,-5.727,-5.8481,-5.9258,-5.9665,-5.9665,-6.0281,-6.0041,-5.8826,-5.6841,-5.5642,-5.5174,-5.4912,-5.4824,-5.4856,-5.5676,-5.5972,-5.5857,0.0,0.0,-5.5857,-5.5742,-5.5761,-5.5857,-5.5742,-5.5703,-5.5703,-5.5818,-5.5857,-5.5857,-5.5857,-5.5857,-5.5742,-5.4914,-5.4087,-5.3376,-5.3315,-5.3238,-5.3201,-5.3276,-5.3315,-5.3395,-5.351,-5.353,-5.351,-5.3395,-5.3376,-5.3337,-5.3222,-5.3203,-5.2779,-5.1298,-5.026,-4.9144,-4.7682,-4.724,-4.6835,-4.595,-4.5911,-4.5911,-4.568,-4.5605,-4.5586,-4.5586,-4.5701,-4.572,-4.5605,-4.5797,-4.5836,-4.5605,-4.5701,-4.572,-4.5586,-4.5586,-4.5586,-4.5586,-4.5586,-4.5586,-4.5586,-4.5586,-4.5586,-4.5586,-4.5586,-4.5586,-5.851,-5.959,-6.0217,-5.9485,-5.7692,-5.5509,-5.3182,-4.9039,0.0,0.0,0.0,-3.7613,-3.6708,-3.7829,0.0,-4.1788,0.0,0.0,0.0,0.0,-5.5202,0.0,0.0,0.0,0.0,0.0,0.0,0.0,0.0,0.0,-5.9731,-6.029,-6.0569,-6.0569,-6.0012,-5.9446,-5.8892,-5.7428,-5.6472,-5.6088,-5.6356,-5.6484,-5.6517,-5.7436,-5.7453,-5.6761,0.0,0.0,-5.6703,-5.5992,-5.6107,-5.6684,-5.5972,-5.5703,-5.578,-5.6511,-5.6761,-5.6761,-5.6761,-5.6761,-5.6626,-5.5761,-5.4934,-5.4199,-5.3809,-5.3468,-5.3255,-5.3599,-5.3966,-5.4434,-5.5088,-5.5261,-5.5107,-5.4434,-5.426,-5.4087,-5.3356,-5.3203,-5.3106,-5.2818,-5.1606,-5.0568,-5.026,-4.9085,-4.7927,-4.7062,-4.7542,-4.7467,-4.6026,-4.5699,-4.5586,-4.5586,-4.624,-4.6374,-4.5663,-4.6874,-4.7086,-4.5682,-4.6278,-4.6355,-4.5624,-4.5586,-4.5586,-4.5586,-4.5586,-4.5586,-4.5586,-4.5586,-4.5586,-4.5586,-4.5586,-4.5586,-6.0092,-6.1227,-6.1708,-6.022,-5.7899,-5.4972,-5.1129,0.0,0.0,0.0,0.0,-3.5479,-3.4747,0.0,0.0,0.0,0.0,0.0,0.0,0.0,0.0,0.0,0.0,0.0,0.0,0.0,0.0,0.0,0.0,0.0,0.0,-6.069,-6.08,-6.08,-6.0396,-5.9983,-5.9541,-5.846,-5.7711,-5.73,-5.7257,-5.7237,-5.7286,-5.7991,-5.7819,-5.6992,0.0,0.0,-5.628,-5.5857,-5.5953,-5.6319,-5.6357,-5.6376,-5.6472,-5.7357,-5.7684,-5.7607,-5.7146,-5.6992,-5.6857,-5.5972,-5.5434,-5.5085,-5.4852,-5.4978,-5.5124,-5.4852,-5.5285,-5.578,-5.5722,-5.5703,-5.5588,-5.5222,-5.5126,-5.5011,-5.4587,-5.4164,-5.3895,-5.3953,-5.2645,-5.1413,-5.1053,-4.9988,-4.8877,-4.8018,-4.8231,-4.8193,-4.7366,-4.7172,-4.6742,-4.5794,-4.6009,-4.6047,-4.5624,-4.6336,-4.6451,-4.5643,-4.599,-4.6067,-4.5719,-4.5624,-4.5624,-4.5699,-4.5624,-4.5586,-4.5586,-4.5586,-4.5586,-4.5586,-4.5586,-4.5586,-6.0619,-6.2083,-6.2718,-6.0766,-5.7886,-5.429,-4.9603,-4.4771,0.0,0.0,-3.5077,-3.4014,-3.3208,0.0,0.0,0.0,0.0,0.0,0.0,0.0,0.0,0.0,0.0,0.0,0.0,0.0,0.0,0.0,0.0,0.0,0.0,-6.08,-6.08,-6.08,-6.08,-6.0622,-6.0264,-5.9512,-5.8976,-5.8594,-5.828,-5.812,-5.8148,-5.8621,-5.8357,-5.753,0.0,0.0,0.0,-5.6126,-5.6184,-5.6549,-5.6857,-5.7107,-5.7376,-5.8242,-5.8569,-5.8434,-5.7569,-5.7376,-5.7357,-5.6319,-5.5972,-5.5934,-5.5657,-5.6371,-5.7088,-5.6118,-5.6544,-5.7069,-5.6203,-5.5972,-5.5934,-5.5742,-5.5703,-5.5703,-5.5703,-5.5203,-5.478,-5.4897,-5.3686,-5.25,-5.2005,-5.1053,-5.01,-4.925,-4.912,-4.8989,-4.863,-4.8719,-4.8194,-4.6538,-4.6251,-4.6026,-4.5624,-4.5759,-4.5797,-4.5605,-4.5586,-4.5643,-4.5757,-4.5643,-4.5643,-4.5757,-4.5643,-4.5586,-4.5586,-4.5586,-4.5586,-4.5586,-4.5586,-4.5701,-5.8828,-6.0411,-6.1657,-6.03,-5.6459,-5.2141,-4.8686,0.0,0.0,0.0,-3.3643,-3.2494,-3.1835,-3.2287,0.0,0.0,0.0,0.0,0.0,0.0,0.0,0.0,0.0,0.0,0.0,0.0,0.0,0.0,0.0,0.0,0.0,-6.08,-6.08,-6.08,-6.08,-6.08,-6.0734,-6.0234,-5.9989,-5.9911,-5.9893,-5.9855,-5.9903,-6.0367,-6.0089,-5.9261,0.0,0.0,0.0,-5.7511,-5.778,-5.9011,-5.755,-5.7473,-5.828,-5.9088,-5.9396,-5.9281,-5.8454,-5.8665,-5.9011,-5.7396,-5.6876,-5.6659,-5.5511,-5.6573,-5.7905,-5.6677,-5.7224,-5.7973,-5.7107,-5.6876,-5.6665,-5.5876,-5.5703,-5.5703,-5.5703,-5.5645,-5.5588,-5.5607,-5.4975,-5.4483,-5.4544,-5.3264,-5.199,-5.1249,-5.1132,-5.0571,-4.9064,-4.9448,-4.9449,-4.8379,-4.8121,-4.739,-4.5738,-4.6336,-4.6432,-4.5643,-4.5586,-4.5605,-4.5605,-4.5605,-4.5605,-4.5605,-4.5605,-4.5586,-4.5586,-4.5586,-4.5586,-4.5586,-4.5586,-4.6009,-5.7693,-6.0095,-6.1788,-5.9696,-5.6125,-5.1836,-4.695,0.0,0.0,-3.3912,-3.2558,-3.1839,-3.1526,-3.1739,-3.2262,0.0,0.0,0.0,0.0,0.0,0.0,0.0,0.0,0.0,0.0,0.0,0.0,0.0,0.0,0.0,0.0,0.0,-6.08,-6.08,-6.08,-6.08,-6.08,-6.0622,-6.0508,-6.0508,-6.0508,-6.0508,-6.0527,-6.0714,-6.0319,-5.9492,0.0,0.0,0.0,-5.8069,-5.8184,-5.8761,-5.8569,-5.8723,-5.9127,-5.9973,-6.0281,-6.0165,-5.9319,-5.9242,-5.9319,-5.8165,-5.8107,-5.8219,-5.6702,-5.7209,-5.8085,-5.7047,-5.7843,-5.8704,-5.7338,-5.6607,-5.6126,-5.578,-5.5703,-5.5703,-5.5703,-5.5703,-5.5722,-5.5799,-5.521,-5.4727,-5.4875,-5.3494,-5.2303,-5.2089,-5.1621,-5.1073,-5.0487,-5.0577,-5.035,-4.9391,-4.8677,-4.7776,-4.649,-4.6701,-4.6528,-4.5663,-4.5586,-4.5624,-4.5719,-4.5624,-4.5624,-4.5719,-4.5624,-4.5586,-4.5586,-4.5586,-4.5874,-4.6374,-4.6374,-4.6836,-5.504,-5.7449,-5.9072,-5.6939,-5.3647,-4.9584,0.0,0.0,0.0,-3.2825,-3.1854,-3.1482,-3.1482,-3.1482,-3.183,-3.2796,0.0,-3.233,0.0,0.0,0.0,0.0,0.0,0.0,0.0,0.0,0.0,0.0,0.0,0.0,0.0,0.0,-6.0035,-6.0781,-6.08,-6.08,-6.08,-6.08,-6.08,-6.08,-6.08,-6.08,-6.08,-6.08,-6.0473,0.0,0.0,0.0,0.0,-5.8761,-5.8819,-5.9069,-5.9377,-5.9665,-5.9954,-6.0569,-6.08,-6.0685,-5.98,-5.9665,-5.9742,-5.8915,-5.905,-5.9281,-5.8088,-5.8165,-5.8473,-5.7607,-5.8415,-5.9223,-5.805,-5.7107,-5.6395,-5.6145,-5.6069,-5.6011,-5.5761,-5.5703,-5.5722,-5.5818,-5.5395,-5.5028,-5.5162,-5.3984,-5.2974,-5.2844,-5.2308,-5.1756,-5.1369,-5.1442,-5.1157,-5.0235,-4.9489,-4.847,-4.7028,-4.6913,-4.6644,-4.6009,-4.574,-4.5759,-4.6105,-4.5778,-4.5624,-4.5738,-4.5643,-4.5586,-4.5586,-4.5855,-4.6297,-4.6913,-4.7144,-4.7702,-5.0323,-5.151,-5.2268,-5.125,-4.8052,-4.4343,0.0,0.0,0.0,-3.1944,-3.1482,-3.1482,-3.1482,-3.1482,-3.1622,-3.206,-3.2644,-3.3516,-3.4852,0.0,0.0,0.0,0.0,0.0,0.0,0.0,0.0,0.0,0.0,0.0,0.0,0.0,-5.8193,-6.0719,-6.08,-6.08,-6.08,-6.08,-6.08,-6.08,-6.08,-6.08,-6.08,-6.08,0.0,0.0,0.0,0.0,0.0,-5.9838,-5.9992,-6.0685,-5.9838,-6.0031,-6.0781,-6.08,-6.08,-6.0685,-5.98,-6.0069,-6.0646,-5.9762,-5.9492,-5.9492,-5.9473,-5.9473,-5.9319,-5.8511,-5.8877,-5.9492,-5.9473,-5.8877,-5.8069,-5.7184,-5.6973,-5.6742,-5.5876,-5.5703,-5.5703,-5.5703,-5.5703,-5.5722,-5.5857,-5.5222,-5.4435,-5.3706,-5.3582,-5.2971,-5.1327,-5.1794,-5.1935,-5.099,-5.0875,-4.9779,-4.7124,-4.6913,-4.6913,-4.6894,-4.6086,-4.599,-4.6855,-4.6067,-4.5586,-4.5586,-4.5586,-4.5586,-4.5586,-4.6471,-4.6894,-4.6932,-4.7721,-4.8548,-4.6109,-4.7803,-4.9114,-4.7438,-4.5602,-4.3231,-3.9528,0.0,-3.4498,-3.2034,-3.1482,-3.1482,-3.1482,-3.115,-3.1268,-3.2685,-3.2643,-3.3206,0.0,0.0,0.0,0.0,0.0,0.0,0.0,0.0,0.0,0.0,0.0,0.0,0.0,0.0,0.0,-5.9431,-5.9187,-5.9588,-6.0781,-6.0482,-6.0482,-6.08,-6.08,-6.08,-6.08,-6.08,0.0,0.0,0.0,0.0,0.0,-6.0492,-6.055,-6.0762,-6.0492,-6.0185,-5.9973,-6.0569,-6.0416,-5.9954,-6.0281,-6.0569,-6.0742,-6.0473,-6.0396,-6.0281,-5.9685,-5.9492,-5.9569,-5.9915,-5.9762,-5.9492,-5.9492,-5.8896,-5.8088,-5.7203,-5.6992,-5.6761,-5.5876,-5.5703,-5.5703,-5.5703,-5.5703,-5.5703,-5.5761,-5.5107,-5.453,-5.4357,-5.384,-5.3295,-5.2873,-5.2445,-5.2045,-5.1741,-5.1144,-5.0183,-4.8721,-4.8606,-4.8355,-4.7759,-4.6951,-4.6605,-4.6894,-4.6067,-4.5586,-4.5586,-4.6182,-4.6201,-4.5586,-4.7028,-4.8029,-4.8625,-4.9471,-5.001,0.0,-4.3182,-4.3935,-4.2423,-4.1427,0.0,0.0,0.0,-3.3902,-3.2246,-3.191,-3.1819,-3.1576,-3.1528,-3.1753,-3.2674,-3.2545,-3.3076,0.0,0.0,0.0,0.0,0.0,0.0,0.0,0.0,0.0,0.0,0.0,0.0,0.0,0.0,0.0,-5.787,-5.781,-5.8401,-5.9805,-5.952,-5.9672,-6.0264,-6.0437,-6.0553,-6.0553,0.0,0.0,0.0,0.0,0.0,0.0,-6.08,-6.08,-6.08,-6.08,-6.0262,-5.9608,-6.0473,-6.0242,-5.9627,-6.0492,-6.08,-6.08,-6.08,-6.08,-6.0704,-6.0165,-5.9762,-5.9608,-6.0165,-6.0165,-5.9992,-5.9992,-5.9377,-5.8627,-5.8069,-5.7703,-5.7242,-5.6376,-5.6453,-5.6492,-5.5818,-5.6222,-5.6472,-5.5799,-5.5549,-5.5261,-5.4701,-5.4414,-5.4068,-5.3507,-5.3182,-5.276,-5.2087,-5.151,-5.0818,-4.9952,-4.9586,-4.9317,-4.9086,-4.799,-4.7644,-4.8317,-4.7182,-4.6528,-4.6528,-4.7086,-4.7086,-4.6547,-4.7913,-4.9048,-4.9894,-5.0452,-5.0721,0.0,0.0,0.0,0.0,0.0,0.0,0.0,0.0,0.0,-3.2521,-3.2477,-3.2276,-3.1712,-3.2412,-3.2845,-3.2253,-3.2529,-3.3301,0.0,0.0,0.0,0.0,0.0,0.0,0.0,0.0,0.0,0.0,0.0,0.0,0.0,0.0,0.0,0.0,-5.6587,-5.7295,-5.8291,-5.8201,-5.8578,-5.9408,-5.9885,-6.0103,-6.0132,0.0,0.0,0.0,0.0,0.0,0.0,-6.08,-6.08,-6.08,-6.08,-6.0262,-5.9608,-6.0473,-6.0242,-5.9627,-6.0492,-6.08,-6.08,-6.08,-6.08,-6.08,-6.08,-6.0223,-5.9588,-5.9588,-6.0127,-6.0704,-6.0704,-6.0069,-5.9415,-5.9415,-5.8838,-5.8088,-5.7261,-5.7723,-5.7819,-5.6203,-5.7184,-5.78,-5.6165,-5.6549,-5.653,-5.4914,-5.5299,-5.5203,-5.3587,-5.403,-5.3876,-5.226,-5.2029,-5.1664,-5.0837,-4.999,-4.9856,-5.0721,-4.9202,-4.9048,-5.0721,-4.9183,-4.8259,-4.8202,-4.8125,-4.8163,-4.8298,-4.9048,-4.9856,-5.0702,-5.0702,-5.076,-3.3255,0.0,-3.4359,-3.3713,0.0,0.0,0.0,0.0,-3.1569,-3.1745,0.0,0.0,-3.1414,-3.205,-3.2496,-3.2462,-3.3815,-3.538,0.0,0.0,0.0,0.0,0.0,0.0,0.0,0.0,0.0,0.0,0.0,0.0,0.0,0.0,0.0,0.0,-5.494,-5.6329,-5.9087,-5.8147,-5.824,-5.9408,-5.9885,-6.0103,-6.0132,0.0,0.0,0.0,0.0,0.0,-6.08,-6.08,-6.08,-6.08,-6.08,-6.0262,-5.9608,-6.0473,-6.0242,-5.9627,-6.0492,-6.08,-6.08,-6.08,-6.08,-6.08,-6.08,-6.0666,-6.0492,-6.0492,-6.0165,-5.9819,-5.9819,-5.9204,-5.8588,-5.8588,-5.8434,-5.8242,-5.805,-5.8165,-5.8184,-5.778,-5.803,-5.8165,-5.7761,-5.7857,-5.7627,-5.6569,-5.6569,-5.6299,-5.5241,-5.4741,-5.4337,-5.3933,-5.3299,-5.2549,-5.1702,-5.0875,-5.0741,-5.1568,-5.0664,-5.0548,-5.1587,-5.0625,-4.9779,-4.9106,-4.8432,-4.8759,-5.0087,-4.9625,-4.9856,-5.0702,-5.0702,-5.076,-3.123,-3.1411,-3.1943,-3.1589,-3.1955,-3.2387,-3.208,0.0,0.0,0.0,0.0,0.0,0.0,0.0,0.0,-3.3616,-3.4729,0.0,0.0,0.0,0.0,0.0,0.0,0.0,0.0,0.0,0.0,0.0,0.0,0.0,0.0,0.0,0.0,0.0,0.0,-5.5987,-5.8196,-5.7542,-5.7728,-5.8756,-5.9212,-5.9578,-5.9773,0.0,0.0,0.0,0.0,0.0,-6.08,-6.08,-6.08,-6.08,-6.08,-6.0262,-5.9608,-6.0473,-6.0242,-5.9627,-6.0492,-6.08,-6.08,-6.08,-6.08,-6.08,-6.08,-6.08,-6.08,-6.08,-6.0454,-6.0108,-6.0108,-5.9473,-5.8954,-5.9358,-5.9146,-5.8858,-5.8858,-5.9165,-5.9223,-5.8454,-5.8973,-5.9281,-5.8534,-5.8761,-5.8646,-5.728,-5.7091,-5.6744,-5.5818,-5.5318,-5.4914,-5.453,-5.4087,-5.328,-5.201,-5.151,-5.1606,-5.2452,-5.1722,-5.1798,-5.3049,-5.2299,-5.1433,-5.0567,-5.0087,-5.0125,-5.0702,-5.0221,-5.024,-5.0702,-5.0702,-5.0818,-3.0542,-3.0015,-2.999,-3.023,-3.0698,-3.1203,-3.1429,0.0,0.0,0.0,0.0,0.0,0.0,0.0,0.0,0.0,0.0,0.0,0.0,0.0,0.0,0.0,0.0,0.0,0.0,0.0,0.0,0.0,0.0,0.0,0.0,0.0,0.0,0.0,0.0,0.0,-5.6804,-5.6804,-5.7207,-5.7997,-5.8503,-5.8951,-5.9443,-5.9885,0.0,0.0,0.0,0.0,-6.08,-6.08,-6.08,-6.08,-6.08,-6.0339,-5.9781,-6.0531,-6.0319,-5.98,-6.0531,-6.08,-6.08,-6.08,-6.08,-6.08,-6.08,-6.08,-6.08,-6.08,-6.0704,-6.0589,-6.0589,-5.9954,-5.9531,-6.0396,-6.0031,-5.955,-5.9665,-6.0281,-6.0396,-5.8973,-5.9954,-6.0558,-5.9183,-5.9509,-5.941,-5.7697,-5.7308,-5.6821,-5.5857,-5.5703,-5.5434,-5.4761,-5.4684,-5.3991,-5.2279,-5.2145,-5.2452,-5.3223,-5.2529,-5.2876,-5.4607,-5.3857,-5.3049,-5.2318,-5.2049,-5.1568,-5.0875,-5.0875,-5.0818,-5.0702,-5.0837,-5.0991,-2.9868,-2.8816,-2.8643,-2.9869,-3.0528,-3.096,-3.1322,0.0,0.0,0.0,0.0,0.0,0.0,0.0,0.0,0.0,0.0,0.0,0.0,0.0,0.0,0.0,0.0,0.0,0.0,0.0,0.0,0.0,0.0,0.0,0.0,0.0,0.0,0.0,0.0,-5.5299,-5.6804,-5.6804,-5.7207,-5.7997,-5.8503,-5.8951,-5.9443,-5.9885,-6.0338,0.0,0.0,-6.08,-6.08,-6.08,-6.08,-6.08,-6.08,-6.0723,-6.0608,-6.0742,-6.0723,-6.0608,-6.0742,-6.08,-6.08,-6.08,-6.08,-6.08,-6.08,-6.08,-6.08,-6.08,-6.0262,-5.9704,-5.9704,-5.9088,-5.8684,-5.9511,-5.9608,-5.9704,-6.0435,-6.0704,-6.0762,-6.0608,-6.08,-6.0957,-6.0886,-6.0384,-5.9646,-5.8622,-5.7755,-5.6876,-5.5972,-5.5761,-5.5645,-5.553,-5.5511,-5.4876,-5.3297,-5.3163,-5.3281,-5.3533,-5.3184,-5.376,-5.5453,-5.4722,-5.4241,-5.4107,-5.2664,-5.1856,-5.1722,-5.1722,-5.1375,-5.0721,-5.151,-5.1587,-3.0763,-2.9683,-2.9254,-2.9963,-3.0212,-3.0503,-3.1294,0.0,0.0,0.0,0.0,0.0,0.0,0.0,0.0,0.0,0.0,0.0,0.0,0.0,0.0,0.0,0.0,0.0,0.0,0.0,0.0,0.0,0.0,0.0,0.0,0.0,0.0,0.0,0.0,0.0,-5.6143,-5.6143,-5.6565,-5.7354,-5.7854,-5.8521,-5.9443,-5.9885,-6.0338,-6.08,0.0,-6.08,-6.08,-6.08,-6.08,-6.08,-6.08,-6.08,-6.08,-6.08,-6.08,-6.08,-6.08,-6.08,-6.08,-6.08,-6.08,-6.08,-6.08,-6.08,-6.08,-6.08,-6.0512,-6.0204,-6.0204,-5.9935,-5.9742,-6.0108,-6.0204,-6.03,-6.0704,-6.0858,-6.0916,-6.0973,-6.1151,-6.1318,-6.1388,-6.1137,-6.0436,-5.9012,-5.8418,-5.7567,-5.6076,-5.5838,-5.578,-5.5703,-5.5761,-5.5338,-5.4184,-5.4162,-5.4,-5.3514,-5.4223,-5.4972,-5.5665,-5.5338,-5.4934,-5.4511,-5.3703,-5.3068,-5.2606,-5.2606,-5.2452,-5.2165,-5.2529,-5.2646,-3.2028,-3.0968,-3.0276,-3.0412,0.0,-3.0894,-3.1901,0.0,0.0,0.0,0.0,0.0,0.0,0.0,0.0,0.0,0.0,0.0,0.0,0.0,0.0,0.0,0.0,0.0,0.0,0.0,0.0,0.0,0.0,0.0,0.0,0.0,0.0,0.0,0.0,0.0,-5.5317,-5.5115,-5.5629,-5.6804,-5.7297,-5.8165,-5.9443,-5.9885,-6.0338,-6.08,-6.08,-6.08,-6.08,-6.08,-6.08,-6.08,-6.08,-6.08,-6.08,-6.08,-6.08,-6.08,-6.08,-6.08,-6.08,-6.08,-6.08,-6.08,-6.08,-6.08,-6.08,-6.08,-6.08,-6.08,-6.08,-6.08,-6.08,-6.08,-6.08,-6.08,-6.08,-6.0877,-6.0981,-6.1055,-6.129,-6.1466,-6.1542,-6.1456,-6.0918,-5.9473,-5.9043,-5.8265,-5.6476,-5.6231,-5.6071,-5.5742,-5.5818,-5.5609,-5.4858,-5.4915,-5.466,-5.3853,-5.494,-5.5667,-5.5742,-5.5722,-5.5415,-5.478,-5.4607,-5.4164,-5.351,-5.351,-5.3473,-5.3397,-5.3514,-5.3629,-3.3287,-3.1926,-3.0959,-3.1461,-3.2164,0.0,-3.3876,-3.638,0.0,0.0,0.0,0.0,0.0,0.0,0.0,0.0,0.0,0.0,0.0,0.0,0.0,0.0,0.0,0.0,0.0,0.0,0.0,0.0,0.0,0.0,0.0,0.0,0.0,0.0,0.0,0.0,-5.4473,-5.3757,-5.4546,-5.6804,-5.7297,-5.8165,-5.9443,-5.9885,-6.0338,-6.08,-6.08,-6.08,-6.08,-6.08,-6.08,-6.08,-6.08,-6.08,-6.08,-6.08,-6.08,-6.08,-6.08,-6.08,-6.08,-6.08,-6.08,-6.08,-6.08,-6.08,-6.08,-6.08,-6.08,-6.08,-6.08,-6.08,-6.08,-6.08,-6.08,-6.08,-6.08,-6.08,-6.0899,-6.1225,-6.1292,-6.1383,-6.1645,-6.1014,-6.0449,-6.0312,-5.9492,-5.8502,-5.7439,-5.719,-5.6766,-5.5799,-5.5818,-5.5684,-5.5126,-5.5201,-5.52,-5.4985,-5.4854,-5.5128,-5.5857,-5.5761,-5.5665,-5.5607,-5.4876,-5.4472,-5.4414,-5.4414,-5.407,-5.3416,-5.423,-5.4307,-3.4806,-3.4705,-3.4638,-3.3583,-3.4957,0.0,0.0,0.0,0.0,0.0,0.0,0.0,0.0,0.0,0.0,0.0,0.0,0.0,0.0,0.0,0.0,0.0,0.0,0.0,0.0,0.0,0.0,0.0,0.0,0.0,0.0,0.0,0.0,0.0,0.0,0.0,0.0,-5.3732,-5.4667,-5.6836,-5.7095,-5.8106,-5.9855,-6.0311,-6.0622,-6.08,-6.08,-6.08,-6.08,-6.08,-6.08,-6.08,-6.08,-6.08,-6.08,-6.08,-6.08,-6.08,-6.08,-6.08,-6.08,-6.08,-6.08,-6.08,-6.08,-6.08,-6.08,-6.08,-6.08,-6.08,-6.08,-6.08,-6.08,-6.08,-6.08,-6.08,-6.08,-6.0858,-6.0946,-6.108,-6.1273,-6.1463,-6.1562,-6.1367,-6.1015,-6.0488,-6.0078,-5.946,-5.8451,-5.8298,-5.8077,-5.7634,-5.7692,-5.7521,-5.6883,-5.7387,-5.7239,-5.6107,-5.5793,-5.5717,-5.5878,-5.5761,-5.5953,-5.6492,-5.6203,-5.6319,-5.6857,-5.6857,-5.6763,-5.6592,-5.683,-5.6656,-3.5936,-3.5915,-3.5887,0.0,0.0,0.0,0.0,0.0,0.0,0.0,0.0,0.0,0.0,0.0,0.0,0.0,0.0,0.0,0.0,0.0,0.0,0.0,0.0,0.0,0.0,0.0,0.0,0.0,0.0,0.0,0.0,0.0,0.0,0.0,0.0,0.0,0.0,-5.4013,-5.4931,-5.6734,-5.703,-5.8209,-6.0132,-6.0578,-6.08,-6.08,-6.08,-6.08,-6.08,-6.08,-6.08,-6.08,-6.08,-6.08,-6.08,-6.08,-6.08,-6.08,-6.08,-6.08,-6.08,-6.08,-6.08,-6.08,-6.08,-6.08,-6.08,-6.08,-6.08,-6.08,-6.08,-6.08,-6.08,-6.08,-6.08,-6.08,-6.08,-6.0858,-6.0935,-6.0973,-6.1196,-6.1348,-6.1436,-6.1557,-6.1426,-6.084,-6.0781,-6.0448,-5.9432,-5.931,-5.9167,-5.8794,-5.885,-5.8754,-5.8337,-5.8867,-5.8663,-5.7407,-5.7108,-5.68,-5.6398,-5.6203,-5.6511,-5.7376,-5.7396,-5.7703,-5.83,-5.83,-5.8357,-5.8495,-5.8357,-5.8184,-3.657,-3.5133,-3.3933,0.0,0.0,0.0,0.0,0.0,0.0,0.0,0.0,0.0,0.0,0.0,0.0,0.0,0.0,0.0,0.0,0.0,0.0,0.0,0.0,0.0,0.0,0.0,0.0,0.0,0.0,0.0,0.0,0.0,0.0,0.0,0.0,0.0,0.0,-5.4503,-5.5136,-5.6412,-5.7213,-5.8472,-6.0113,-6.0578,-6.08,-6.0781,-6.08,-6.08,-6.08,-6.08,-6.08,-6.08,-6.08,-6.08,-6.08,-6.08,-6.08,-6.08,-6.08,-6.08,-6.08,-6.08,-6.08,-6.08,-6.08,-6.08,-6.08,-6.08,-6.08,-6.08,-6.08,-6.08,-6.08,-6.08,-6.08,-6.08,-6.08,-6.08,-6.0839,-6.0954,-6.0993,-6.1076,-6.1266,-6.1417,-6.1504,-6.1504,-6.1601,-6.1348,-6.0332,-6.0204,-5.9879,-5.903,-5.8929,-5.8987,-5.9197,-5.9219,-5.9137,-5.8918,-5.8781,-5.8323,-5.7453,-5.7165,-5.7415,-5.83,-5.8319,-5.8319,-5.8319,-5.8319,-5.8396,-5.8508,-5.8396,-5.8546,-3.801,-3.7794,0.0,0.0,0.0,0.0,0.0,0.0,0.0,0.0,0.0,0.0,0.0,0.0,0.0,0.0,0.0,0.0,0.0,0.0,0.0,0.0,0.0,0.0,0.0,0.0,0.0,0.0,0.0,0.0,0.0,0.0,0.0,0.0,0.0,0.0,0.0,0.0,-5.5553,-5.6821,-5.7047,-5.7757,-5.8889,-6.0195,-6.0473,-5.9915,-6.0531,-6.08,-6.08,-6.08,-6.08,-6.08,-6.08,-6.08,-6.08,-6.08,-6.08,-6.08,-6.08,-6.08,-6.08,-6.08,-6.08,-6.08,-6.08,-6.08,-6.08,-6.08,-6.08,-6.08,-6.08,-6.08,-6.08,-6.08,-6.08,-6.08,-6.08,-6.08,-6.08,-6.0839,-6.0935,-6.1023,-6.1079,-6.125,-6.1389,-6.1498,-6.1523,-6.1484,-6.1289,-6.1264,-6.1163,-6.0893,-6.0867,-6.0646,-6.0097,-6.0526,-6.0267,-5.8989,-5.926,-5.9088,-5.82,-5.8011,-5.83,-5.9127,-5.9146,-5.9454,-6.005,-6.005,-6.0089,-6.0127,-6.0165,-6.0012,-3.7423,0.0,0.0,0.0,0.0,0.0,0.0,0.0,0.0,0.0,0.0,0.0,0.0,0.0,0.0,0.0,0.0,0.0,0.0,0.0,0.0,0.0,0.0,0.0,0.0,0.0,0.0,0.0,0.0,0.0,0.0,0.0,0.0,0.0,0.0,0.0,0.0,0.0,0.0,-5.6472,-5.6472,-5.6761,-5.7319,-5.9031,-5.9511,-5.905,-5.9588,-5.9992,-6.0281,-6.0281,-6.0492,-6.08,-6.08,-6.08,-6.08,-6.08,-6.08,-6.08,-6.08,-6.08,-6.08,-6.08,-6.08,-6.08,-6.08,-6.08,-6.0858,-6.1223,-6.1069,-6.0877,-6.1223,-6.105,-6.08,-6.08,-6.08,-6.08,-6.08,-6.08,-6.08,-6.08,-6.0858,-6.0935,-6.0973,-6.117,-6.135,-6.1489,-6.1553,-6.1601,-6.1699,-6.1699,-6.1699,-6.1699,-6.1699,-6.1484,-6.0957,-6.1289,-6.1166,-6.0368,-6.0627,-6.0666,-6.0435,-5.9358,-5.9165,-5.9992,-6.0012,-6.0262,-6.08,-6.08,-6.0819,-6.0858,-6.0608,-6.0531,0.0,0.0,0.0,0.0,0.0,0.0,0.0,0.0,0.0,0.0,0.0,0.0,0.0,0.0,0.0,0.0,0.0,0.0,0.0,0.0,0.0,0.0,0.0,0.0,0.0,0.0,0.0,0.0,0.0,0.0,0.0,0.0,0.0,0.0,0.0,0.0,0.0,0.0,0.0,0.0,-5.5588,-5.5626,-5.5761,-5.7511,-5.83,-5.83,-5.83,-5.8761,-5.9492,-5.9492,-6.0012,-6.08,-6.08,-6.08,-6.08,-6.08,-6.08,-6.08,-6.08,-6.08,-6.08,-6.08,-6.08,-6.08,-6.08,-6.08,-6.0973,-6.1762,-6.1396,-6.0973,-6.1781,-6.1377,-6.08,-6.08,-6.08,-6.08,-6.08,-6.08,-6.08,-6.08,-6.08,-6.0858,-6.0973,-6.1177,-6.1354,-6.1478,-6.1607,-6.1699,-6.1699,-6.1699,-6.1699,-6.1699,-6.1699,-6.1738,-6.179,-6.1662,-6.189,-6.2565,-6.2449,-6.2666,-6.3281,-6.1089,-6.0223,-6.1012,-6.1031,-6.0993,-6.0935,-6.0935,-6.0973,-6.0993,-6.0142,-6.0339,0.0,0.0,0.0,0.0,0.0,0.0,0.0,0.0,0.0,0.0,0.0,0.0,0.0,0.0,0.0,0.0,0.0,0.0,0.0,0.0,0.0,0.0,0.0,0.0,0.0,0.0,0.0,0.0,0.0,0.0,0.0,0.0,0.0,0.0,0.0,0.0,-5.3741,-5.3568,-5.3914,0.0,-5.4761,-5.5088,-5.5761,-5.7511,-5.83,-5.83,-5.83,-5.8761,-5.9492,-5.9492,-6.0012,-6.08,-6.08,-6.08,-6.08,-6.08,-6.08,-6.08,-6.08,-6.08,-6.08,-6.08,-6.08,-6.08,-6.08,-6.08,-6.0839,-6.1031,-6.0935,-6.0839,-6.1031,-6.0935,-6.08,-6.08,-6.08,-6.08,-6.08,-6.08,-6.08,-6.08,-6.0877,-6.0954,-6.0993,-6.1174,-6.1336,-6.1469,-6.1607,-6.1699,-6.1699,-6.1699,-6.1699,-6.1699,-6.1699,-6.1925,-6.251,-6.2402,-6.2583,-6.3325,-6.3205,-6.3147,-6.3301,-6.2781,-6.257,-6.2762,-6.2762,-6.2512,-6.1973,-6.1973,-6.1723,-6.1228,-6.0454,-6.0219,0.0,0.0,0.0,0.0,0.0,0.0,0.0,0.0,0.0,0.0,0.0,0.0,0.0,0.0,0.0,0.0,0.0,0.0,0.0,0.0,0.0,0.0,0.0,0.0,0.0,0.0,0.0,0.0,0.0,0.0,0.0,0.0,0.0,0.0,0.0,0.0,-5.3203,-5.2799,-5.3029,-5.3876,-5.3876,-5.4511,-5.5722,-5.6646,-5.7069,-5.7069,-5.7069,-5.7761,-5.8934,-5.8934,-5.9665,-6.08,-6.08,-6.08,-6.08,-6.08,-6.08,-6.08,-6.08,-6.08,-6.08,-6.08,-6.08,-6.08,-6.08,-6.08,-6.0877,-6.13,-6.1108,-6.0896,-6.13,-6.1108,-6.08,-6.08,-6.08,-6.08,-6.08,-6.08,-6.0819,-6.0877,-6.1304,-6.167,-6.1824,-6.1997,-6.1997,-6.1651,-6.1652,-6.1699,-6.1699,-6.2051,-6.2324,-6.2324,-6.2648,-6.301,-6.3372,-6.3162,-6.336,-6.4128,-6.4032,-6.4109,-6.4532,-6.4551,-6.4147,-6.332,-6.2993,-6.2647,-6.23,-6.1968,-6.1679,-6.1381,-6.0569,-6.0461,0.0,0.0,0.0,0.0,0.0,0.0,0.0,0.0,0.0,0.0,0.0,0.0,0.0,0.0,0.0,0.0,0.0,0.0,0.0,0.0,0.0,0.0,0.0,0.0,0.0,0.0,0.0,0.0,0.0,0.0,0.0,0.0,0.0,0.0,0.0,-5.2549,-5.2549,-5.1991,-5.2125,-5.2991,-5.328,-5.4222,-5.5703,-5.5703,-5.5703,-5.5703,-5.5703,-5.6607,-5.8088,-5.8242,-5.9204,-6.0589,-6.0742,-6.08,-6.08,-6.08,-6.08,-6.08,-6.08,-6.08,-6.08,-6.08,-6.08,-6.08,-6.08,-6.08,-6.0954,-6.1666,-6.1358,-6.0973,-6.1685,-6.1339,-6.0839,-6.0993,-6.0916,-6.08,-6.08,-6.0916,-6.105,-6.1208,-6.1982,-6.2706,-6.2993,-6.3018,-6.2754,-6.2031,-6.1914,-6.1914,-6.1914,-6.2695,-6.322,-6.3197,-6.374,-6.4135,-6.4212,-6.3968,-6.4141,-6.493,-6.4897,-6.5147,-6.5859,-6.5897,-6.5224,-6.382,-6.3089,-6.2675,-6.2577,-6.1898,-6.1543,-6.1505,-6.0655,-6.0669,0.0,0.0,0.0,0.0,0.0,0.0,0.0,0.0,0.0,0.0,0.0,0.0,0.0,0.0,0.0,0.0,0.0,0.0,0.0,0.0,0.0,0.0,0.0,0.0,0.0,0.0,0.0,0.0,0.0,0.0,0.0,0.0,-4.9856,-4.974,-4.9856,0.0,-4.9913,-5.0529,-5.126,-5.2106,-5.3606,-5.4799,-5.5703,-5.5703,-5.5703,-5.5703,-5.5703,-5.6261,-5.7223,-5.7992,-5.8838,-5.9742,-6.0512,-6.08,-6.08,-6.08,-6.08,-6.08,-6.08,-6.08,-6.08,-6.08,-6.08,-6.08,-6.08,-6.08,-6.0819,-6.0935,-6.0877,-6.0819,-6.0935,-6.0877,-6.0993,-6.1743,-6.1339,-6.08,-6.08,-6.1377,-6.1978,-6.2117,-6.3064,-6.3922,-6.4072,-6.3492,-6.2969,-6.2832,-6.2832,-6.2832,-6.2832,-6.3594,-6.4091,-6.3979,-6.4042,-6.4251,-6.468,-6.468,-6.4949,-6.5705,-6.5743,-6.5782,-6.5897,-6.5897,-6.584,-6.5724,-6.4891,-6.4185,-6.359,-6.2934,-6.2283,-6.1642,-6.0783,-6.0442,-3.4946,0.0,0.0,0.0,0.0,0.0,0.0,0.0,0.0,0.0,0.0,0.0,0.0,0.0,0.0,0.0,0.0,0.0,0.0,0.0,0.0,0.0,0.0,0.0,0.0,0.0,0.0,0.0,0.0,0.0,0.0,-4.8875,-4.8663,-4.8663,-4.8663,0.0,-4.9394,-4.9779,-5.0625,-5.1933,-5.3164,-5.4203,-5.503,-5.5491,-5.5703,-5.5703,-5.5703,-5.6184,-5.703,-5.7415,-5.8338,-5.955,-5.9915,-6.0358,-6.08,-6.08,-6.08,-6.08,-6.08,-6.08,-6.08,-6.08,-6.08,-6.08,-6.08,-6.08,-6.08,-6.08,-6.08,-6.08,-6.08,-6.08,-6.0896,-6.1281,-6.1435,-6.1377,-6.0916,-6.1089,-6.1723,-6.2913,-6.4033,-6.4837,-6.4997,-6.4707,-6.4297,-6.3808,-6.373,-6.373,-6.373,-6.4492,-6.4951,-6.4783,-6.5141,-6.5436,-6.5532,-6.5474,-6.5763,-6.6513,-6.6571,-6.6571,-6.6571,-6.6571,-6.6417,-6.6109,-6.5333,-6.4629,-6.398,-6.3254,-6.2492,-6.1699,-6.1308,-6.1133,0.0,0.0,0.0,0.0,0.0,0.0,0.0,0.0,0.0,0.0,0.0,0.0,0.0,0.0,0.0,0.0,0.0,0.0,0.0,0.0,0.0,0.0,0.0,0.0,0.0,0.0,0.0,0.0,0.0,0.0,-4.8086,-4.7913,-4.7798,-4.7798,-4.7798,-4.8105,-4.8759,-4.9183,-5.024,-5.1914,-5.2779,-5.3664,-5.453,-5.5318,-5.5703,-5.5703,-5.5703,-5.6069,-5.6684,-5.6896,-5.7742,-5.8915,-5.9338,-5.9896,-6.0492,-6.0723,-6.08,-6.08,-6.08,-6.08,-6.08,-6.08,-6.08,-6.08,-6.08,-6.08,-6.08,-6.08,-6.08,-6.08,-6.08,-6.08,-6.0916,-6.1339,-6.1608,-6.1647,-6.1223,-6.1146,-6.169,-6.3421,-6.4567,-6.5381,-6.5781,-6.5664,-6.5312,-6.4726,-6.4629,-6.4629,-6.4629,-6.5349,-6.5786,-6.5601,-6.6015,-6.6269,-6.6051,-6.6128,-6.6455,-6.7051,-6.7301,-6.7436,-6.7436,-6.7475,-6.7289,-6.6808,-6.6147,-6.5237,-6.4097,-6.3366,-6.2558,-6.1719,-6.1933,-6.2031,0.0,-3.4881,0.0,0.0,0.0,0.0,0.0,0.0,0.0,0.0,0.0,0.0,0.0,0.0,0.0,0.0,0.0,0.0,0.0,0.0,0.0,0.0,0.0,0.0,0.0,0.0,0.0,0.0,0.0,0.0,-4.8067,-4.7375,-4.6971,-4.6971,-4.6971,-4.699,-4.7028,-4.8606,-5.024,-5.1914,-5.2779,-5.3664,-5.453,-5.5318,-5.5703,-5.5703,-5.5703,-5.5722,-5.5818,-5.6646,-5.7049,-5.728,-5.8877,-5.9531,-5.9665,-6.0492,-6.08,-6.08,-6.08,-6.08,-6.08,-6.08,-6.08,-6.08,-6.08,-6.08,-6.08,-6.08,-6.08,-6.08,-6.08,-6.08,-6.1204,-6.2801,-6.1993,-6.1069,-6.1858,-6.2132,-6.2502,-6.3445,-6.442,-6.5426,-6.6384,-6.5859,-6.5351,-6.5508,-6.5527,-6.5527,-6.5527,-6.6139,-6.649,-6.6373,-6.6204,-6.6051,-6.5917,-6.659,-6.7051,-6.709,-6.7878,-6.834,-6.834,-6.852,-6.8662,-6.8745,-6.8109,-6.6558,-6.4097,-6.3366,-6.2558,-6.1719,-6.2558,-6.293,-3.2876,0.0,0.0,0.0,0.0,0.0,0.0,0.0,0.0,0.0,0.0,0.0,0.0,0.0,0.0,0.0,0.0,0.0,0.0,0.0,0.0,0.0,0.0,0.0,0.0,0.0,0.0,0.0,0.0,0.0,-4.6471,-4.622,-4.6067,-4.6067,-4.6067,-4.6586,-4.7663,-4.8817,-4.9971,-5.1144,-5.1972,-5.2529,-5.2856,-5.3703,-5.4107,-5.4107,-5.4107,-5.4703,-5.5722,-5.603,-5.6492,-5.7049,-5.7646,-5.8242,-5.8838,-5.9665,-5.9973,-6.005,-6.0608,-6.08,-6.08,-6.08,-6.08,-6.08,-6.08,-6.08,-6.08,-6.08,-6.08,-6.08,-6.08,-6.08,-6.0954,-6.155,-6.1243,-6.0877,-6.1204,-6.1747,-6.2286,-6.269,-6.393,-6.5044,-6.5555,-6.5913,-6.6152,-6.623,-6.6348,-6.6426,-6.6426,-6.6634,-6.6723,-6.6534,-6.6954,-6.7218,-6.7083,-6.7712,-6.8347,-6.8867,-6.9109,-6.9225,-6.9225,-6.9302,-6.9147,-6.8722,-6.8044,-6.7117,-6.5903,-6.5062,-6.4219,-6.3379,-6.3691,-6.3828,-3.2445,-3.3009,0.0,0.0,0.0,0.0,0.0,0.0,0.0,0.0,0.0,0.0,0.0,0.0,0.0,0.0,0.0,0.0,0.0,0.0,0.0,0.0,0.0,0.0,0.0,0.0,0.0,0.0,0.0,0.0,-4.5182,-4.5432,-4.5586,-4.5586,-4.5586,-4.6278,-4.7682,-4.8548,-4.9394,-5.0279,-5.1375,-5.1914,-5.1933,-5.2799,-5.3203,-5.3203,-5.3203,-5.3991,-5.5299,-5.5299,-5.5799,-5.6588,-5.6876,-5.753,-5.8396,-5.9204,-5.9685,-6.0012,-6.0589,-6.08,-6.08,-6.08,-6.08,-6.08,-6.08,-6.08,-6.08,-6.08,-6.08,-6.08,-6.08,-6.1012,-6.1146,-6.0858,-6.1012,-6.1146,-6.0858,-6.1243,-6.1786,-6.2151,-6.3128,-6.4122,-6.4872,-6.5549,-6.6122,-6.6541,-6.6719,-6.6816,-6.6894,-6.6836,-6.6863,-6.7017,-6.7503,-6.7905,-6.8079,-6.8709,-6.9331,-6.9867,-7.0033,-7.011,-7.011,-7.0167,-6.9976,-6.9475,-6.8528,-6.7885,-6.757,-6.6247,-6.5137,-6.4238,-6.457,-6.457,0.0,0.0,0.0,0.0,0.0,0.0,0.0,0.0,0.0,0.0,0.0,0.0,0.0,0.0,0.0,0.0,0.0,0.0,0.0,0.0,0.0,0.0,0.0,0.0,0.0,0.0,0.0,0.0,0.0,-4.5182,-4.4355,-4.5124,-4.5586,-4.5586,-4.5586,-4.6009,-4.6894,-4.7682,-4.8509,-4.9375,-5.101,-5.1798,-5.1837,-5.2664,-5.3049,-5.3049,-5.3087,-5.3587,-5.4395,-5.4472,-5.4972,-5.578,-5.6626,-5.7492,-5.8357,-5.9165,-6.0012,-6.0762,-6.0781,-6.08,-6.08,-6.08,-6.08,-6.08,-6.08,-6.08,-6.08,-6.08,-6.08,-6.08,-6.08,-6.1416,-6.1839,-6.0993,-6.1435,-6.182,-6.0973,-6.08,-6.105,-6.1897,-6.2089,-6.2666,-6.4411,-6.4776,-6.5219,-6.639,-6.6582,-6.668,-6.6875,-6.6738,-6.6933,-6.7812,-6.7805,-6.8086,-6.8877,-6.9554,-6.9943,-6.9951,-7.0533,-7.0898,-7.0898,-7.1091,-7.1187,-7.1187,-6.9687,-6.8906,-6.8877,-6.6702,-6.5136,-6.4199,-6.5156,-6.5137,-3.2616,0.0,0.0,0.0,0.0,0.0,0.0,0.0,0.0,0.0,0.0,0.0,0.0,0.0,0.0,0.0,0.0,0.0,0.0,0.0,0.0,0.0,0.0,0.0,0.0,0.0,0.0,0.0,0.0,-4.4547,-4.4316,-4.5124,-4.5586,-4.5586,-4.5586,-4.6009,-4.6894,-4.7124,-4.7663,-4.8471,-4.8933,-4.9163,-4.9163,-4.9394,-4.951,-4.9548,-5.0183,-5.0952,-5.1875,-5.3741,-5.4972,-5.5722,-5.5972,-5.6588,-5.7453,-5.8319,-5.9146,-5.9954,-6.0569,-6.08,-6.08,-6.08,-6.08,-6.08,-6.08,-6.08,-6.08,-6.08,-6.08,-6.08,-6.08,-6.0973,-6.1089,-6.0858,-6.0973,-6.1089,-6.0839,-6.08,-6.0858,-6.1108,-6.1743,-6.2397,-6.2916,-6.4199,-6.5264,-6.5606,-6.6327,-6.6836,-6.6894,-6.6855,-6.7148,-6.8027,-6.8607,-6.9235,-6.9991,-7.0677,-7.0989,-7.0856,-7.0879,-7.0898,-7.0898,-7.0956,-7.0975,-7.0975,-7.011,-6.9303,-6.8687,-6.7077,-6.6178,-6.5898,-6.5703,-6.5137,-3.3636,-3.3671,0.0,0.0,0.0,0.0,0.0,0.0,0.0,0.0,0.0,0.0,0.0,0.0,0.0,0.0,0.0,0.0,0.0,0.0,0.0,0.0,0.0,0.0,0.0,0.0,0.0,0.0,-4.3335,-4.3951,-4.4278,-4.5124,-4.5586,-4.5586,-4.5586,-4.5836,-4.6355,-4.6721,-4.7144,-4.7605,-4.7952,-4.8105,-4.8105,-4.8105,-4.8105,-4.8125,-4.8702,-4.9644,-5.0894,-5.2414,-5.3876,-5.5222,-5.5568,-5.6222,-5.7107,-5.7973,-5.8819,-5.9627,-6.0492,-6.08,-6.08,-6.08,-6.08,-6.08,-6.08,-6.08,-6.08,-6.08,-6.08,-6.08,-6.08,-6.08,-6.08,-6.08,-6.08,-6.08,-6.08,-6.08,-6.08,-6.08,-6.132,-6.1877,-6.2243,-6.3623,-6.4828,-6.523,-6.6137,-6.6814,-6.6893,-6.6894,-6.7363,-6.8574,-6.9121,-6.9841,-7.0889,-7.1305,-7.141,-7.1195,-7.1341,-7.1283,-7.0918,-7.1245,-7.1302,-7.1033,-6.991,-6.8814,-6.7763,-6.7346,-6.6814,-6.6152,-6.541,-6.459,0.0,-3.4612,0.0,0.0,0.0,0.0,-3.1713,-3.1223,-3.0751,0.0,0.0,0.0,0.0,0.0,0.0,0.0,0.0,0.0,0.0,0.0,0.0,0.0,0.0,0.0,0.0,0.0,0.0,-4.1566,-4.2412,-4.3355,-4.4239,-4.5028,-4.549,-4.5586,-4.5586,-4.5586,-4.5586,-4.6374,-4.6759,-4.6759,-4.749,-4.7817,-4.7817,-4.7817,-4.7817,-4.7836,-4.8048,-4.9086,-5.0625,-5.0894,-5.2396,-5.4587,-5.5318,-5.6165,-5.7088,-5.7877,-5.8665,-5.9492,-6.0358,-6.0666,-6.0666,-6.0762,-6.08,-6.08,-6.08,-6.08,-6.08,-6.08,-6.08,-6.08,-6.08,-6.08,-6.08,-6.08,-6.08,-6.08,-6.08,-6.08,-6.08,-6.0819,-6.0935,-6.1266,-6.2066,-6.3033,-6.4053,-6.5039,-6.5939,-6.6586,-6.6869,-6.6894,-6.7539,-6.9219,-6.9394,-7.0024,-7.1535,-7.1645,-7.1533,-7.1302,-7.1879,-7.1879,-7.111,-7.1745,-7.1802,-7.1091,-6.939,-6.7871,-6.659,-6.7295,-6.6872,-6.543,-6.4545,-6.3659,0.0,0.0,0.0,0.0,0.0,0.0,-3.3088,-3.2655,-3.2019,0.0,0.0,0.0,0.0,0.0,0.0,0.0,0.0,0.0,0.0,0.0,0.0,0.0,0.0,0.0,0.0,0.0,-3.9219,-3.9738,-4.12,-4.272,-4.422,-4.4451,-4.4874,-4.5566,-4.5586,-4.5586,-4.5586,-4.5759,-4.5855,-4.5855,-4.6009,-4.6086,-4.6086,-4.6086,-4.6086,-4.6124,-4.6913,-4.7854,-4.8911,-5.0383,-5.2446,-5.4682,-5.4836,-5.5761,-5.7011,-5.7184,-5.78,-5.8646,-5.9473,-5.9742,-5.9877,-6.0569,-6.08,-6.08,-6.08,-6.08,-6.08,-6.08,-6.08,-6.08,-6.08,-6.08,-6.08,-6.08,-6.08,-6.08,-6.08,-6.08,-6.0819,-6.0935,-6.1112,-6.1285,-6.1458,-6.2426,-6.3461,-6.436,-6.5234,-6.6051,-6.6797,-6.6894,-6.7539,-6.9219,-6.9394,-6.9972,-7.1432,-7.2109,-7.2341,-7.2014,-7.2283,-7.2379,-7.2187,-7.1822,-7.1245,-7.039,-6.8844,-6.7568,-6.66,-6.6083,-6.5381,-6.4531,-6.3547,-6.2626,0.0,0.0,0.0,-3.6761,0.0,0.0,0.0,-3.2932,-3.1987,0.0,0.0,0.0,0.0,0.0,0.0,0.0,0.0,0.0,0.0,0.0,0.0,0.0,0.0,0.0,0.0,0.0,-3.8354,-3.9219,-4.0854,-4.2181,-4.3008,-4.3855,-4.4489,-4.4932,-4.5355,-4.5586,-4.5586,-4.5586,-4.5586,-4.5586,-4.5586,-4.5586,-4.5586,-4.5586,-4.5586,-4.5624,-4.6201,-4.6934,-4.7876,-4.934,-5.1139,-5.3088,-5.4323,-5.5259,-5.6049,-5.6898,-5.7475,-5.7956,-5.8726,-5.8992,-5.9146,-5.9896,-6.0146,-6.0223,-6.0666,-6.08,-6.08,-6.08,-6.08,-6.08,-6.08,-6.08,-6.08,-6.08,-6.08,-6.08,-6.08,-6.08,-6.0839,-6.0954,-6.1156,-6.1326,-6.1384,-6.2282,-6.3301,-6.418,-6.5039,-6.5918,-6.6797,-6.7285,-6.8047,-6.9316,-6.9805,-7.0463,-7.1501,-7.2366,-7.2552,-7.189,-7.2745,-7.2868,-7.2033,-7.1685,-7.0718,-6.9075,-6.8394,-6.7368,-6.601,-6.5134,-6.4317,-6.3539,-6.2971,-6.222,0.0,0.0,0.0,0.0,0.0,-3.5362,0.0,0.0,0.0,-3.0198,0.0,0.0,0.0,0.0,0.0,0.0,0.0,0.0,0.0,0.0,0.0,0.0,0.0,0.0,0.0,0.0,-3.7873,-3.8719,-4.0219,-4.1219,-4.1527,-4.2835,-4.372,-4.4066,-4.4893,-4.5336,-4.5336,-4.5509,-4.5586,-4.5586,-4.5586,-4.5586,-4.5586,-4.5586,-4.5605,-4.5643,-4.5815,-4.6409,-4.7329,-4.8435,-4.9734,-5.1237,-5.3533,-5.4629,-5.5056,-5.6425,-5.7004,-5.7294,-5.8027,-5.8293,-5.8415,-5.9127,-5.9358,-5.9531,-6.0377,-6.0646,-6.0685,-6.0839,-6.0858,-6.0839,-6.0839,-6.0819,-6.08,-6.08,-6.0819,-6.0839,-6.0839,-6.0858,-6.0935,-6.105,-6.1232,-6.1352,-6.1492,-6.2181,-6.3105,-6.414,-6.4902,-6.5723,-6.6777,-6.7656,-6.8535,-6.9394,-7.0215,-7.1035,-7.1875,-7.2594,-7.2712,-7.202,-7.3127,-7.3137,-7.1603,-7.1095,-6.9928,-6.7942,-6.773,-6.682,-6.5078,-6.4197,-6.3392,-6.2756,-6.2444,-6.1905,0.0,0.0,0.0,0.0,-3.7455,0.0,0.0,0.0,-3.4915,-3.2937,0.0,0.0,0.0,0.0,0.0,0.0,0.0,0.0,0.0,0.0,0.0,0.0,0.0,0.0,0.0,0.0,0.0,-3.693,-3.7892,-3.9084,-4.0566,-4.0816,-4.1643,-4.3181,-4.4028,-4.4451,-4.4451,-4.5201,-4.5586,-4.5586,-4.5586,-4.5586,-4.5586,-4.5586,-4.5643,-4.5776,-4.5853,-4.6446,-4.7465,-4.8474,-4.945,-5.0485,-5.214,-5.3631,-5.4929,-5.5104,-5.5668,-5.6457,-5.7255,-5.7508,-5.767,-5.8514,-5.8777,-5.8946,-5.9835,-6.0084,-6.0238,-6.1012,-6.1112,-6.0973,-6.0973,-6.0877,-6.08,-6.08,-6.0877,-6.0973,-6.0973,-6.1131,-6.1285,-6.142,-6.1447,-6.1469,-6.1501,-6.1695,-6.2402,-6.4043,-6.4375,-6.5039,-6.6699,-6.7656,-6.8515,-6.9316,-7.0176,-7.1289,-7.2734,-7.294,-7.3196,-7.3682,-7.3345,-7.2669,-7.1706,-6.9682,-6.8362,-6.791,-6.6455,-6.5145,-6.3975,-6.2993,-6.254,-6.2598,-6.1623,-6.1119,0.0,0.0,0.0,0.0,0.0,0.0,0.0,0.0,-3.4934,0.0,0.0,0.0,0.0,0.0,0.0,0.0,0.0,0.0,0.0,0.0,0.0,0.0,0.0,0.0,0.0,0.0,0.0,0.0,0.0,-3.8065,-3.8791,-3.9749,-4.0663,-4.1566,-4.2893,-4.3605,-4.3605,-4.397,-4.4374,-4.4855,-4.4855,-4.5105,-4.5586,-4.568,-4.5757,-4.5815,-4.595,-4.6275,-4.6709,-4.7723,-4.8652,-4.9551,-5.0723,-5.2162,-5.3747,-5.4767,-5.5352,-5.5782,-5.6543,-5.6816,-5.6936,-5.7711,-5.828,-5.8767,-5.9135,-5.9598,-6.0082,-6.0431,-6.0854,-6.1171,-6.1183,-6.1131,-6.1093,-6.1093,-6.1131,-6.1183,-6.1171,-6.1242,-6.1347,-6.1469,-6.1497,-6.1523,-6.1593,-6.1666,-6.2285,-6.4043,-6.4297,-6.4922,-6.668,-6.8066,-6.9023,-6.9355,-7.0625,-7.1719,-7.2363,-7.2873,-7.3075,-7.284,-7.2569,-7.1765,-7.0306,-6.9294,-6.8237,-6.7055,-6.5848,-6.472,-6.3671,-6.275,-6.204,-6.1535,-6.1093,-6.0877,-3.7862,0.0,0.0,0.0,0.0,0.0,0.0,0.0,0.0,0.0,0.0,0.0,0.0,0.0,0.0,0.0,0.0,0.0,0.0,0.0,0.0,0.0,0.0,0.0,0.0,0.0,0.0,0.0,-3.5909,0.0,-3.6824,-3.8461,-3.9602,-4.0044,-4.1802,-4.2739,-4.2739,-4.2989,-4.3393,-4.397,-4.4182,-4.4624,-4.5259,-4.5642,-4.5825,-4.5843,-4.602,-4.6121,-4.6259,-4.7451,-4.832,-4.9004,-5.0098,-5.1269,-5.2539,-5.4023,-5.4883,-5.5371,-5.5918,-5.6247,-5.6547,-5.7014,-5.7611,-5.8167,-5.8401,-5.9092,-5.9832,-6.0047,-6.0709,-6.1354,-6.1345,-6.133,-6.1291,-6.1291,-6.1321,-6.1359,-6.1352,-6.1367,-6.1441,-6.1543,-6.1561,-6.16,-6.1687,-6.1699,-6.2207,-6.3711,-6.414,-6.4844,-6.6348,-6.8027,-6.916,-6.9375,-7.0527,-7.1484,-7.1953,-7.2168,-7.207,-7.168,-7.1607,-7.0869,-6.9258,-6.8924,-6.7992,-6.6345,-6.5462,-6.4633,-6.3864,-6.2767,-6.1863,-6.1146,-6.0916,-6.08,0.0,0.0,0.0,0.0,0.0,0.0,0.0,0.0,-3.5639,0.0,0.0,0.0,0.0,0.0,-3.4846,-3.4288,0.0,0.0,0.0,0.0,0.0,0.0,0.0,0.0,0.0,0.0,0.0,0.0,-3.3979,0.0,-3.4792,-3.6634,-3.8078,-3.8917,-4.0833,-4.1854,-4.1854,-4.2681,-4.3104,-4.3143,-4.3932,-4.4316,-4.4374,-4.5353,-4.5844,-4.5891,-4.6032,-4.6169,-4.6425,-4.8144,-4.8867,-4.9062,-5.0723,-5.1387,-5.1543,-5.2441,-5.3848,-5.5293,-5.5332,-5.5898,-5.6601,-5.6621,-5.664,-5.6816,-5.7676,-5.8535,-5.9394,-6.0176,-6.0918,-6.1484,-6.1484,-6.1394,-6.1285,-6.1285,-6.1405,-6.1478,-6.1482,-6.1604,-6.1698,-6.1698,-6.1687,-6.1697,-6.1707,-6.1699,-6.2012,-6.291,-6.3769,-6.4629,-6.5527,-6.7168,-6.8535,-6.9316,-6.9453,-7.0176,-7.1855,-7.0547,-6.9941,-7.0683,-7.0629,-7.0151,-6.9252,-6.8206,-6.716,-6.614,-6.5249,-6.4749,-6.457,-6.2897,-6.2089,-6.2031,-6.1185,-6.08,0.0,0.0,-3.5457,-3.6454,0.0,0.0,0.0,0.0,0.0,0.0,0.0,0.0,0.0,0.0,-3.5288,-3.5089,-3.4584,-3.3795,0.0,0.0,0.0,0.0,0.0,0.0,0.0,0.0,0.0,-3.1318,-3.2195,-3.3016,0.0,-3.4923,-3.6141,-3.7144,-3.855,-3.9565,-4.0142,-4.0431,-4.1143,-4.2258,-4.3104,-4.3778,-4.4335,-4.5391,-4.5882,-4.5907,-4.6144,-4.6257,-4.6348,-4.6933,-4.7851,-4.8965,-4.9512,-5.043,-5.1504,-5.2383,-5.3437,-5.4609,-5.5762,-5.6348,-5.6601,-5.6601,-5.6601,-5.666,-5.6953,-5.8047,-5.9258,-5.9531,-6.0586,-6.1621,-6.1621,-6.1594,-6.1553,-6.1553,-6.1601,-6.1631,-6.1631,-6.1674,-6.1699,-6.1699,-6.1705,-6.1693,-6.1698,-6.1699,-6.1992,-6.2871,-6.373,-6.4609,-6.5488,-6.7129,-6.8301,-6.8574,-6.9121,-6.9687,-7.0234,-7.0293,-7.0372,-7.0557,-7.0525,-7.0016,-6.8912,-6.7969,-6.6981,-6.5974,-6.5109,-6.4647,-6.4609,-6.3455,-6.2897,-6.2878,-6.205,-6.1339,-3.4896,-3.4785,0.0,0.0,-3.5642,0.0,0.0,0.0,0.0,0.0,0.0,0.0,0.0,0.0,-3.5493,-3.5493,-3.4776,-3.3795,0.0,-3.1275,0.0,0.0,0.0,0.0,0.0,0.0,-3.1558,-3.0375,-3.1399,-3.2247,0.0,0.0,-3.5192,-3.6268,-3.7724,-3.8772,-3.933,-3.9638,-4.0489,-4.1873,-4.272,-4.3528,-4.4335,-4.5411,-4.5902,-4.5916,-4.6175,-4.6308,-4.6328,-4.6621,-4.7617,-4.8926,-4.9238,-5.0195,-5.1465,-5.2031,-5.2988,-5.4258,-5.5996,-5.6601,-5.6601,-5.6601,-5.6601,-5.6601,-5.6601,-5.7812,-5.9199,-5.9199,-6.041,-6.1699,-6.1699,-6.1699,-6.1699,-6.1699,-6.1699,-6.1699,-6.1699,-6.1699,-6.1699,-6.1699,-6.1699,-6.1699,-6.1699,-6.1699,-6.1894,-6.2441,-6.3535,-6.4492,-6.5078,-6.666,-6.7851,-6.8164,-6.8437,-6.8555,-6.8515,-6.923,-6.9667,-6.9592,-6.9765,-6.9361,-6.8296,-6.7616,-6.7135,-6.6801,-6.5647,-6.5359,-6.5955,-6.4474,-6.3649,-6.3468,-6.2356,-6.146]}]]